GFSCGP_500_spd_000.txt.gz
Wind_Speed
50 50 48 41 34 27 34 30 31 27 27 27 28 27 27 28 21 22 20 21 22 19 17 17 18 19 22 26 30 33 33 33 31 28 27 25 26 25 27 29 31 32 33 35
54 50 43 35 34 32 35 33 27 27 26 26 28 28 25 24 21 20 18 18 18 18 17 18 21 24 27 31 34 34 32 28 26 24 25 26 27 29 30 32 34 35 37 39
52 45 37 37 36 37 36 33 29 27 25 26 31 26 22 21 21 16 16 18 17 17 18 20 24 29 33 35 36 34 29 27 26 27 26 27 28 31 34 37 40 42 44 46
51 44 50 46 41 40 33 30 31 29 26 29 30 25 22 22 18 15 17 19 18 19 21 25 29 32 34 34 31 28 28 29 29 30 31 34 36 38 39 41 44 46 48 49
55 55 52 48 37 32 27 29 31 29 25 28 28 24 21 20 18 17 19 21 22 23 25 28 30 30 28 26 26 26 28 30 32 34 36 38 39 40 41 43 45 47 50 52
56 50 48 43 37 32 29 30 31 29 27 30 29 26 18 19 20 20 23 24 25 27 29 27 24 23 24 25 27 29 29 30 32 34 36 38 40 42 45 47 50 53 55 57
51 48 50 44 36 34 31 33 34 32 31 29 30 29 22 22 22 23 26 28 28 27 25 24 24 24 24 26 27 27 29 32 33 36 39 41 44 47 49 51 53 54 55 56
45 49 42 39 36 31 30 33 32 29 29 30 30 30 24 23 24 26 28 28 26 24 24 22 22 23 23 25 29 31 33 36 38 40 43 45 48 49 50 52 55 57 59 61
40 39 39 34 32 33 33 31 30 28 29 28 29 28 25 23 25 25 23 22 22 24 22 22 23 25 27 30 33 34 36 39 41 43 44 45 48 52 55 58 61 62 63 65
38 34 34 33 34 34 30 28 27 26 27 27 27 23 19 19 20 20 20 20 22 23 24 26 27 29 32 34 36 37 39 40 41 45 49 51 55 58 59 60 61 65 69 73
35 34 35 35 33 29 28 26 24 24 23 20 19 16 15 16 18 20 20 22 23 25 26 28 30 33 35 38 39 39 40 44 50 53 56 59 61 63 65 66 69 73 76 78
38 34 33 30 29 29 26 25 24 21 17 15 13 14 18 20 23 24 23 22 22 23 27 30 33 34 34 37 40 44 49 52 55 59 62 64 66 68 70 74 78 81 83 86
32 32 32 33 31 28 25 23 21 19 17 16 15 17 21 22 24 23 22 22 24 30 32 33 34 35 39 43 47 51 54 58 61 64 66 68 70 73 77 81 84 87 91 94
30 29 25 22 19 21 21 21 20 18 16 17 14 19 20 23 24 23 23 26 29 31 32 33 36 40 45 50 53 57 61 64 66 68 70 74 78 81 84 87 91 95 98 99
27 24 22 23 23 22 21 21 20 17 21 19 18 19 24 26 20 20 24 27 30 32 35 39 43 47 51 56 59 62 65 68 70 74 78 80 82 85 90 94 98 100 101 99
23 24 20 20 21 19 19 20 20 20 22 20 21 17 24 21 23 25 26 30 33 36 38 43 48 52 57 61 64 67 70 73 77 80 81 84 88 92 96 99 98 97 95 94
37 31 32 28 23 21 23 21 21 21 21 20 16 17 19 21 24 28 31 33 37 41 46 51 55 60 64 66 69 71 74 76 78 82 87 90 94 96 96 93 90 89 85 80
16 16 16 18 17 21 21 23 22 22 21 17 17 21 23 26 28 31 36 40 44 49 54 58 60 62 64 66 70 72 74 77 82 87 91 94 96 92 87 84 80 74 71 68
14 16 17 18 19 20 21 21 19 19 21 22 22 24 28 31 34 38 43 47 50 54 57 59 60 62 66 69 71 73 77 82 87 91 95 94 87 82 77 72 69 67 65 64
20 21 21 20 20 19 19 19 19 22 24 24 28 30 34 37 41 44 48 52 54 57 58 60 63 66 68 70 73 78 84 87 92 94 88 81 76 73 70 68 66 65 66 68
17 17 16 16 16 17 18 19 22 24 26 30 34 36 40 42 46 50 53 56 59 60 62 65 68 69 70 74 81 85 88 92 90 81 75 72 71 69 69 67 69 69 71 74
19 19 18 18 18 20 19 23 27 28 31 34 37 41 44 48 52 55 58 60 61 63 65 68 69 71 76 82 85 89 93 90 79 74 71 69 68 69 70 70 72 75 78 81
22 21 21 22 23 23 27 29 30 34 37 40 43 47 50 53 56 58 60 62 64 67 70 71 71 75 82 86 90 91 86 78 71 68 68 68 68 70 73 75 77 80 85 90
25 25 25 27 28 32 34 35 38 39 41 44 47 49 51 53 56 59 62 64 67 70 72 73 75 82 87 91 90 85 78 70 67 68 69 69 70 72 75 79 85 89 93 96
28 29 29 30 32 37 38 41 42 44 46 48 50 51 52 54 57 61 64 67 70 72 72 76 82 86 90 88 81 74 70 68 67 68 69 70 73 78 83 86 90 93 93 94
35 32 32 32 36 37 40 44 47 49 52 53 54 55 57 58 60 63 66 70 71 72 75 81 85 88 86 79 70 68 67 67 68 70 73 78 83 86 89 91 90 85 78 71

GFSCGP_500_spd_003.txt.gz
Wind_Speed
55 54 49 43 35 32 29 30 28 27 24 23 23 21 19 15 16 18 19 26 25 21 24 20 20 19 19 20 22 25 30 33 36 37 37 34 31 30 30 29 29 30 31 33
56 53 41 37 38 34 32 30 27 27 26 24 23 23 23 21 22 20 25 25 20 20 19 18 19 21 22 24 27 30 33 34 35 34 32 30 29 28 29 31 33 34 35 38
55 48 41 39 39 32 32 28 27 25 24 23 23 23 22 22 20 19 21 22 21 20 20 21 21 23 26 29 32 33 33 33 29 27 26 26 28 29 31 33 34 36 39 40
49 44 41 40 38 32 34 28 28 30 25 23 24 23 21 20 20 21 19 20 19 20 18 21 24 27 31 33 33 33 30 27 25 25 27 29 30 31 33 35 38 40 43 46
53 48 44 40 29 31 21 27 30 30 29 28 23 24 19 20 21 22 20 20 20 21 20 24 29 31 33 34 31 26 25 26 27 28 30 31 33 35 37 40 43 46 48 50
50 47 43 33 33 31 29 29 33 31 32 30 21 24 18 17 22 22 21 21 23 25 23 28 32 33 33 29 27 26 27 29 30 32 33 35 38 40 42 45 47 49 49 50
51 46 40 38 43 40 36 34 32 31 32 25 23 25 17 20 23 24 24 24 28 28 28 31 33 31 27 27 28 30 31 32 34 36 39 41 42 44 46 46 47 50 54 56
53 51 43 45 43 37 33 33 30 30 30 27 26 24 21 23 24 26 26 28 31 31 31 32 31 26 28 30 32 32 34 36 38 40 42 44 42 45 48 51 54 57 59 61
47 44 43 41 39 35 34 33 30 31 31 30 28 22 22 24 26 28 29 31 31 30 30 29 27 29 31 33 34 35 37 39 41 43 42 44 49 53 56 59 62 65 67 68
39 39 41 40 39 41 37 31 33 32 30 29 28 22 22 23 26 28 28 29 29 28 27 28 28 30 34 35 36 37 39 39 40 42 47 51 54 58 62 66 69 70 71 73
38 37 40 39 37 32 30 32 32 29 29 25 23 20 18 20 22 22 23 24 25 28 29 28 29 32 35 35 35 36 37 40 44 49 53 56 60 64 67 69 69 72 76 78
39 36 37 33 32 32 31 30 29 28 23 21 17 15 15 18 21 23 24 25 27 27 26 26 29 32 34 34 36 39 42 47 51 55 59 63 65 67 69 72 75 79 81 83
40 37 36 37 36 32 29 27 26 24 20 17 17 14 18 22 25 25 25 25 23 23 27 29 30 31 33 36 40 44 48 53 58 63 65 67 70 73 75 78 80 80 82 86
36 37 34 30 25 24 25 24 23 23 19 16 18 21 25 27 26 24 22 19 22 26 26 29 31 35 37 41 44 48 53 57 61 65 70 73 75 76 77 77 80 85 91 96
35 33 29 28 27 29 26 25 24 22 21 24 21 24 29 29 24 22 24 25 27 28 29 32 36 38 42 46 50 54 58 61 65 68 70 72 73 74 77 84 90 95 99 103
28 28 28 28 30 28 27 26 26 25 25 24 25 28 33 27 24 25 26 28 28 32 34 37 40 44 48 51 54 58 61 64 66 68 68 70 74 80 86 91 96 101 104 101
27 28 28 26 27 29 31 27 25 25 26 26 28 26 24 25 29 27 28 31 34 36 39 42 45 48 52 55 57 61 64 67 68 70 73 77 82 88 93 99 103 103 97 90
32 31 28 26 27 31 27 27 29 28 26 25 20 21 26 28 29 32 33 36 38 41 43 47 50 53 57 60 62 65 67 70 72 74 79 84 88 95 100 102 100 93 86 82
38 35 31 31 33 34 31 26 25 24 22 21 23 24 26 28 30 35 36 40 43 46 48 51 55 57 59 62 65 68 71 73 75 79 85 91 97 101 100 92 84 80 77 75
14 16 22 21 19 20 24 23 24 25 26 22 24 26 28 31 33 36 40 43 46 49 51 54 56 60 62 65 68 71 73 75 79 86 92 98 100 95 87 81 77 74 75 76
19 22 22 23 24 24 23 24 26 27 21 24 26 29 31 34 37 40 43 47 49 51 54 57 59 62 65 67 69 71 74 78 84 90 96 95 88 80 75 72 72 74 77 80
19 20 21 23 20 18 19 21 24 23 25 27 30 33 36 39 42 45 48 51 53 55 57 58 60 63 66 68 71 74 79 84 90 94 90 83 76 71 69 71 76 82 87 91
20 20 19 21 20 20 22 24 25 27 29 32 35 38 42 45 48 50 52 54 55 57 59 61 63 65 68 71 75 79 84 89 91 87 81 74 67 67 71 78 84 89 92 94
21 23 24 25 24 25 27 29 31 33 36 38 41 44 47 50 52 54 56 57 58 60 60 62 65 69 72 75 80 83 88 89 86 80 73 67 65 68 75 82 88 91 91 86
25 25 24 26 29 31 33 35 37 38 40 43 46 49 51 53 54 57 58 59 59 59 61 64 67 71 74 79 84 87 88 85 79 71 67 64 66 71 78 85 89 87 80 77
28 31 30 28 30 34 35 38 40 43 46 48 50 53 54 56 58 59 60 59 58 59 62 66 70 73 77 82 85 86 83 79 73 69 65 65 68 75 82 87 85 78 76 71

GFSCGP_500_spd_006.txt.gz
Wind_Speed
58 55 57 48 35 32 33 37 31 33 33 25 24 21 20 18 15 18 18 19 18 22 26 28 25 23 22 21 22 21 24 28 31 34 35 36 36 34 32 31 29 29 31 33
59 55 44 38 38 38 36 34 30 31 30 25 23 19 20 18 17 17 18 19 22 24 22 22 22 22 20 21 23 25 29 33 36 38 36 33 29 27 28 30 32 33 35 37
59 49 43 42 40 36 32 30 27 29 29 23 24 21 21 21 21 20 18 19 19 18 18 22 23 22 21 23 26 28 32 36 37 34 29 26 26 28 30 33 35 37 39 41
56 48 42 41 39 34 30 25 29 29 27 23 24 22 19 21 23 22 20 19 17 16 17 23 24 24 24 24 29 33 34 34 30 28 28 29 30 32 35 36 39 42 45 46
58 49 51 43 36 30 22 27 27 29 26 25 20 22 14 22 24 24 23 19 17 17 19 22 25 27 29 29 31 34 34 30 29 29 31 33 35 36 38 41 43 44 43 44
56 49 42 38 32 25 30 30 28 30 29 29 20 23 13 21 23 23 22 21 20 20 22 24 26 30 33 32 32 33 31 31 32 35 36 37 39 41 42 42 41 43 47 50
53 49 45 36 35 33 33 32 28 28 27 21 23 26 14 20 22 21 21 21 21 22 25 26 29 32 35 34 33 31 32 35 37 39 40 41 41 41 40 41 45 49 52 56
55 55 49 45 36 35 32 29 23 25 24 23 23 23 19 21 23 23 23 22 25 26 27 29 30 32 35 35 32 34 38 40 41 42 42 41 39 40 44 48 52 55 60 64
52 48 42 37 34 33 31 34 28 25 26 24 24 22 21 22 25 26 26 27 30 28 28 26 29 32 34 34 37 39 41 41 41 40 39 40 43 47 52 56 61 65 69 72
44 44 44 38 37 40 37 30 31 30 28 25 23 22 22 24 25 25 27 30 29 28 26 28 31 34 36 37 39 40 39 38 39 40 41 45 49 53 57 61 65 69 72 75
41 40 39 38 38 37 35 32 30 29 29 26 24 24 21 22 24 26 26 27 27 26 26 29 32 34 37 39 36 35 37 38 39 41 45 48 51 55 60 64 68 72 75 78
39 36 37 38 38 38 37 33 30 32 30 26 25 21 19 21 23 24 23 23 24 25 28 31 32 34 37 36 34 36 37 39 42 45 50 53 57 61 64 69 72 74 76 78
34 39 37 37 37 39 33 30 30 29 27 25 25 19 20 21 23 22 21 24 27 28 28 31 34 35 34 35 35 37 40 44 47 51 56 58 63 65 68 71 74 76 78 81
34 36 37 36 26 26 27 25 25 27 27 24 22 19 21 24 22 21 24 25 26 28 31 34 34 34 34 36 38 43 46 51 56 59 60 63 66 70 72 73 76 79 82 86
26 33 31 31 33 33 29 28 29 29 24 27 20 25 28 24 20 24 25 26 29 31 33 33 33 34 38 41 45 49 53 56 59 60 63 66 69 72 74 77 79 83 87 93
26 34 30 28 31 30 31 31 30 29 26 26 23 24 26 23 24 25 26 29 31 32 32 32 36 39 43 47 50 53 54 57 60 63 65 68 71 74 76 79 84 89 94 99
22 29 30 32 31 30 32 31 28 27 26 26 25 24 25 25 26 26 27 31 33 33 35 37 40 44 48 50 52 53 56 60 63 65 68 71 74 76 81 85 90 94 98 101
27 30 31 27 28 31 27 27 27 27 26 25 24 24 22 22 25 29 33 34 35 36 38 41 45 48 50 52 54 57 60 62 65 68 72 74 77 81 85 90 95 98 98 94
26 26 24 25 26 25 25 28 27 28 27 28 29 25 22 25 30 32 33 34 36 39 42 45 47 50 53 55 58 60 63 66 70 72 74 77 80 84 90 94 97 96 90 80
27 28 29 30 30 29 25 26 25 29 31 26 23 22 24 29 33 34 35 37 40 43 45 48 51 53 56 59 62 64 67 68 70 73 76 79 84 89 93 95 92 86 78 73
29 34 30 32 35 35 30 26 30 31 26 23 25 28 31 33 33 35 37 40 43 46 49 52 54 57 61 63 65 67 68 69 72 74 79 84 89 92 94 89 82 76 72 74
20 23 23 23 22 24 21 24 27 26 27 27 28 30 32 33 36 38 41 44 47 50 53 56 59 61 63 65 65 65 67 70 74 78 83 87 90 91 88 83 76 72 73 77
20 21 19 21 20 20 20 21 23 24 25 26 29 31 34 37 40 42 45 48 52 56 59 61 63 65 65 63 63 66 69 72 76 81 86 88 88 87 81 75 72 72 75 80
18 18 19 19 18 20 21 22 25 27 29 31 33 35 38 41 44 47 51 54 57 60 63 64 64 62 60 62 65 68 70 75 80 84 88 89 88 81 74 72 74 75 77 81
17 18 18 21 23 25 26 29 30 31 33 36 38 40 43 45 49 53 56 59 62 64 65 63 59 59 62 64 66 70 74 79 84 87 89 88 81 74 71 71 73 75 78 83
23 25 26 25 27 29 31 32 33 34 36 38 41 44 48 51 55 57 59 63 64 65 60 57 58 60 62 64 69 74 79 83 86 89 87 81 75 71 70 71 70 73 77 81

GFSCGP_500_spd_009.txt.gz
Wind_Speed
66 61 55 50 51 40 35 35 34 34 37 33 32 25 30 22 18 18 17 19 20 22 23 25 25 26 26 23 24 25 23 23 24 27 31 35 39 40 37 33 31 31 32 33
66 62 52 42 44 40 37 37 35 34 32 31 30 24 29 23 20 20 18 17 20 22 25 27 28 21 20 22 24 25 24 26 27 31 34 36 37 35 32 32 33 34 35 37
65 58 48 43 45 43 38 35 33 34 34 31 28 25 29 23 22 21 19 18 19 22 25 25 22 22 17 20 24 26 27 28 30 32 34 34 31 31 32 35 37 38 39 41
61 45 49 42 42 40 35 30 34 35 33 30 28 26 26 22 23 25 23 22 22 21 20 19 21 21 21 21 23 26 29 32 33 34 33 33 33 34 37 39 40 41 42 42
58 53 46 42 36 35 31 33 36 34 30 28 26 25 24 24 23 25 26 25 24 22 20 19 20 22 23 23 25 27 30 32 34 33 33 33 36 39 41 41 42 40 40 41
54 41 46 37 35 34 35 36 34 29 29 26 22 23 26 21 19 24 25 24 25 24 22 21 22 24 27 28 28 28 29 32 34 33 34 37 39 40 41 42 40 40 42 46
41 52 43 37 35 37 38 36 33 30 29 23 23 25 18 19 19 22 24 24 22 22 23 24 25 27 30 30 29 30 32 33 34 36 38 39 41 40 39 38 40 44 47 49
53 53 47 40 41 41 39 34 31 28 25 26 21 22 20 21 22 22 24 22 20 23 25 25 27 28 29 30 30 31 33 35 36 39 38 38 38 38 39 41 45 47 50 53
53 51 50 47 35 34 34 34 31 28 25 25 21 18 22 20 22 23 24 25 26 28 28 27 28 29 29 31 32 33 35 37 38 36 36 37 38 40 43 45 49 53 57 61
48 48 52 46 38 36 38 31 32 31 27 21 20 16 21 23 23 25 25 27 30 30 27 26 28 30 32 32 33 35 36 36 36 36 37 39 41 44 47 52 56 61 65 69
46 44 46 43 41 34 32 33 30 28 28 24 23 19 20 22 24 25 26 28 29 27 25 28 29 31 31 33 35 36 35 36 36 37 39 42 46 50 55 59 63 66 70 73
41 44 44 42 38 35 35 32 32 31 28 25 24 20 19 22 25 25 27 27 24 24 25 27 29 30 33 35 36 36 34 35 37 40 44 49 53 56 60 64 67 70 72 73
35 37 42 45 44 42 40 37 36 32 28 28 28 23 22 24 24 24 24 22 22 23 25 27 29 31 33 34 34 34 34 38 42 47 51 54 58 61 64 66 69 70 71 74
34 36 36 35 33 32 33 32 30 30 32 27 24 21 21 22 26 27 24 22 24 25 27 28 30 32 32 32 34 37 40 44 49 53 55 58 62 64 65 67 69 71 75 79
33 36 37 36 35 35 35 33 33 32 27 29 19 24 26 26 25 23 24 25 25 26 28 30 31 30 30 34 38 42 45 50 53 56 59 62 63 66 68 70 72 76 79 82
27 28 31 35 35 36 32 32 34 32 31 28 23 23 24 24 24 24 25 24 27 29 30 29 29 32 36 40 43 47 50 53 56 59 61 63 66 69 70 72 76 78 81 85
18 18 19 26 28 30 36 30 30 29 28 25 25 19 26 24 23 24 26 27 29 30 30 32 34 37 40 43 46 49 53 57 59 62 65 66 68 70 72 75 77 80 85 88
20 20 22 27 27 27 24 26 27 27 27 26 23 22 24 24 24 25 26 26 28 30 33 34 36 39 42 46 50 54 57 60 62 65 67 67 69 71 74 77 80 84 87 90
27 30 25 28 27 23 22 22 23 24 25 26 24 24 26 26 25 26 26 29 31 34 34 36 39 42 47 51 55 58 60 63 65 67 67 68 70 72 75 79 83 86 88 91
29 23 20 22 26 26 19 18 19 22 24 24 24 28 31 32 29 27 29 32 34 34 36 38 43 47 51 55 58 61 64 66 66 66 67 69 71 74 78 82 84 86 89 88
23 26 28 30 25 24 23 22 24 23 23 27 28 31 27 23 26 30 33 35 35 37 40 44 48 52 56 59 63 65 66 65 65 66 67 70 72 77 81 83 85 87 88 85
22 23 22 23 26 25 24 29 30 31 29 28 29 27 27 30 33 34 35 36 39 41 45 49 53 56 60 64 66 67 66 64 64 66 68 71 76 80 82 84 87 87 85 80
16 15 14 19 19 20 20 24 24 25 29 29 30 30 30 30 31 33 36 39 43 47 50 53 56 60 64 67 67 66 63 64 66 66 69 74 78 80 85 87 87 84 79 75
14 15 16 17 17 19 19 20 21 23 25 24 25 26 28 30 33 37 41 45 48 50 54 58 61 65 67 68 65 62 63 65 65 68 72 76 78 82 86 87 85 79 74 71
16 15 16 18 20 22 23 24 25 25 25 27 28 31 33 35 39 42 45 47 50 54 58 61 66 68 69 65 62 63 63 64 68 72 75 78 82 85 85 83 80 75 70 71
21 22 21 20 21 23 25 27 28 29 31 32 34 36 38 39 42 45 47 51 55 58 63 66 69 68 62 61 62 62 65 68 71 75 78 82 86 86 85 81 73 68 68 69

GFSCGP_500_spd_012.txt.gz
Wind_Speed
57 68 72 64 56 57 55 43 41 38 41 39 38 32 30 29 26 22 21 22 27 29 27 26 25 27 28 29 31 30 26 25 25 25 25 29 32 35 37 38 36 34 34 35
56 65 66 58 57 51 50 46 42 42 39 37 38 30 32 31 25 25 24 24 27 27 26 25 25 28 30 32 31 25 24 25 25 25 27 31 34 37 36 35 34 35 36 38
53 63 65 64 41 54 53 47 43 37 35 36 34 29 34 32 28 28 25 26 25 24 24 24 26 29 33 31 27 23 22 22 25 27 30 31 34 34 34 34 35 37 39 40
52 62 66 56 50 44 48 45 41 36 35 37 33 30 31 30 28 29 27 27 25 24 23 23 26 28 27 26 27 27 26 27 28 30 31 32 33 34 34 36 38 39 40 41
55 58 61 49 50 42 43 44 40 37 37 33 30 29 31 32 29 28 29 29 27 26 25 26 25 24 25 26 26 27 28 29 30 31 34 34 34 34 37 38 39 39 40 41
47 51 50 47 39 43 47 43 39 35 34 32 28 27 30 32 30 29 29 30 30 28 29 29 27 26 26 26 26 28 29 30 31 33 35 35 36 37 38 38 38 40 41 42
49 41 50 48 41 45 45 41 37 35 35 29 28 29 24 33 30 28 27 28 28 29 28 29 29 28 27 27 29 29 30 31 33 35 34 35 37 37 37 38 40 42 44 46
55 43 49 53 40 45 46 41 38 35 29 29 29 28 27 27 30 28 26 24 25 27 28 29 28 28 28 29 30 30 32 33 34 34 35 36 36 36 38 39 41 43 45 50
54 49 44 48 47 40 42 42 38 33 29 29 25 26 25 26 28 28 24 23 25 27 28 28 29 29 29 30 31 32 33 34 35 36 35 36 36 37 38 40 44 49 52 56
41 47 43 57 41 39 38 36 34 32 30 28 22 25 25 24 25 26 24 25 25 27 29 29 29 30 31 31 31 31 32 34 35 34 35 36 37 38 42 46 50 54 58 61
43 44 51 41 43 39 44 40 35 32 31 30 23 22 24 23 22 22 24 26 28 30 30 29 29 30 31 30 30 31 33 32 33 34 36 37 40 45 49 52 56 59 63 66
39 40 48 47 45 30 34 36 30 33 31 28 25 23 24 24 22 22 23 26 28 29 30 29 27 28 28 29 30 31 31 32 33 36 38 41 46 50 54 57 61 64 66 69
40 42 43 43 45 43 46 30 26 25 25 28 29 25 22 25 26 24 22 24 28 29 28 26 25 27 29 30 30 31 32 33 36 39 44 48 51 55 58 62 64 67 69 71
40 38 41 41 41 38 31 31 28 28 31 29 26 24 24 27 27 24 26 29 26 24 25 25 26 28 29 30 31 32 34 38 42 46 49 51 56 60 63 65 68 70 71 72
32 35 36 37 36 39 39 39 39 37 32 32 25 28 26 29 27 28 29 29 27 26 25 26 27 29 30 29 31 35 39 42 45 48 52 56 60 63 66 68 70 71 72 73
30 31 31 31 35 38 40 41 41 39 37 32 34 26 27 30 27 29 28 27 26 26 26 28 30 29 30 32 36 39 42 45 48 53 57 60 64 67 69 70 70 70 72 75
27 31 32 34 35 36 37 40 39 38 37 33 34 19 30 30 29 27 26 26 27 28 29 29 30 32 34 37 39 42 45 48 53 58 62 65 68 69 70 70 69 71 74 76
20 22 27 28 36 38 33 33 35 35 33 32 27 23 26 27 26 25 26 28 30 29 29 29 31 34 36 38 41 45 49 53 58 62 66 69 70 70 68 67 70 73 75 79
20 16 17 20 18 22 23 25 27 29 24 25 25 26 26 26 26 28 29 29 29 30 31 31 34 36 39 41 45 49 54 58 62 66 70 71 69 66 66 70 72 74 77 80
24 23 22 23 15 18 20 20 23 25 22 22 23 25 26 26 28 29 31 33 33 32 32 34 37 39 41 45 49 54 58 63 66 70 71 67 64 66 69 72 74 76 80 84
24 29 25 22 19 20 23 21 22 22 17 19 21 24 26 28 30 29 28 29 30 31 35 37 38 41 45 49 54 58 63 66 70 71 66 64 66 69 71 73 75 79 84 88
20 24 23 26 21 21 23 25 25 24 25 25 25 26 28 31 35 35 30 31 34 35 35 37 41 45 49 54 59 63 66 70 70 64 63 66 69 70 71 74 77 82 88 91
25 22 21 23 20 20 18 19 21 26 30 31 33 34 32 30 30 31 31 31 32 34 37 41 46 50 54 59 62 65 69 66 62 63 65 67 68 70 73 77 82 87 92 94
15 10 12 13 12 13 15 18 19 22 24 27 28 27 29 29 29 29 30 32 34 38 43 46 50 54 58 62 65 67 62 60 61 63 64 66 70 74 78 82 88 92 94 93
14 14 12 12 13 15 16 18 20 21 23 24 26 28 28 28 29 31 33 36 41 44 47 50 54 58 61 64 61 57 58 59 60 62 66 71 74 78 82 88 92 93 92 89
16 16 14 13 16 17 18 20 23 24 25 27 28 29 31 32 34 36 38 41 44 47 50 54 57 60 58 54 55 56 56 58 62 66 71 75 79 84 90 92 92 92 87 78

GFSCGP_500_spd_015.txt.gz
Wind_Speed
57 65 62 65 58 59 52 57 57 52 50 48 42 41 39 40 35 29 30 28 27 26 30 33 31 30 28 29 30 31 31 34 36 34 29 29 29 30 32 34 37 36 35 34
53 65 71 59 63 60 59 49 53 50 52 47 42 43 38 38 35 28 26 27 27 27 31 33 31 30 30 30 31 32 33 35 32 29 29 29 30 33 36 38 38 37 35 34
40 38 50 61 63 59 59 56 50 51 55 43 44 41 36 32 39 29 29 29 27 27 29 33 32 31 30 31 32 33 34 34 29 27 23 31 34 36 38 38 38 36 36 37
35 41 50 56 63 54 53 52 50 54 50 43 45 39 38 37 37 31 30 29 28 27 28 29 30 30 29 30 32 31 29 29 30 32 32 34 36 37 39 38 38 38 38 40
36 40 48 57 53 53 47 53 52 54 48 44 42 39 30 35 35 31 29 31 29 28 29 30 30 29 28 29 28 27 28 29 30 31 34 36 37 37 38 37 37 39 40 41
45 35 49 60 44 54 49 44 46 52 49 42 37 34 32 32 36 33 29 29 29 29 30 31 32 31 30 30 28 28 28 29 31 33 35 36 38 38 38 38 39 40 41 42
29 45 52 57 59 51 38 55 55 46 48 40 38 33 27 36 34 32 29 29 29 31 32 33 33 32 33 31 28 28 29 31 33 35 36 38 38 38 38 39 39 40 41 41
28 47 53 61 60 51 42 47 44 49 46 37 31 32 33 30 32 31 28 28 28 30 32 33 34 34 33 32 31 31 31 32 34 36 37 38 38 37 38 39 40 41 42 45
48 46 48 56 48 46 49 41 42 44 41 32 31 29 28 29 29 29 29 26 29 29 29 31 33 32 32 32 32 33 34 34 35 36 36 37 37 37 37 38 41 44 47 51
39 36 47 42 44 44 44 47 42 39 35 30 27 28 30 27 27 28 27 30 32 31 30 29 30 31 32 34 35 34 34 34 34 35 36 36 36 37 39 41 45 49 52 55
30 43 47 40 43 50 43 42 39 39 35 28 21 25 27 24 25 26 27 29 29 30 28 30 30 32 34 34 34 34 32 31 33 34 34 35 37 39 42 47 50 53 57 60
26 16 50 50 46 42 38 37 39 34 33 31 27 28 25 22 22 22 26 28 29 29 29 30 33 34 33 33 33 31 31 32 33 34 35 37 40 43 48 51 54 58 62 66
19 30 36 40 46 44 36 29 33 33 33 32 29 29 25 20 21 23 24 25 26 27 30 32 32 31 31 30 30 31 32 33 34 35 38 42 45 48 51 55 59 63 67 71
29 29 35 31 41 37 32 32 33 29 34 31 30 27 26 27 27 26 25 26 28 29 30 29 29 29 29 31 32 32 32 34 36 39 43 46 48 51 56 60 64 68 72 74
33 33 36 38 36 39 37 27 23 28 19 24 24 27 26 28 27 28 28 30 31 32 32 30 30 31 31 32 33 33 35 37 39 42 45 48 52 56 61 65 69 72 75 75
28 28 29 30 29 29 33 34 31 31 28 26 26 26 28 29 33 31 30 30 32 33 30 29 31 31 32 34 34 36 38 39 42 44 47 52 56 61 66 70 74 76 74 70
19 28 28 28 27 29 31 31 36 32 31 32 30 26 32 34 35 36 32 31 31 30 30 31 32 34 34 34 36 38 39 41 44 47 52 57 61 67 71 74 76 72 68 69
18 22 25 29 29 30 29 30 32 36 36 36 33 34 36 36 37 32 30 29 28 30 31 33 34 35 36 37 39 39 41 44 47 52 56 62 67 71 75 74 69 67 68 69
23 23 23 27 29 29 26 26 30 33 30 36 35 34 31 32 31 31 29 28 29 31 32 34 35 37 38 38 39 40 43 47 52 56 61 66 71 74 72 66 65 66 69 72
22 22 20 19 20 17 21 23 26 30 25 27 27 26 26 31 33 31 28 30 30 31 33 37 40 39 39 38 40 43 47 51 56 61 66 70 73 66 62 63 65 68 73 78
22 20 19 15 17 12 15 21 22 21 18 21 24 26 27 30 29 27 29 30 31 31 32 33 34 35 39 40 42 46 51 56 61 66 70 69 61 60 61 64 69 74 79 83
20 20 25 22 23 17 16 19 21 18 22 23 22 22 23 25 27 28 28 31 35 37 33 33 36 37 39 42 47 51 55 60 65 69 62 58 58 59 64 68 74 80 86 89
27 21 22 25 19 21 16 17 20 21 24 27 26 26 27 28 30 31 31 30 33 32 33 34 36 38 42 47 50 55 60 65 64 56 55 56 58 63 68 73 79 86 91 93
22 23 23 25 19 21 20 18 17 17 16 18 21 25 25 26 27 28 29 30 31 31 32 35 38 43 46 50 55 60 63 56 53 52 54 57 61 67 72 77 84 91 95 99
18 21 18 13 13 13 14 15 16 15 16 18 20 22 23 24 27 28 29 30 31 33 36 40 43 46 50 55 58 56 51 51 51 54 56 62 67 71 77 84 91 96 100 98
18 14 13 13 12 11 11 11 13 14 16 19 21 23 25 27 29 31 32 34 35 36 39 42 46 50 54 55 49 48 49 51 53 56 62 68 72 78 85 90 93 99 97 87

GFSCGP_500_spd_018.txt.gz
Wind_Speed
51 54 51 51 53 50 50 52 53 53 54 53 52 46 44 41 40 39 34 31 33 29 27 28 28 32 34 29 26 26 27 29 31 33 35 36 36 31 30 31 32 34 38 39
53 54 48 51 53 54 57 56 52 50 51 51 52 47 47 41 40 39 36 33 34 29 29 27 28 31 31 29 28 28 29 31 33 36 36 37 33 30 30 31 33 38 40 40
55 47 51 56 57 59 58 57 52 42 44 50 53 50 48 41 38 39 36 34 33 29 29 29 29 30 30 29 29 30 30 32 36 38 37 31 30 31 35 36 38 39 40 41
51 48 53 58 63 62 62 57 54 42 34 51 51 51 46 42 42 41 38 32 33 29 28 27 28 29 31 30 30 28 30 33 36 32 30 31 33 34 35 38 40 41 42 41
43 38 39 45 50 60 63 55 49 42 40 48 53 49 43 47 41 39 35 34 33 30 29 27 28 28 27 27 27 28 30 32 31 30 32 34 36 37 38 40 41 41 41 40
30 30 35 35 41 56 53 53 53 50 34 45 47 40 40 44 35 35 36 35 32 29 29 28 28 28 26 26 28 29 31 32 33 34 36 37 38 38 39 41 41 41 40 40
25 25 31 38 38 57 57 53 36 53 49 48 41 43 36 37 36 34 33 33 29 26 30 29 29 28 27 29 30 32 33 34 35 37 38 37 38 39 40 41 40 40 40 40
24 26 30 31 47 53 58 58 41 42 53 44 45 45 39 37 30 32 31 30 27 26 28 28 26 27 28 31 32 33 34 35 36 38 38 38 40 40 39 39 39 39 40 41
22 22 31 43 51 57 65 45 29 34 51 44 40 37 35 32 29 28 29 24 25 27 27 25 24 27 28 30 32 33 33 35 36 38 39 39 39 37 38 38 39 40 42 45
9 16 36 53 47 42 38 35 34 35 34 42 37 35 35 29 27 26 22 20 25 25 26 25 25 26 27 30 31 33 35 36 37 37 38 37 37 37 38 39 40 43 46 50
18 21 27 51 48 28 40 39 42 26 35 30 36 33 32 24 21 21 20 22 23 24 28 29 27 27 30 32 33 33 34 37 37 37 35 36 37 37 38 40 43 47 50 53
22 14 28 44 38 33 36 38 34 37 30 30 26 26 24 21 20 21 21 23 26 27 28 27 27 30 33 33 33 34 35 36 36 35 36 37 38 38 41 44 47 50 54 57
16 17 25 40 29 41 30 34 33 32 32 28 26 25 23 21 19 21 23 25 24 24 25 26 28 31 32 33 34 34 34 34 34 36 37 38 39 42 44 47 50 54 58 63
17 25 20 40 31 21 27 31 37 36 32 29 27 26 24 21 20 22 22 20 21 21 23 26 29 32 33 33 32 32 32 34 36 37 38 40 41 44 47 50 55 59 64 68
13 15 14 22 39 26 22 15 19 30 25 26 25 26 24 23 24 25 25 24 24 25 27 29 31 33 32 32 32 33 34 37 38 39 40 41 43 47 50 54 59 64 69 72
21 20 20 16 14 30 25 24 21 23 25 24 26 20 23 27 24 22 27 25 26 28 30 31 32 32 32 32 33 35 37 38 39 40 41 42 46 50 55 59 64 69 73 74
14 17 18 18 14 17 23 24 25 20 19 19 19 16 23 24 25 28 27 28 28 28 27 29 31 32 32 33 35 36 37 39 39 40 42 44 50 55 59 64 69 73 70 63
11 12 14 16 17 19 21 22 22 24 26 25 24 23 29 27 27 26 28 29 29 27 27 29 31 32 33 34 35 37 39 40 44 41 45 49 55 59 64 69 73 66 62 61
16 13 9 16 19 19 20 19 20 24 23 29 29 30 35 30 28 29 30 30 30 29 28 30 31 32 33 35 38 41 42 42 41 45 49 54 58 63 68 71 62 60 61 65
21 18 21 21 21 18 17 17 17 19 22 25 27 30 31 28 31 28 29 28 28 28 29 29 30 32 35 37 37 35 39 41 45 49 53 57 63 68 67 61 59 61 66 72
20 22 18 16 14 14 12 16 17 16 18 23 25 25 25 27 28 27 28 29 30 29 29 30 33 35 37 34 36 37 40 44 49 52 56 62 67 62 60 59 61 66 72 74
18 16 14 13 12 13 16 11 14 14 18 20 22 23 24 25 26 26 25 26 27 27 28 28 30 32 34 35 37 40 44 48 50 56 61 63 58 58 58 61 66 71 76 80
14 15 16 17 18 13 14 13 12 17 20 20 21 23 23 22 23 23 24 26 28 29 29 31 32 33 34 36 40 44 46 50 55 59 57 55 55 57 60 65 70 75 81 86
19 18 20 17 18 17 14 14 14 14 15 17 18 20 24 26 27 26 24 25 25 27 29 30 31 33 36 40 42 45 50 55 56 52 52 53 54 59 64 70 77 82 86 90
26 24 20 18 17 19 16 16 14 13 13 13 13 13 15 16 18 21 23 25 26 28 30 32 34 37 39 41 44 49 54 51 48 49 50 53 57 63 69 74 81 85 90 96
19 18 17 17 18 13 14 13 13 11 9 10 12 14 16 18 20 22 24 27 29 31 32 34 36 37 40 44 50 51 46 46 47 49 52 56 62 68 74 79 82 88 92 97

GFSCGP_500_spd_021.txt.gz
Wind_Speed
44 47 51 45 40 40 44 45 49 48 50 48 51 49 39 40 45 45 39 34 37 28 26 32 29 28 27 28 29 28 25 25 25 28 29 30 32 34 34 32 29 29 32 33
51 50 45 43 45 46 47 48 47 46 45 44 49 52 40 45 43 43 38 36 38 29 25 32 28 28 27 27 28 29 28 27 28 29 29 33 35 36 29 30 26 32 37 38
53 53 42 45 47 50 51 50 47 47 43 42 42 53 45 47 45 39 40 36 40 29 27 32 30 28 28 27 26 27 28 28 30 30 32 35 34 28 27 29 33 36 38 40
49 45 47 47 49 50 51 48 50 50 46 42 41 50 48 46 43 40 41 40 37 29 28 30 30 30 30 27 27 28 28 29 29 31 33 31 29 29 30 33 36 39 41 42
43 43 43 47 43 46 46 47 50 51 47 46 44 44 43 44 46 47 41 39 35 29 29 28 28 29 27 26 26 27 28 28 29 31 31 30 31 33 35 36 39 40 42 44
39 43 45 44 46 50 48 52 51 48 48 55 48 37 40 44 45 43 39 40 34 29 28 29 30 29 26 26 26 26 26 28 30 31 33 33 35 36 36 38 39 40 41 42
40 41 39 39 42 47 49 50 56 53 53 57 48 39 38 37 42 37 39 37 30 28 28 29 32 29 25 26 27 28 28 30 31 33 35 36 37 37 38 40 41 40 39 40
35 35 32 26 30 34 39 41 55 59 57 56 54 49 43 36 40 37 35 34 29 28 28 30 31 27 25 26 27 29 31 32 34 34 35 36 37 38 39 40 39 39 40 41
23 16 21 20 22 36 31 47 45 55 50 46 46 46 31 40 33 31 30 30 24 27 27 26 25 26 24 25 28 29 31 32 33 33 33 36 38 39 39 38 39 40 41 42
18 15 12 11 17 30 34 45 56 68 24 47 45 32 29 29 27 23 24 21 26 24 25 23 24 23 21 23 26 28 29 30 32 32 35 37 38 38 37 38 40 41 42 44
15 9 11 13 17 29 42 53 54 32 17 31 38 33 30 27 21 20 20 22 21 21 23 22 21 21 22 25 26 28 29 30 32 34 36 37 37 36 39 40 41 43 45 47
8 0 18 16 27 45 26 34 33 28 12 32 39 33 31 25 21 18 20 21 20 19 18 19 20 22 25 27 28 29 31 32 33 35 36 35 36 39 41 41 43 46 47 50
12 17 15 31 33 35 24 31 31 30 35 31 30 31 29 25 22 21 21 20 19 18 18 19 21 24 25 27 28 29 31 32 33 34 35 36 38 41 42 43 44 47 50 54
21 20 17 25 20 25 15 30 30 21 32 28 25 28 26 25 20 19 19 18 17 16 16 17 19 21 24 26 28 29 32 33 34 35 36 38 40 41 42 44 48 49 54 59
8 15 7 17 26 13 15 30 22 22 25 24 23 24 21 19 18 17 17 16 16 16 16 17 20 24 27 28 29 30 31 34 35 36 37 39 41 42 44 49 47 54 59 63
16 23 14 13 25 14 8 23 18 28 28 23 17 18 18 18 17 17 17 17 18 18 19 20 22 24 25 26 28 30 32 34 34 37 39 41 43 45 46 48 53 59 62 67
11 12 14 18 11 19 12 9 10 27 19 20 18 17 18 19 18 16 16 16 17 19 21 21 22 23 25 27 29 30 32 34 36 39 42 45 47 44 49 53 58 62 66 67
11 12 11 11 11 16 15 14 12 17 7 11 12 17 18 20 17 15 14 17 20 20 21 23 24 25 27 28 29 31 33 36 39 43 41 40 45 48 53 57 61 64 63 61
9 10 10 10 13 13 12 15 16 17 19 19 21 22 20 17 17 17 18 19 20 22 24 25 25 25 26 27 29 31 35 38 38 39 41 44 48 52 55 60 63 59 59 60
11 9 6 7 8 10 10 12 15 16 19 20 22 23 23 22 22 24 23 22 22 23 24 24 24 25 26 28 31 35 38 38 38 39 43 47 51 54 59 60 56 56 58 63
11 9 6 5 6 9 13 13 13 14 16 19 21 20 21 21 23 23 22 21 23 23 23 24 25 26 26 28 30 32 37 38 40 43 47 49 54 57 56 54 55 57 62 66
12 12 9 9 8 12 14 15 13 14 15 14 16 18 19 20 21 21 20 20 21 22 23 23 24 27 30 32 34 36 37 39 43 46 48 53 56 52 52 54 57 61 66 71
13 9 12 11 12 12 10 11 7 11 13 13 14 15 16 16 17 18 19 20 20 22 26 27 28 29 33 33 35 36 39 43 45 47 51 52 50 50 52 56 59 65 71 77
14 13 11 13 13 15 12 10 11 9 8 10 14 16 17 19 20 21 22 23 23 23 25 27 29 31 32 34 36 39 41 43 45 49 47 47 48 51 55 59 64 70 77 83
16 16 14 12 16 14 18 12 12 12 11 13 13 13 12 12 13 14 16 19 21 23 25 27 29 31 33 35 37 38 41 45 46 45 45 47 50 53 57 63 70 76 82 88
15 20 21 19 18 16 16 16 12 12 12 11 11 10 10 12 13 14 16 18 20 23 25 27 28 30 32 33 36 41 43 43 43 44 46 49 52 56 62 68 73 81 87 90

GFSCGP_500_spd_024.txt.gz
Wind_Speed
40 47 48 43 45 47 49 49 50 49 50 52 53 51 48 45 42 43 44 39 42 36 33 30 29 31 30 30 30 28 25 28 26 25 25 25 27 29 30 33 35 29 27 25
44 45 43 44 47 49 50 50 48 49 50 52 53 55 55 48 44 45 46 39 42 37 33 31 29 29 31 30 30 28 25 29 30 27 27 27 29 29 32 34 29 27 28 31
43 44 45 47 49 52 51 50 47 49 46 50 52 54 56 50 47 46 48 42 44 39 35 31 28 29 30 28 29 27 26 26 28 30 29 30 30 31 33 28 28 31 33 36
49 48 49 50 52 49 52 46 48 48 49 51 50 56 55 52 51 50 45 43 43 39 34 29 28 29 32 31 30 28 26 27 28 29 30 30 30 31 29 29 31 35 37 39
44 43 46 49 41 42 45 46 48 50 50 53 47 55 51 48 52 52 41 40 41 36 34 30 30 31 30 31 29 28 28 28 30 31 31 30 30 30 31 33 36 38 39 41
43 45 46 44 42 44 46 46 49 51 50 57 49 51 54 40 47 48 44 44 41 35 32 30 31 30 27 29 27 27 27 29 30 32 32 30 31 32 33 36 38 39 41 44
45 42 42 41 42 43 44 46 48 51 56 59 51 51 49 43 35 37 46 41 36 33 30 30 29 31 29 28 28 26 27 29 29 31 31 32 33 34 36 37 38 40 43 44
37 40 37 35 39 37 35 38 46 48 51 52 51 52 43 40 29 37 44 39 37 32 31 28 31 32 30 28 29 27 27 28 29 32 33 34 35 36 36 38 40 41 42 42
24 25 29 32 33 34 34 41 31 43 47 49 48 50 49 44 37 33 39 37 32 28 29 30 31 30 29 28 28 28 27 28 31 32 34 34 35 36 37 40 41 42 41 42
14 18 21 29 32 34 32 30 35 41 43 48 50 54 53 45 37 35 30 26 27 29 29 30 28 28 27 26 25 26 26 27 29 31 32 34 35 37 39 41 41 40 42 45
12 15 23 25 29 30 34 34 37 37 38 43 50 43 42 43 33 31 24 23 24 29 28 27 27 26 24 24 24 23 24 26 27 31 32 35 37 38 40 40 40 42 45 47
11 18 18 15 18 22 21 23 33 40 43 42 34 23 29 38 24 27 22 26 24 27 27 28 26 24 23 23 23 24 26 28 29 31 34 36 37 37 37 39 42 45 47 48
7 4 8 5 8 11 19 22 25 31 46 26 19 29 32 30 26 25 25 26 26 24 26 24 20 19 21 22 24 25 26 28 29 31 33 34 36 37 39 41 45 47 49 52
11 9 9 4 13 14 17 28 35 32 26 6 16 25 25 21 25 23 23 25 24 21 19 19 19 20 21 22 22 23 25 27 29 31 33 35 38 39 41 44 47 49 51 53
10 10 9 12 16 15 8 17 16 20 19 5 18 23 24 25 27 26 24 20 18 18 18 19 19 18 19 20 22 25 26 28 30 33 35 37 38 40 43 46 48 51 50 53
11 19 15 13 11 11 12 8 13 17 13 26 30 33 32 29 27 25 22 20 19 17 15 16 17 18 19 20 22 24 27 29 32 33 35 36 39 42 45 47 47 50 53 57
20 24 24 6 6 8 5 8 13 24 29 28 26 25 24 24 22 21 20 19 18 18 18 18 18 19 19 20 23 26 28 30 32 33 35 38 42 44 44 46 48 52 56 60
14 20 21 18 12 8 11 16 20 17 15 15 17 19 21 21 19 17 16 16 16 17 18 17 17 18 20 22 25 27 28 30 32 34 38 41 44 45 46 47 51 55 60 62
13 12 11 14 13 16 13 14 21 18 14 13 14 19 19 19 19 16 13 15 17 16 15 17 19 20 22 24 25 26 28 30 33 37 40 42 44 44 48 50 55 58 61 57
8 8 7 7 11 12 11 10 9 11 11 10 13 17 15 17 16 15 17 15 15 16 18 20 20 20 22 24 26 27 30 33 35 37 41 43 45 47 52 52 57 59 55 56
3 3 3 4 5 7 8 9 8 11 12 15 16 14 14 17 18 17 15 16 18 18 19 18 18 21 24 25 27 29 32 35 37 40 41 43 48 49 52 57 54 52 55 58
8 8 6 5 5 7 8 11 13 13 14 12 13 15 16 16 16 16 17 17 17 17 16 18 19 21 23 27 30 32 35 37 38 40 43 47 48 51 54 51 51 54 57 60
14 11 8 8 8 8 7 7 9 10 11 12 12 11 12 12 13 13 12 13 14 15 15 17 22 24 26 28 30 34 35 37 40 42 45 47 50 50 49 50 53 56 60 67
13 11 10 8 9 12 6 9 10 7 9 10 10 10 10 10 10 11 13 15 16 18 20 21 23 25 28 30 32 35 36 38 41 42 46 48 47 47 50 52 55 60 66 71
11 11 9 9 12 12 10 11 10 10 9 9 12 13 13 12 11 11 11 12 13 16 19 22 25 28 30 31 32 34 36 38 41 44 45 45 46 48 50 53 58 64 72 78
14 13 14 18 14 12 14 14 16 12 13 13 9 10 10 9 10 10 12 13 15 17 20 23 26 28 29 30 32 34 37 40 42 43 43 43 45 49 52 57 64 72 78 83

GFSCGP_500_spd_027.txt.gz
Wind_Speed
41 42 42 36 38 43 50 52 52 52 51 50 52 52 50 48 46 45 42 41 41 44 43 39 35 33 31 30 31 29 28 24 25 28 29 28 25 26 27 28 29 32 34 33
44 43 41 40 42 45 49 52 55 55 52 55 53 54 52 50 47 46 43 41 44 44 41 41 36 31 33 31 32 30 27 26 26 28 33 30 27 28 29 28 30 32 33 30
43 42 43 45 45 46 48 50 52 54 52 56 58 56 55 52 51 50 47 42 44 44 41 44 37 32 34 31 32 31 29 27 26 26 31 32 32 30 30 30 32 33 31 30
48 44 43 45 47 48 47 50 54 55 56 57 57 59 53 53 50 48 49 47 45 44 41 40 40 32 34 32 30 31 29 26 26 26 27 29 31 31 31 33 33 34 32 33
45 44 47 49 47 49 52 51 55 56 57 58 55 62 54 51 48 45 46 47 48 47 41 37 38 33 35 33 30 31 30 27 27 27 27 28 30 32 33 35 36 36 35 38
45 47 47 45 45 49 50 51 52 53 57 66 60 62 58 49 45 45 46 45 46 47 40 38 39 36 33 33 30 30 30 28 26 28 29 30 33 34 35 35 38 38 40 41
47 47 48 47 47 48 48 47 50 52 56 65 61 60 59 51 43 47 43 47 46 46 41 37 37 34 30 33 30 30 30 27 26 29 29 29 31 33 34 37 39 41 41 41
45 45 43 43 45 41 42 41 48 52 56 58 53 57 51 43 41 45 41 42 44 47 41 36 37 33 34 34 32 30 29 27 26 28 28 29 31 33 36 39 41 41 42 44
24 27 27 29 36 40 38 39 32 41 44 49 51 52 50 44 40 40 42 36 39 41 39 38 36 33 34 33 33 31 29 28 27 28 30 31 33 34 37 38 39 41 44 46
18 20 21 23 28 30 36 35 36 37 38 42 41 47 46 39 37 33 32 34 35 37 37 37 38 35 33 32 33 31 29 28 28 29 31 32 33 34 35 37 40 43 45 45
23 20 17 25 22 27 36 45 44 40 41 44 40 46 36 41 35 30 33 24 30 30 35 38 37 34 33 32 31 30 28 27 28 29 29 31 33 34 36 39 41 43 44 46
20 24 20 26 27 32 31 31 35 34 33 34 36 46 38 40 32 32 33 27 32 35 39 39 35 33 30 29 30 28 27 27 26 28 30 31 34 35 37 39 41 43 45 45
25 17 18 11 22 22 16 30 34 41 41 35 32 17 38 35 33 37 35 29 30 34 36 36 32 30 29 28 27 26 26 26 27 28 30 32 34 35 37 40 41 43 45 47
18 14 13 13 6 8 11 10 14 17 21 14 24 26 35 34 34 38 37 36 34 31 31 31 29 27 27 27 25 25 25 26 27 29 30 32 34 36 38 40 42 44 46 49
11 14 13 15 10 11 9 10 9 8 9 9 11 36 32 42 34 37 35 31 33 28 26 27 26 25 24 22 22 23 24 25 27 29 30 33 35 37 39 41 43 46 49 52
10 16 7 16 7 5 9 14 9 12 6 4 24 31 37 31 36 27 23 23 26 28 26 23 21 20 19 20 21 22 24 25 27 30 32 34 36 37 39 42 46 49 51 52
12 19 18 9 5 4 8 9 5 2 8 18 26 36 36 28 29 26 25 26 25 24 22 21 20 19 19 20 21 22 24 26 29 31 32 34 36 38 41 45 47 48 50 53
14 16 17 15 8 11 20 24 21 22 20 27 39 32 31 26 24 24 23 24 22 20 20 19 19 20 20 21 21 23 25 27 29 31 32 34 37 40 42 46 49 51 53 58
11 11 9 12 11 17 16 18 21 24 23 29 29 27 22 25 22 19 18 18 20 21 21 20 19 18 18 20 22 24 26 28 29 31 33 36 39 42 46 47 49 53 56 59
10 8 10 9 10 9 8 12 15 15 17 15 15 17 17 17 19 18 18 20 21 19 17 17 18 19 21 22 22 23 26 28 30 32 36 39 42 44 46 47 52 54 58 61
6 4 6 5 4 6 5 4 3 3 3 6 8 11 13 16 19 22 20 16 14 16 18 19 21 21 20 21 23 25 27 29 32 36 39 41 42 44 47 50 53 57 57 56
3 3 2 2 2 3 4 5 6 5 5 4 8 13 15 16 18 18 16 17 17 18 18 18 18 18 20 21 22 25 29 32 34 37 39 40 43 46 48 52 55 52 53 54
6 7 6 5 5 3 5 8 8 6 6 5 6 8 11 13 15 16 17 17 17 16 16 17 17 17 19 23 25 27 30 33 34 36 39 41 44 47 51 51 50 50 53 56
14 11 8 6 5 5 5 6 8 8 7 7 8 9 11 13 14 14 14 14 14 15 15 16 19 21 21 24 26 29 32 33 34 36 39 42 46 48 47 47 48 51 55 61
14 15 12 10 9 9 10 6 7 6 6 8 9 8 9 10 10 12 13 14 14 14 14 15 17 19 22 25 28 30 31 32 34 37 42 44 45 44 45 47 51 55 60 67
18 17 16 13 10 11 12 10 9 11 10 9 8 10 11 12 10 11 10 11 12 12 13 15 18 23 26 27 27 29 31 33 38 40 43 42 42 43 45 49 54 61 67 72

GFSCGP_500_spd_030.txt.gz
Wind_Speed
30 33 34 35 38 40 43 44 45 45 49 52 52 52 51 51 51 46 42 40 38 33 35 40 42 41 40 37 32 31 33 31 27 27 28 28 30 29 27 26 28 29 30 32
34 34 36 39 43 44 45 47 48 46 46 53 54 55 53 52 52 49 46 44 39 36 37 38 38 38 42 38 35 32 33 33 27 27 28 28 31 30 28 28 29 30 32 32
38 38 40 43 45 47 48 49 50 50 49 50 54 54 56 51 52 51 48 45 43 39 41 42 38 36 39 40 35 35 33 33 30 28 28 27 28 30 33 31 31 32 33 33
41 40 44 47 49 52 52 51 52 53 52 50 51 55 54 56 53 51 49 48 46 42 41 42 40 36 36 40 38 35 33 33 33 29 27 27 28 29 32 33 34 34 34 35
40 43 45 47 48 52 52 52 54 55 56 55 53 58 51 50 52 50 49 51 49 46 43 42 39 38 36 41 39 36 34 33 32 29 27 27 27 27 29 31 33 34 35 37
41 45 49 49 48 52 54 55 57 57 58 62 59 61 53 44 43 46 49 49 49 46 44 41 39 38 37 39 37 36 36 33 31 29 28 29 28 28 30 31 34 35 37 39
44 46 47 49 50 51 52 53 54 58 61 66 66 65 54 50 43 43 46 48 46 47 45 42 39 37 37 38 36 36 37 34 32 30 30 30 28 28 30 33 34 35 38 42
42 38 32 33 36 45 51 43 45 51 56 59 60 68 60 51 52 47 43 44 48 45 42 41 39 39 41 39 38 38 36 35 32 31 29 29 28 29 31 33 35 38 41 43
25 26 26 28 31 33 36 45 41 42 45 48 52 60 63 61 50 44 46 42 47 45 41 40 39 39 41 40 39 38 36 35 30 31 30 30 28 30 34 35 37 40 40 40
23 24 24 29 33 29 28 30 35 45 45 48 46 43 47 51 43 38 38 45 48 45 40 37 39 39 37 39 39 38 36 35 32 32 32 32 31 32 35 36 36 37 39 41
24 23 25 39 35 36 35 35 35 37 45 50 48 45 32 36 33 39 36 43 39 45 34 36 40 40 38 41 40 37 36 33 33 32 33 33 33 32 32 33 35 37 40 42
25 33 34 32 30 27 31 38 40 41 42 45 46 34 32 32 30 36 38 44 33 35 34 35 40 39 41 40 38 37 35 33 33 32 33 33 31 31 32 34 36 38 41 44
24 26 28 23 24 25 21 27 26 39 42 44 41 24 10 31 30 32 36 38 35 31 33 37 42 41 39 36 36 36 34 34 33 32 31 31 31 32 33 35 37 40 42 44
20 18 20 23 25 28 31 24 21 22 25 25 28 8 17 23 26 34 35 38 34 34 36 37 38 38 37 36 36 37 35 32 31 31 31 31 32 33 34 36 39 40 42 44
13 18 21 19 23 24 28 23 19 19 5 4 3 20 27 25 30 35 32 35 32 35 34 34 32 35 36 35 34 33 31 29 29 30 31 31 32 33 35 36 38 40 42 46
16 10 15 18 12 18 19 18 18 19 8 10 15 22 31 30 30 27 33 35 31 31 31 28 28 31 31 32 32 31 29 28 29 29 29 30 31 33 35 37 39 41 45 47
4 13 14 14 17 19 21 11 8 12 11 13 27 29 29 32 31 31 32 33 30 32 28 27 27 29 29 28 28 28 26 25 25 25 27 29 32 34 36 38 41 44 47 51
5 10 14 15 18 24 24 18 12 16 16 22 31 28 34 22 30 30 35 30 23 23 23 22 24 24 24 24 23 21 20 22 24 26 28 30 32 34 37 40 44 48 50 51
6 9 12 14 18 23 27 25 21 17 22 20 22 21 22 29 26 26 24 23 22 21 19 19 19 19 17 17 18 20 21 23 24 27 29 31 33 36 39 44 47 47 49 53
5 6 9 11 14 16 19 20 22 21 25 19 19 19 19 23 24 24 22 21 21 20 18 16 16 16 18 20 20 21 23 25 26 28 30 32 34 39 42 44 45 49 51 55
3 5 6 7 7 8 10 13 14 14 12 13 12 15 14 13 15 17 15 15 14 13 13 15 17 20 21 21 21 22 23 24 26 28 31 34 37 40 42 44 47 49 54 57
2 1 3 4 5 6 4 5 8 10 13 10 9 10 12 15 15 13 13 13 11 11 14 17 18 19 18 18 19 21 22 25 28 30 32 36 38 40 42 44 48 52 52 51
7 4 4 3 2 4 6 4 1 3 4 8 11 11 10 9 8 8 10 12 14 16 17 15 16 16 17 17 19 22 25 27 29 32 34 36 37 39 43 48 49 48 48 50
14 8 5 6 3 2 1 3 2 1 1 1 2 5 8 11 11 12 13 13 13 13 13 14 14 15 17 20 22 24 27 29 31 32 33 35 38 43 45 46 45 46 49 53
14 11 9 8 6 4 2 3 3 1 1 2 5 5 5 6 7 9 9 10 11 12 13 16 17 17 18 21 23 25 28 29 29 31 34 38 40 43 42 43 44 48 53 57
18 17 11 9 7 5 5 6 2 4 5 4 4 5 7 9 10 10 11 12 11 11 12 13 15 17 20 23 25 26 26 28 29 34 37 39 40 40 41 44 48 52 56 61

GFSCGP_500_spd_033.txt.gz
Wind_Speed
24 24 22 25 28 29 32 35 39 42 43 42 43 46 44 38 44 49 54 52 47 41 42 37 37 39 39 35 37 39 36 34 35 37 35 31 31 31 30 32 31 28 28 29
25 25 27 28 30 34 38 42 45 47 47 51 50 53 49 44 40 48 51 53 49 44 43 39 36 39 40 35 32 39 37 36 35 34 36 31 32 31 30 32 31 30 31 31
27 30 31 34 38 42 44 46 48 50 51 53 55 55 50 46 44 45 51 50 48 48 44 41 38 39 41 34 33 39 40 38 35 34 34 30 32 31 29 30 34 35 34 34
32 33 37 40 42 43 46 47 49 52 55 56 55 60 51 47 45 46 50 49 46 47 45 42 41 43 42 36 36 39 41 39 35 33 32 32 32 33 30 30 33 36 37 37
34 35 37 40 41 45 48 50 53 55 57 58 56 60 53 48 41 41 47 50 48 46 46 43 39 42 40 37 38 39 40 40 36 34 31 32 33 33 30 31 32 34 37 38
35 38 37 38 42 46 50 52 55 57 58 64 58 62 52 50 44 39 42 48 53 50 47 46 43 45 41 38 40 39 38 39 37 34 32 34 34 33 31 32 32 34 36 38
33 33 36 39 43 46 46 43 48 55 60 65 62 66 53 51 52 45 44 44 53 55 51 49 47 45 42 38 40 39 38 38 37 35 34 34 35 33 32 32 34 35 37 38
31 31 35 35 38 37 34 34 36 40 47 55 57 66 58 56 58 54 47 47 51 55 53 49 47 47 41 39 40 41 40 38 37 35 34 35 34 33 32 33 33 34 36 38
31 32 31 29 29 27 30 39 40 48 47 50 46 42 53 55 56 57 51 46 43 51 52 50 46 43 40 39 41 41 40 39 38 35 35 35 33 32 33 34 35 36 36 38
30 27 22 24 25 31 38 36 40 44 50 54 55 49 36 33 40 38 44 46 48 42 50 48 47 40 39 40 42 43 41 40 40 37 35 34 33 32 34 35 37 38 37 36
22 21 18 24 29 33 34 36 40 40 42 47 48 35 35 27 31 28 27 35 45 51 48 46 44 41 37 40 43 45 41 40 40 36 34 34 34 34 35 37 37 36 35 35
22 23 20 19 24 29 34 33 34 41 39 49 42 31 23 19 27 36 28 36 43 48 49 45 44 39 36 40 43 44 41 39 39 36 35 36 36 35 35 37 35 35 35 37
17 18 20 19 26 31 37 36 38 38 36 42 41 25 24 21 19 34 30 39 43 47 45 43 38 37 37 41 43 41 39 39 38 37 35 37 36 36 36 34 34 35 36 38
13 15 21 26 24 27 36 39 42 37 36 29 37 15 13 14 25 34 26 35 39 42 36 39 37 35 41 44 43 41 40 38 37 36 36 36 36 36 33 33 34 35 38 41
10 16 16 12 19 23 26 26 26 30 24 22 14 7 19 17 24 20 25 35 41 35 32 33 35 36 42 42 40 39 38 37 35 35 34 35 36 33 33 33 34 37 40 42
13 8 7 12 15 22 19 19 13 12 3 14 6 5 11 17 18 27 30 34 42 31 34 36 36 36 39 38 37 35 34 33 33 32 33 33 32 32 32 33 36 39 40 42
4 7 6 11 13 23 20 13 11 13 4 7 9 17 19 28 26 25 27 32 35 26 29 29 29 30 33 34 34 33 30 29 30 30 31 30 29 30 33 35 36 39 41 45
4 7 10 14 20 28 18 12 11 7 14 14 14 19 26 23 20 23 26 27 26 27 28 28 26 27 29 29 26 25 25 25 26 27 27 28 29 31 33 35 38 41 44 47
2 5 8 14 22 22 22 19 18 12 13 12 12 16 17 16 17 22 27 21 17 22 24 25 24 24 23 22 23 23 21 23 24 25 26 27 29 32 34 37 39 43 46 48
0 4 8 11 14 17 18 18 15 15 10 13 16 10 25 21 23 19 18 18 17 21 23 21 19 18 17 17 17 17 19 21 22 24 26 28 31 34 35 39 42 44 46 48
2 1 5 6 9 10 10 10 12 8 12 11 9 13 15 18 22 22 20 19 18 17 17 17 16 16 15 13 14 15 17 20 23 25 27 30 32 35 38 40 41 43 45 49
5 2 4 5 5 6 6 5 4 5 7 9 8 9 10 13 17 16 18 14 12 12 10 8 7 7 10 13 16 18 20 21 23 25 28 32 34 36 37 38 40 44 48 50
7 4 6 7 5 4 6 5 4 4 1 2 2 3 6 8 10 10 13 14 14 11 9 8 9 11 14 15 15 16 18 21 25 27 30 32 33 34 36 39 44 46 47 47
16 13 7 6 5 6 3 5 4 4 4 3 2 4 6 7 7 9 9 10 10 8 8 8 10 12 12 13 15 18 21 23 26 28 30 31 33 35 40 42 44 45 45 47
18 19 12 7 3 2 4 7 4 4 3 2 4 5 5 5 6 6 6 6 6 7 7 9 11 13 14 14 15 18 21 25 27 29 30 32 35 38 40 42 42 44 47 49
21 18 14 10 5 4 4 1 0 0 2 2 2 3 5 5 5 6 5 6 7 9 9 8 9 10 12 14 18 22 25 26 28 29 32 35 36 39 40 40 44 46 48 53

GFSCGP_500_spd_036.txt.gz
Wind_Speed
27 28 27 27 26 26 25 27 30 31 32 34 36 40 39 38 37 37 38 39 45 49 50 48 44 39 39 40 42 41 42 42 43 40 37 35 34 37 36 37 35 36 37 37
25 25 25 24 24 26 27 29 32 36 39 43 43 43 45 47 46 45 44 44 45 48 51 53 50 44 40 40 43 41 39 43 45 41 38 36 35 38 38 35 34 34 36 37
24 24 24 26 27 28 30 33 37 41 45 48 52 51 54 56 54 50 48 46 47 50 50 51 53 50 42 41 42 41 40 41 47 44 40 38 38 36 36 36 34 34 37 39
25 26 27 28 29 32 35 38 43 47 51 53 54 63 57 56 55 53 51 49 49 50 53 51 52 53 44 41 44 42 37 39 45 44 41 38 38 37 37 36 36 36 36 38
27 26 29 31 33 36 39 43 45 49 52 56 57 63 57 57 54 51 51 52 50 53 52 52 51 54 48 44 44 44 37 37 44 43 42 40 37 36 37 37 34 35 38 38
27 28 30 33 35 38 41 43 45 49 52 57 55 61 55 56 57 57 54 52 51 53 53 53 52 53 50 48 46 44 37 40 44 43 43 40 37 37 38 34 33 37 38 38
29 29 30 31 34 37 39 42 46 47 50 54 47 50 57 51 60 61 63 58 56 53 53 52 53 52 50 47 45 41 39 40 41 41 41 40 39 38 37 35 35 36 38 39
28 26 27 29 34 36 36 38 37 42 42 43 50 39 34 32 44 40 64 65 58 53 52 51 54 53 51 48 47 40 40 40 40 39 39 39 39 38 36 37 37 38 38 40
25 23 25 29 30 32 33 34 36 40 45 46 47 43 39 34 38 43 36 44 50 52 50 50 51 55 52 49 46 40 42 42 41 40 38 39 39 36 36 37 37 37 37 38
22 24 24 22 24 28 32 32 36 39 44 49 50 48 46 40 39 46 34 26 33 50 49 48 48 51 52 49 45 41 42 43 43 42 40 41 39 36 36 37 37 38 37 38
23 24 18 18 26 30 30 31 36 41 43 47 55 58 53 42 33 33 33 32 29 41 46 47 44 45 51 47 44 41 42 43 43 41 40 40 38 36 35 36 38 38 39 39
23 23 14 21 23 27 30 33 37 43 44 49 52 49 41 34 26 23 23 31 34 37 46 46 41 44 44 43 41 41 42 43 44 42 41 41 38 36 36 38 38 39 40 41
21 14 15 16 21 28 30 26 36 43 44 48 47 34 34 34 23 25 25 34 35 41 48 47 42 41 40 39 38 41 44 43 44 42 40 40 38 37 36 38 40 40 41 40
14 12 13 16 17 21 25 28 34 39 44 37 27 24 16 13 24 28 26 32 35 40 48 47 45 40 40 37 38 39 43 43 43 41 41 40 39 37 36 37 39 40 41 39
9 10 10 11 11 14 19 24 28 31 28 29 17 25 14 21 18 17 20 27 36 36 45 44 43 39 38 35 36 41 43 42 41 41 40 38 38 36 36 36 38 41 39 39
8 5 5 9 11 12 11 17 18 23 27 21 18 14 10 5 1 7 11 18 22 32 37 39 38 34 32 34 38 40 40 39 39 40 39 38 35 35 33 37 38 37 38 40
5 2 2 7 6 5 12 14 15 21 14 14 13 11 6 1 5 10 12 18 24 31 34 33 36 33 31 32 35 35 36 36 36 35 35 33 32 33 35 33 35 37 40 42
4 0 4 6 9 8 15 14 18 14 10 9 6 9 13 16 13 13 14 20 25 28 27 29 32 31 29 30 32 32 30 30 29 29 28 30 30 30 31 33 36 38 40 42
6 5 4 5 8 9 13 13 14 15 11 5 2 3 5 9 12 14 14 16 23 24 25 23 22 22 20 20 23 25 26 25 25 25 26 28 29 29 31 33 35 38 40 43
7 5 4 4 6 8 7 7 11 7 8 9 4 3 9 10 14 14 10 6 29 24 24 22 19 19 21 21 22 23 25 26 27 25 24 24 26 28 30 32 35 39 43 46
8 4 3 4 5 7 7 7 10 10 11 7 9 8 11 14 10 11 9 8 23 29 26 23 23 24 24 24 24 23 21 20 20 20 21 22 25 28 31 35 39 41 44 45
7 3 2 2 2 4 5 7 9 9 8 10 8 14 12 10 12 14 13 12 12 15 14 12 13 14 14 15 13 9 9 12 15 18 21 24 28 31 34 37 39 40 42 46
8 6 2 4 3 3 2 3 4 7 9 7 4 6 9 10 11 13 12 12 8 13 10 8 7 6 4 2 4 8 12 15 18 21 24 27 29 32 34 35 37 41 44 47
12 9 6 3 2 3 3 2 1 3 5 5 5 4 3 2 4 6 8 8 5 2 2 1 2 3 5 8 11 13 15 18 19 21 24 27 29 30 32 36 41 43 46 48
16 15 14 9 5 2 3 3 3 2 3 4 4 4 3 3 3 2 1 1 2 3 3 4 4 7 8 10 12 12 13 16 20 23 25 27 29 32 36 39 42 45 45 46
16 16 14 11 9 7 8 5 3 1 1 3 2 0 1 0 1 3 3 2 1 2 4 4 4 5 6 8 11 15 18 21 23 24 26 28 32 34 38 41 42 42 43 46

GFSCGP_500_spd_039.txt.gz
Wind_Speed
32 33 31 34 36 37 37 36 35 34 34 34 35 35 35 35 34 34 35 37 38 39 40 42 41 44 47 45 42 42 43 43 44 43 45 46 44 39 35 38 39 38 36 38
27 26 29 28 28 29 30 30 31 31 33 35 35 34 38 38 39 41 42 42 42 43 45 46 47 46 46 48 45 43 44 45 45 44 46 49 48 40 39 39 38 38 38 36
25 23 22 22 23 25 26 28 30 33 35 37 41 39 43 44 45 45 48 50 51 49 48 49 51 50 49 48 50 44 45 45 45 45 46 50 47 41 42 39 38 39 40 39
22 20 21 22 22 25 27 30 32 36 40 42 43 48 46 47 51 54 57 55 56 57 56 53 53 53 54 51 51 50 47 47 47 45 45 46 46 46 42 41 41 40 41 41
23 21 21 22 25 27 30 32 36 40 44 47 47 55 47 54 57 58 61 62 61 61 60 61 57 56 55 54 52 54 49 50 50 42 41 45 46 43 42 41 42 42 42 40
23 22 23 25 27 29 32 36 39 43 47 51 52 55 51 53 53 56 61 64 64 62 60 61 59 56 57 56 54 52 52 49 51 42 40 45 44 39 40 42 43 42 40 41
24 23 25 27 29 32 35 35 39 43 46 48 50 55 50 46 42 48 44 49 56 64 64 62 61 56 57 56 54 52 53 49 48 44 42 44 43 41 41 42 43 40 39 40
25 27 27 26 30 32 32 35 35 43 46 49 53 55 45 34 37 44 46 45 49 47 49 57 62 60 55 55 53 53 53 50 48 44 42 44 42 42 41 42 41 40 40 41
27 28 27 27 27 30 31 34 37 42 44 49 50 45 45 47 47 52 48 52 53 52 53 43 53 61 54 53 52 52 51 49 46 45 44 41 43 41 41 42 40 39 38 38
26 27 26 24 27 29 33 32 34 35 42 46 47 51 53 54 55 55 49 47 51 56 51 51 39 58 53 51 52 52 51 48 45 45 42 42 44 42 40 40 39 39 39 39
25 24 21 23 27 29 30 31 31 37 45 48 52 51 52 57 53 50 48 44 42 40 42 47 44 55 50 51 51 52 49 46 44 44 43 44 44 43 40 40 39 40 39 39
22 21 19 22 24 28 30 27 34 40 39 46 51 42 44 35 33 37 35 41 37 37 39 36 45 51 48 49 47 52 48 44 43 44 46 45 44 41 39 40 39 40 40 41
21 18 16 20 24 27 22 27 28 35 42 44 44 40 38 42 42 41 35 29 36 36 35 33 49 47 45 45 43 46 44 41 42 45 46 44 42 41 40 40 39 39 40 42
18 14 17 19 22 23 16 20 24 32 36 37 33 45 32 33 36 34 31 36 32 32 32 41 45 45 40 42 39 41 38 40 43 44 45 43 42 40 40 38 38 39 41 41
14 14 17 19 18 18 19 23 24 25 28 32 30 33 37 32 26 19 24 26 32 26 33 35 40 44 36 39 35 38 37 38 41 43 42 42 41 39 37 36 38 40 40 42
14 17 14 15 14 16 16 21 21 18 19 23 21 24 29 27 24 14 10 16 22 22 28 23 40 41 33 33 33 35 36 36 37 39 41 39 38 36 34 35 33 42 39 48
16 12 10 12 12 9 12 10 11 17 17 18 22 21 24 28 20 19 8 5 5 11 16 23 36 34 29 32 30 30 30 31 34 38 35 33 32 34 35 39 38 39 46 39
14 11 9 6 5 6 7 11 14 18 20 16 20 25 25 26 20 18 6 12 15 19 21 29 26 27 27 29 29 29 28 29 30 29 28 29 28 35 37 37 42 39 38 39
11 11 8 4 3 4 6 9 15 18 19 19 18 20 17 18 18 18 18 20 25 27 25 25 27 26 24 23 22 22 21 20 20 22 24 25 30 32 36 38 38 36 37 38
12 12 6 5 4 4 6 8 12 16 13 16 17 14 14 13 16 14 8 21 19 20 21 20 22 17 15 13 12 13 14 14 18 26 25 33 35 37 36 34 35 33 34 37
13 10 6 4 3 5 6 9 9 12 13 17 17 14 6 15 12 12 23 20 22 19 17 17 15 15 15 15 23 19 25 27 32 35 34 32 30 29 28 27 29 33 37 40
14 9 3 2 3 6 7 9 10 11 12 13 16 7 10 12 19 18 17 16 18 18 18 18 19 20 21 23 26 29 29 27 26 22 20 21 21 22 25 29 32 35 38 40
14 8 3 2 3 5 8 9 10 10 11 11 10 9 7 9 3 5 13 14 10 8 11 9 8 10 10 11 10 9 10 11 14 14 15 18 22 25 28 31 33 35 38 42
15 11 6 0 4 7 8 9 7 8 9 9 9 8 7 8 8 4 3 5 7 9 8 7 8 6 6 6 7 7 8 10 12 15 17 21 24 27 29 31 34 38 41 43
18 13 10 10 10 10 9 7 3 4 7 8 7 6 6 5 5 5 5 5 4 6 5 4 3 2 2 2 4 6 8 11 14 18 20 23 25 27 30 33 36 39 40 40
21 15 11 12 13 12 11 9 8 8 6 6 6 4 3 2 3 3 3 3 3 3 2 2 2 2 3 4 7 9 12 16 18 21 23 25 27 29 32 35 37 37 37 39

GFSCGP_500_spd_042.txt.gz
Wind_Speed
36 35 35 32 36 36 38 39 38 39 41 41 42 42 41 40 39 35 36 38 37 36 36 35 33 33 33 34 37 42 46 43 40 40 40 40 40 40 37 39 38 33 39 36
30 28 30 31 33 32 33 32 33 34 37 42 39 41 41 40 39 41 39 40 40 39 39 38 39 39 40 39 40 41 43 49 46 44 42 43 44 39 39 38 39 37 40 37
28 28 28 28 28 26 28 29 29 31 32 33 38 40 37 38 37 36 38 40 42 44 46 47 47 47 47 46 45 45 45 47 52 46 48 45 43 39 40 40 41 40 39 39
26 24 24 23 22 23 24 24 24 26 28 30 32 39 34 36 39 41 44 47 51 53 53 53 54 55 55 55 52 50 49 49 52 54 49 47 44 41 41 42 42 40 41 42
21 22 21 20 21 21 21 20 23 26 29 32 33 39 37 41 43 48 52 56 58 59 60 61 62 63 64 62 60 55 53 52 51 56 50 48 47 40 41 43 42 41 43 44
21 19 18 19 19 19 20 22 25 28 32 36 38 43 38 45 49 53 56 59 59 60 61 62 61 61 59 60 62 60 57 54 52 53 52 50 48 44 41 44 42 41 43 44
21 18 19 19 19 20 22 24 29 33 36 37 44 47 44 46 49 50 52 51 52 56 57 54 48 48 54 59 55 59 59 57 53 51 51 50 50 46 43 41 44 42 42 42
21 20 19 19 20 21 24 27 28 35 39 41 44 46 46 48 50 47 47 46 49 50 51 49 49 43 37 37 54 55 57 59 52 49 50 50 47 48 43 40 44 42 42 41
21 19 19 19 21 24 24 27 31 35 37 43 45 45 45 42 42 45 49 52 55 53 52 57 57 53 47 40 37 49 55 56 51 51 51 51 48 46 44 42 43 43 42 41
20 20 21 21 22 25 28 28 31 33 39 42 43 38 43 46 44 42 45 47 50 51 54 55 55 51 51 51 44 45 51 56 51 52 51 50 46 44 44 43 44 41 43 41
22 22 21 20 23 25 26 26 29 35 33 35 39 44 42 37 38 43 45 48 49 52 50 47 46 42 48 52 46 40 50 55 51 52 50 45 44 44 45 44 42 41 40 41
23 23 18 21 23 24 24 26 29 30 30 37 37 36 29 37 41 44 46 48 47 49 49 43 41 37 38 39 42 43 49 51 50 47 42 43 44 44 44 42 40 40 40 40
20 17 18 21 22 22 23 24 26 32 31 28 32 30 32 33 40 45 46 40 41 44 37 42 39 37 34 35 36 43 47 47 44 40 39 41 42 41 40 39 40 40 39 37
18 17 19 22 22 18 17 22 25 31 29 33 26 34 27 38 45 52 41 36 37 38 40 39 34 33 37 36 36 40 41 38 40 38 38 38 39 38 40 40 39 39 36 36
17 17 19 21 19 18 18 20 23 24 28 32 27 34 35 41 47 47 41 23 26 29 30 24 22 30 33 33 34 33 38 36 38 38 36 36 37 40 38 36 36 34 34 35
14 16 16 19 16 16 17 20 18 20 20 24 28 32 37 43 41 35 35 20 21 13 11 15 20 18 20 24 30 27 31 33 36 35 33 34 36 35 32 33 33 34 34 34
14 16 14 17 14 14 11 12 12 15 20 23 27 29 27 32 37 36 21 18 7 1 7 7 8 9 20 23 25 27 27 28 29 28 30 30 29 29 31 32 32 26 31 41
13 13 14 14 12 10 7 7 10 15 21 21 24 25 24 31 33 21 21 9 9 13 11 10 9 18 20 24 23 22 22 23 25 25 24 24 27 28 28 25 34 30 37 42
13 14 14 10 9 8 6 9 10 14 16 21 25 23 18 27 26 12 14 16 25 23 20 19 22 18 21 21 18 17 17 17 19 19 20 23 22 22 23 25 34 36 41 43
14 14 11 10 8 8 8 8 10 11 15 19 22 19 22 25 22 12 19 20 15 19 22 24 19 18 18 18 16 14 12 13 13 13 16 18 20 35 41 31 34 43 41 39
15 12 9 8 6 7 9 7 8 11 13 15 19 15 16 20 20 11 20 15 16 19 18 20 17 12 11 11 13 12 15 15 14 17 32 32 37 29 34 32 34 33 32 34
15 10 9 7 6 7 6 7 9 12 13 13 15 12 10 13 17 12 13 14 18 11 14 17 17 7 9 24 23 17 26 22 21 17 20 28 29 33 30 30 29 30 33 35
16 12 10 6 4 3 8 9 9 11 12 11 11 12 11 9 12 12 12 9 5 5 4 7 10 8 6 9 12 13 15 21 25 24 19 21 25 25 25 27 29 31 33 35
17 14 12 6 1 5 9 9 7 7 10 11 12 9 8 6 6 11 9 6 8 10 11 10 8 6 6 8 8 7 8 10 13 15 16 18 21 23 25 28 29 31 34 37
18 17 16 11 8 10 10 8 7 6 9 12 10 8 6 3 2 5 6 6 5 7 8 8 7 6 4 4 4 5 7 9 11 14 17 20 22 24 26 28 30 33 35 34
21 20 16 16 11 14 13 10 10 9 9 9 10 7 8 6 5 4 4 4 4 5 5 5 4 3 3 2 3 5 8 11 14 16 19 21 23 24 26 29 31 31 31 33

GFSCGP_500_spd_045.txt.gz
Wind_Speed
37 36 34 29 33 37 41 43 42 42 43 44 42 41 39 40 42 39 39 38 38 37 36 35 33 34 34 35 36 34 35 35 34 38 38 43 41 40 39 35 31 31 30 39
35 33 27 30 34 36 39 38 37 38 42 44 41 40 40 41 41 42 41 41 39 40 40 40 40 40 39 38 39 38 37 36 36 36 40 45 46 44 43 38 35 34 31 38
28 26 29 31 31 26 31 34 33 34 35 36 38 38 35 38 39 41 42 42 42 43 44 44 45 44 43 43 43 43 43 43 41 40 41 43 46 47 46 41 37 38 37 36
27 26 27 26 25 25 27 27 26 25 26 29 33 38 30 34 37 39 39 41 40 41 42 44 45 47 48 48 49 50 49 49 49 47 44 46 47 50 49 45 43 40 38 37
22 22 23 22 24 24 23 21 19 23 24 25 25 33 29 30 31 34 37 39 43 47 49 52 54 55 56 57 57 55 55 55 54 53 49 47 49 51 52 47 45 40 40 41
23 19 20 20 20 19 17 17 19 21 22 24 24 29 32 30 34 38 43 47 50 54 56 57 58 60 62 63 63 65 65 61 59 57 55 51 49 46 51 51 47 44 43 43
20 21 21 19 18 17 16 17 19 22 23 24 27 29 29 35 37 41 46 50 52 54 55 56 57 59 58 59 62 64 64 61 61 61 60 56 50 45 47 54 50 47 45 44
21 22 20 18 17 17 16 17 20 23 24 26 30 31 31 37 41 41 43 45 47 47 48 49 50 50 51 47 44 41 41 47 58 59 58 54 50 48 48 55 52 48 47 44
22 21 19 18 18 17 15 19 22 24 27 29 30 31 34 36 35 38 41 46 47 49 49 51 51 52 54 55 53 50 46 44 42 51 58 55 46 52 51 51 49 51 48 44
20 19 19 18 17 18 20 20 22 23 27 29 31 32 32 28 29 34 38 39 40 42 48 51 47 46 48 44 52 53 51 49 44 40 50 54 48 52 52 49 48 48 48 44
20 19 17 18 20 20 19 18 21 23 26 31 33 27 31 29 32 36 36 40 39 45 55 57 51 46 45 45 46 46 52 51 49 41 41 52 49 49 48 46 46 47 45 42
20 19 18 19 17 17 16 18 21 25 27 21 29 26 26 30 34 37 39 44 44 49 49 52 51 45 41 44 46 44 49 53 49 44 41 47 43 45 45 46 47 45 42 40
18 18 18 16 15 15 16 19 22 22 24 18 29 29 29 32 34 37 45 50 52 51 51 47 43 38 36 39 43 43 41 50 47 49 43 45 43 43 44 46 45 41 39 38
18 16 14 14 14 15 16 19 20 21 21 23 19 23 22 31 35 40 47 43 42 43 30 33 32 32 32 33 38 38 31 33 40 36 38 40 39 41 41 41 39 36 35 35
15 13 13 16 17 14 15 15 17 18 19 20 16 24 31 34 32 41 44 42 37 25 26 20 17 18 19 21 23 23 21 28 26 32 33 35 37 37 35 33 32 32 32 34
14 14 16 17 16 13 13 12 15 13 14 18 20 21 26 26 32 27 34 38 35 26 12 9 4 2 4 6 6 9 14 23 26 28 32 34 32 28 28 29 30 27 32 33
14 15 14 15 11 11 10 9 8 11 15 16 18 21 20 23 24 19 21 24 15 12 7 4 4 6 9 11 11 15 20 22 25 29 29 27 24 24 23 19 29 28 24 33
14 14 12 11 9 9 7 6 7 10 10 14 19 17 19 19 16 13 13 15 15 12 9 7 7 7 7 12 16 18 21 22 23 23 23 23 22 20 25 22 21 23 36 37
13 12 10 10 10 6 5 7 9 10 12 13 15 13 18 12 17 15 14 14 13 12 12 11 10 11 15 18 22 17 15 17 19 18 16 18 18 16 18 25 22 32 33 35
13 10 8 9 9 6 7 6 8 8 10 12 10 12 15 20 13 13 15 13 13 12 14 16 17 20 21 16 14 13 13 13 13 15 15 12 12 20 23 29 31 29 38 37
13 10 7 9 7 7 6 6 5 5 6 9 11 9 14 17 17 14 17 15 8 7 8 13 14 14 13 14 14 16 15 15 13 20 20 19 18 20 25 27 32 30 31 34
14 11 9 8 8 8 4 5 6 5 5 6 10 12 10 11 11 14 16 9 13 9 3 8 9 7 10 9 9 11 7 15 16 12 13 14 18 17 18 22 26 27 27 30
14 12 12 8 6 4 2 4 5 4 7 8 8 9 7 10 8 11 12 14 6 5 6 8 11 13 10 12 14 8 6 3 10 9 6 10 12 15 20 23 25 27 30 34
16 15 13 8 5 2 4 5 4 2 5 7 9 8 8 8 14 8 6 5 7 8 9 6 2 1 2 3 4 5 2 3 4 6 9 11 14 18 21 25 29 31 33 34
18 17 15 12 8 8 6 8 7 5 6 7 8 8 8 9 9 7 5 3 2 3 2 3 3 4 3 3 2 3 3 4 7 9 13 16 20 23 25 27 28 29 32 34
19 21 17 14 12 11 12 11 10 7 7 10 10 11 9 8 8 6 3 3 1 1 2 1 1 4 4 3 1 3 6 9 12 15 17 19 20 21 24 26 28 30 30 32

GFSCGP_500_spd_048.txt.gz
Wind_Speed
34 34 41 34 38 42 46 47 48 45 44 44 42 43 38 36 42 44 42 42 41 39 39 38 37 35 37 39 40 38 40 38 36 36 35 35 36 38 36 37 35 33 31 33
32 33 33 35 35 33 40 44 41 40 42 44 42 40 40 39 42 45 43 42 42 41 40 40 40 40 41 41 42 43 42 41 39 37 36 36 39 41 39 38 37 36 33 35
31 29 30 34 37 35 35 34 32 35 38 40 40 40 38 38 40 42 42 43 43 43 43 42 43 44 45 45 44 43 45 45 43 42 41 38 38 39 39 39 40 40 36 40
32 30 31 30 30 30 30 30 30 28 32 36 36 37 29 35 35 36 37 39 39 40 42 44 45 47 47 47 46 45 46 47 48 48 48 46 43 41 41 45 47 47 43 45
30 29 29 29 27 27 25 23 22 24 26 29 29 37 24 27 28 29 31 34 38 40 42 44 45 46 47 48 49 49 50 50 52 53 53 53 51 49 46 48 50 49 45 46
30 26 26 27 26 24 21 20 22 21 21 24 23 29 28 22 27 30 34 36 39 41 44 45 46 48 50 53 55 57 59 59 60 60 59 59 57 55 54 48 51 51 49 49
24 23 23 23 23 21 18 19 19 19 19 18 19 24 23 24 28 32 35 39 42 45 49 51 53 55 57 59 61 62 64 65 65 65 65 64 62 62 61 57 50 52 53 51
23 24 24 23 21 20 19 18 18 17 18 20 21 23 24 29 29 31 35 39 44 48 50 52 55 57 57 54 53 54 57 62 64 64 64 65 65 65 63 59 50 53 54 53
24 23 21 20 18 17 16 17 16 18 20 21 22 23 24 27 31 34 37 37 40 44 45 46 47 49 51 51 52 53 57 58 58 58 55 57 59 60 59 57 52 53 55 55
22 21 20 18 17 16 17 15 15 17 21 21 21 22 22 23 26 28 32 35 37 39 41 43 47 51 50 51 49 53 55 55 58 56 50 44 40 43 54 57 54 54 53 53
21 20 17 16 17 16 14 15 16 17 19 22 22 19 20 20 25 30 33 35 37 41 47 52 58 60 57 57 49 51 55 54 54 55 58 54 47 44 45 50 54 53 51 50
17 16 17 17 15 14 13 14 13 16 19 20 24 10 18 25 27 29 32 36 41 48 53 54 58 59 58 49 45 46 51 50 50 53 53 56 54 47 42 47 52 52 50 48
17 18 17 16 15 13 13 13 17 19 17 15 20 17 21 20 24 29 32 33 43 51 57 51 39 41 41 42 42 40 43 43 43 45 46 54 57 48 42 44 49 49 48 46
18 16 15 13 12 12 15 17 17 17 16 13 19 9 22 25 25 29 32 38 37 44 51 40 32 31 30 27 29 31 34 34 44 46 46 52 57 49 43 44 46 47 43 40
16 14 14 13 13 14 15 16 16 14 14 8 13 17 15 21 26 32 32 26 29 36 38 30 22 19 20 20 21 25 27 29 39 36 35 43 46 43 39 41 41 39 35 35
14 13 13 14 15 13 13 13 13 9 8 9 5 13 16 20 25 29 23 20 25 30 34 24 21 12 9 10 11 14 17 17 23 24 28 34 30 29 31 35 33 29 31 29
14 14 16 17 13 12 10 9 7 6 8 9 13 14 14 19 19 21 19 20 22 26 28 27 18 10 3 2 8 12 13 16 18 20 23 24 26 27 28 27 25 28 28 26
16 18 18 15 12 9 7 5 4 7 9 12 14 15 12 16 13 17 21 19 19 24 24 20 16 7 3 2 3 8 18 19 17 16 19 22 24 23 22 24 24 20 22 22
19 17 15 13 10 7 6 6 5 6 10 11 11 10 9 14 12 14 18 16 18 20 22 20 15 10 7 7 7 9 11 15 18 22 23 24 24 23 16 14 17 26 25 23
16 14 12 12 9 6 7 5 4 5 8 10 10 10 9 8 10 7 21 18 14 14 17 17 19 18 17 18 19 18 15 14 14 14 19 22 16 19 16 21 26 28 21 21
14 12 12 11 8 8 8 6 5 5 6 9 10 9 9 7 6 11 13 12 13 10 11 10 13 13 12 10 8 6 9 12 14 8 11 10 13 16 16 11 16 18 20 27
14 14 13 10 11 9 8 6 6 5 6 5 8 10 9 8 9 8 10 11 9 10 8 12 12 4 9 8 12 9 10 6 7 9 5 8 11 14 13 18 20 22 25 27
15 17 15 14 10 8 8 6 5 6 3 2 7 8 10 7 12 12 9 8 11 12 8 7 9 10 15 4 8 11 12 4 2 5 1 3 5 8 11 14 18 21 24 28
17 18 17 14 10 9 7 4 3 4 3 2 6 6 7 9 10 10 12 10 8 8 7 8 8 9 9 8 4 7 8 7 5 3 4 5 8 11 14 18 22 24 26 29
21 19 20 16 13 10 6 4 4 6 7 6 5 7 10 12 10 10 9 10 9 9 8 7 7 6 5 4 3 3 4 5 4 5 7 10 13 17 20 22 23 25 27 28
24 23 23 20 17 13 7 7 10 10 10 9 8 7 9 10 10 10 9 8 10 10 8 8 5 5 5 5 6 6 7 9 10 12 14 16 17 17 18 20 23 24 26 28

GFSCGP_500_spd_051.txt.gz
Wind_Speed
37 34 29 42 42 43 46 47 45 44 44 45 44 46 40 41 43 43 45 45 44 41 39 41 42 39 37 40 41 42 43 42 41 41 41 41 38 38 37 36 36 36 33 33
41 37 34 26 34 41 44 45 44 42 44 45 42 43 39 39 41 43 45 45 43 43 41 42 45 45 42 41 42 44 44 45 45 43 42 42 42 42 42 40 38 37 35 36
32 38 36 34 24 25 33 39 40 40 42 44 43 43 39 35 37 39 41 43 43 41 41 43 45 46 47 44 42 43 46 48 49 48 47 45 44 42 41 41 38 36 38 41
31 27 28 28 31 30 26 28 29 32 40 41 38 39 30 34 34 35 37 39 41 43 44 44 44 46 47 47 46 46 47 49 50 51 51 49 45 44 43 44 43 43 41 41
31 28 32 28 31 39 32 30 28 28 31 33 32 36 20 26 28 30 32 35 37 40 40 41 43 45 46 47 48 49 50 50 50 52 53 53 52 50 47 46 46 45 46 46
28 27 27 29 28 28 27 28 24 24 25 29 26 30 19 24 26 27 27 29 32 36 37 39 41 42 45 47 49 50 51 51 52 53 54 55 55 55 55 52 53 54 51 52
26 26 25 27 28 25 23 23 23 22 23 22 19 22 21 16 21 25 27 30 33 36 39 42 44 46 47 49 51 54 56 57 58 58 58 58 58 59 59 59 58 60 58 54
21 23 25 24 24 24 25 25 22 20 18 17 17 20 19 19 22 25 29 32 35 38 41 44 46 48 52 54 56 59 62 63 64 65 65 66 65 66 65 65 65 64 64 62
24 26 25 23 24 24 23 20 18 17 18 17 18 17 18 21 23 25 29 33 37 39 42 45 47 51 54 56 58 58 57 59 60 62 63 64 65 66 66 67 68 69 68 63
23 22 22 23 23 22 20 18 17 16 17 16 16 15 18 22 26 29 30 32 33 34 38 43 46 48 49 50 53 55 56 55 57 60 62 64 64 62 61 61 63 66 67 63
20 20 20 20 20 20 18 16 15 14 14 15 14 13 19 22 25 26 26 29 32 36 40 43 46 50 55 60 64 64 64 62 63 62 60 59 61 59 57 54 53 55 60 63
20 20 19 20 17 14 13 12 12 14 14 15 18 13 19 21 24 25 26 27 33 35 35 35 40 47 54 61 62 61 61 58 62 64 62 61 60 61 59 55 52 48 45 46
18 19 18 16 14 12 11 12 13 14 16 16 17 15 20 24 20 21 28 30 30 29 30 36 43 52 56 44 40 46 49 56 58 54 54 58 59 56 59 59 56 52 50 44
18 17 15 12 11 11 12 13 15 15 17 16 19 12 20 18 20 22 24 25 25 26 31 36 42 49 38 32 36 39 39 42 40 43 45 46 50 51 51 55 55 55 50 43
15 14 12 11 11 12 14 16 16 14 16 12 16 13 14 17 17 18 19 22 21 25 29 35 37 43 26 29 30 27 25 27 26 27 32 32 37 40 44 47 49 48 43 44
15 13 12 12 13 14 16 16 14 13 14 12 13 10 12 13 17 17 18 24 23 24 28 32 31 35 25 22 23 18 17 13 14 21 25 23 24 29 34 41 39 38 37 38
14 14 14 15 15 15 14 12 12 12 13 11 10 10 11 12 17 13 18 20 20 21 25 28 26 27 25 20 16 11 4 7 9 9 12 17 20 18 22 26 27 27 26 27
16 16 17 17 16 12 12 12 11 11 8 8 9 9 10 10 13 11 11 17 19 16 20 26 24 19 19 18 12 7 10 3 5 4 10 15 15 19 22 24 23 23 26 26
19 19 19 18 15 12 11 11 9 7 7 7 7 8 10 12 13 14 15 16 12 13 16 19 22 23 18 18 13 8 4 1 4 3 6 12 9 17 20 19 22 20 25 25
22 22 19 15 13 12 11 11 9 8 8 8 6 8 10 12 12 10 13 10 8 14 15 12 14 19 18 17 16 16 9 2 4 3 4 10 14 17 15 12 16 20 19 18
19 16 16 15 14 13 12 10 10 10 8 7 8 9 9 11 11 10 12 12 12 15 11 14 9 11 11 12 11 10 10 13 11 8 6 8 6 4 8 7 10 11 12 14
17 15 17 15 14 13 11 11 11 11 10 9 7 8 10 10 8 10 11 13 11 10 9 9 11 15 6 16 15 12 9 7 9 8 6 5 2 3 5 8 10 12 14 19
16 17 17 15 14 13 11 12 11 12 11 9 6 7 8 7 11 11 11 12 14 11 10 11 11 10 8 6 9 9 7 7 6 5 6 4 3 3 5 9 12 14 16 19
16 18 18 17 16 14 13 12 11 12 12 10 8 8 8 11 11 11 10 10 12 11 9 9 9 9 9 7 7 8 9 8 6 5 7 6 6 7 10 12 14 16 17 20
18 20 21 20 18 15 13 10 10 10 11 10 10 10 10 12 11 10 10 10 10 11 11 9 7 6 7 7 8 9 9 8 7 7 8 9 10 12 13 15 17 19 21 22
22 24 26 25 21 18 15 12 11 8 10 13 13 11 9 11 11 12 9 9 9 11 10 6 4 5 6 7 8 9 9 9 10 12 13 15 15 16 17 18 19 20 20 21

GFSCGP_500_spd_054.txt.gz
Wind_Speed
36 35 36 44 44 44 45 46 44 42 42 44 43 44 39 40 41 42 44 44 45 45 44 44 43 43 42 41 40 41 42 42 41 42 42 42 44 43 42 40 40 39 38 35
28 31 31 38 43 42 43 43 41 40 40 41 41 43 39 37 41 43 45 45 46 45 44 43 44 45 44 42 42 42 43 46 45 43 45 44 44 46 44 44 43 42 40 39
39 32 28 23 34 38 39 38 37 37 39 42 41 42 38 34 38 41 42 43 45 45 42 43 45 45 45 44 44 45 45 47 49 48 46 47 46 46 47 45 43 44 44 44
33 36 19 22 25 25 28 38 36 37 39 41 40 41 33 35 39 38 39 40 41 41 40 40 41 43 46 46 46 47 47 47 49 51 50 47 47 47 46 48 49 49 49 46
28 28 35 33 31 25 28 27 30 30 33 38 36 41 26 34 36 35 35 37 38 38 37 36 37 39 42 45 46 46 49 51 51 52 54 54 53 50 49 48 49 50 49 46
26 25 35 30 26 30 29 25 21 22 27 31 28 33 22 28 30 29 28 29 31 33 35 36 38 39 41 43 44 46 47 50 53 55 57 59 59 58 56 52 50 48 49 49
26 22 26 30 26 24 23 28 27 23 24 26 23 24 23 22 24 23 23 25 29 33 35 37 37 38 39 42 44 46 48 50 52 55 56 57 58 59 60 60 58 55 53 52
21 24 22 25 29 25 22 24 24 25 23 21 16 21 18 15 19 22 25 28 31 32 34 35 37 40 43 46 48 51 53 56 57 59 61 61 62 61 62 62 61 61 59 58
20 21 23 21 22 25 25 24 21 20 21 20 17 17 15 14 19 23 25 27 29 30 32 35 39 41 44 48 51 53 56 58 60 63 65 67 68 68 68 68 67 66 66 65
24 21 20 20 19 22 22 20 20 19 20 17 14 13 15 18 20 21 23 25 28 32 34 37 39 40 43 45 48 51 54 56 58 59 61 64 67 69 71 71 71 71 70 69
18 18 18 19 18 20 21 20 21 19 16 13 12 14 17 21 22 23 24 27 30 30 30 31 34 37 41 42 43 45 50 55 60 62 66 68 67 67 68 70 70 67 66 67
15 16 18 19 19 20 18 16 14 14 13 12 13 15 18 20 22 24 24 25 27 27 31 33 34 31 35 39 46 51 56 60 61 59 61 64 71 68 66 64 62 62 62 60
15 16 17 17 17 16 15 15 14 13 13 12 13 17 18 20 20 22 20 21 23 23 25 25 28 32 36 42 44 46 45 48 54 57 53 52 54 63 61 64 63 59 55 56
17 16 15 14 13 13 13 13 13 13 14 13 16 16 21 18 16 17 16 18 17 19 25 27 30 31 35 37 41 36 39 47 44 36 37 37 36 40 47 55 57 59 55 53
14 13 13 13 13 13 13 13 14 14 15 12 16 14 16 15 14 16 14 14 17 19 21 24 26 27 31 31 34 31 38 41 27 26 23 22 26 28 29 34 38 42 46 48
14 13 13 13 12 12 13 14 13 14 14 13 11 15 12 13 16 13 12 14 12 19 19 23 24 24 26 28 28 24 31 31 17 12 14 11 11 10 13 16 23 30 29 33
14 13 12 12 12 13 14 14 13 14 13 11 11 12 15 16 13 12 11 10 14 19 18 20 21 23 23 25 23 19 23 18 12 7 3 1 2 8 11 14 11 13 19 24
13 13 13 13 14 14 13 13 13 13 12 11 12 12 13 12 10 14 14 15 18 12 16 14 16 18 23 22 22 19 18 19 17 13 8 5 5 6 6 9 9 14 15 19
16 15 16 17 16 15 13 13 14 13 12 12 11 10 9 10 11 11 10 11 11 10 15 15 13 16 19 20 21 21 17 14 11 13 12 4 5 6 4 11 7 13 14 18
19 19 20 19 16 15 13 13 15 14 12 11 9 7 7 8 10 13 12 12 11 13 14 11 12 15 13 13 18 20 20 20 18 15 12 7 5 5 4 5 9 12 13 11
22 22 21 20 16 15 14 15 16 15 12 10 7 6 6 7 9 10 12 14 13 10 13 10 11 10 12 11 17 15 13 14 16 14 14 11 12 7 1 7 3 6 6 8
21 20 19 17 16 17 17 17 16 13 13 10 8 7 6 6 7 10 12 11 12 11 11 10 11 8 5 8 12 10 8 8 13 14 10 8 4 5 4 1 6 4 8 10
18 19 17 17 18 17 17 16 15 13 13 12 12 9 7 5 7 11 12 11 9 9 7 9 9 10 7 6 9 10 10 6 6 9 9 10 10 8 7 7 9 11 12 14
21 19 18 19 19 18 17 17 15 12 13 14 14 12 9 9 10 12 10 10 8 7 6 5 6 6 5 5 6 7 9 9 9 10 11 12 11 11 11 12 13 14 15 16
20 21 21 21 22 19 17 16 15 13 14 15 16 13 11 12 12 10 11 10 9 8 7 4 3 4 5 6 7 7 8 9 10 11 12 12 13 13 13 15 17 18 19 19
22 20 22 22 24 19 18 17 15 13 13 15 16 15 13 14 14 12 11 9 9 8 6 5 4 4 5 6 7 8 8 10 11 12 14 15 16 16 17 19 21 21 19 20

GFSCGP_500_spd_057.txt.gz
Wind_Speed
35 32 34 44 51 52 47 45 44 40 39 40 39 40 35 36 37 38 41 43 43 43 41 41 40 40 39 38 39 39 40 43 45 46 46 45 44 45 45 44 45 46 43 41
29 28 31 40 43 43 45 43 43 41 40 39 39 40 36 36 36 39 40 42 43 44 43 42 42 42 43 43 42 40 40 42 43 45 46 45 46 46 47 47 47 47 45 42
28 27 29 33 44 42 41 42 41 40 40 40 38 39 36 37 39 39 40 41 42 42 42 43 43 43 44 45 44 43 42 43 45 47 47 48 46 46 48 48 48 48 49 48
25 30 27 28 35 38 37 37 36 36 38 39 40 40 35 35 36 38 39 40 40 41 41 41 41 42 44 44 44 44 43 43 45 47 49 50 50 49 47 48 50 52 51 51
29 20 25 23 30 28 34 36 37 35 36 37 38 40 33 36 35 36 37 38 38 38 38 39 39 40 40 42 43 43 43 44 46 48 49 49 50 51 51 51 50 52 54 54
21 24 28 29 25 23 27 29 33 36 36 36 36 38 32 33 34 34 33 34 36 37 39 39 38 38 37 38 39 40 41 42 43 45 47 50 51 52 53 53 54 55 57 58
22 22 24 30 25 23 29 30 27 30 34 33 31 31 29 28 31 30 31 32 33 34 34 34 34 34 36 37 38 40 41 43 45 46 48 49 51 53 54 54 55 56 57 58
22 22 20 25 27 27 27 27 27 27 23 21 21 24 24 23 26 28 30 30 30 30 30 31 33 35 35 37 39 41 43 45 47 50 52 54 56 57 58 59 59 59 59 59
25 21 19 21 29 26 25 22 22 22 22 20 17 19 20 19 24 27 28 27 27 27 29 30 32 32 34 37 41 44 47 51 53 56 58 59 61 64 66 67 68 68 67 66
23 21 21 22 23 28 26 24 21 19 20 17 18 19 18 19 21 22 23 24 25 26 27 29 31 34 37 40 42 44 45 48 51 54 57 59 61 64 66 67 69 71 72 73
20 17 17 18 19 20 23 23 22 20 18 17 17 18 19 20 19 19 21 23 23 26 28 31 32 31 32 36 38 40 40 42 46 50 54 56 58 60 66 70 72 72 71 69
16 18 18 17 18 19 20 20 17 16 15 15 17 18 19 19 19 19 21 23 25 26 25 25 26 28 30 31 34 38 39 41 43 47 48 52 56 58 60 62 65 70 72 71
13 15 16 16 16 17 17 18 19 17 16 15 16 18 18 18 19 21 21 22 22 20 21 21 19 25 28 31 30 33 34 39 37 42 50 59 54 50 52 54 56 56 57 65
13 14 14 15 15 15 16 16 15 14 13 14 14 14 18 17 19 19 17 17 18 18 18 20 21 23 25 26 27 27 32 32 33 42 44 47 37 34 35 37 39 40 44 47
13 13 14 16 15 15 15 15 13 12 13 12 13 15 17 17 14 13 13 13 14 15 18 18 18 19 21 22 22 20 26 26 30 33 33 32 27 26 25 24 26 26 30 38
14 14 15 15 16 16 14 12 11 12 11 13 12 16 14 15 12 11 13 15 16 17 16 14 14 17 16 14 17 18 22 26 27 28 28 26 19 17 14 8 16 17 18 21
14 13 14 14 15 14 12 11 11 11 12 13 15 14 14 13 14 14 14 14 15 15 13 12 11 12 12 13 14 17 16 21 22 23 23 19 16 11 8 3 7 11 7 7
14 14 14 14 13 12 11 11 12 13 13 12 13 13 14 14 14 15 14 13 15 16 15 13 12 11 13 15 15 16 17 20 20 20 17 16 13 12 9 6 1 4 5 9
15 15 15 14 14 13 13 13 14 14 12 12 13 13 13 12 13 13 13 12 11 12 13 14 11 12 15 10 12 18 18 13 17 14 15 16 16 12 6 8 7 4 3 2
16 16 16 16 16 15 15 15 16 13 13 13 12 11 9 7 6 7 10 14 15 14 12 10 11 11 7 5 9 15 12 12 11 14 14 18 18 12 10 8 5 4 5 5
21 20 19 19 17 18 16 16 16 15 14 13 10 7 7 5 7 5 7 10 13 13 14 11 10 11 13 11 14 12 6 9 10 13 13 13 12 15 9 11 11 3 4 6
23 24 24 23 20 21 19 18 16 16 15 12 11 9 6 8 6 4 6 9 10 10 9 8 7 7 7 7 7 6 7 5 7 11 12 12 12 9 8 9 8 8 8 10
20 20 21 21 21 19 18 18 17 16 16 13 12 10 10 9 8 8 10 9 9 8 7 6 7 7 8 5 6 6 5 6 6 7 9 9 8 8 8 9 10 11 12 12
20 20 19 19 18 17 17 19 18 18 17 15 14 13 13 10 11 9 9 9 9 8 8 8 6 5 4 5 3 4 5 6 6 7 9 10 11 11 12 12 12 13 14 15
17 18 18 17 18 19 19 21 19 19 19 15 14 15 14 13 12 10 11 10 9 8 8 7 6 5 4 4 4 5 5 6 7 9 12 13 14 13 12 13 17 19 19 17
18 15 15 18 20 21 22 21 21 20 18 15 14 15 17 16 15 13 13 10 11 11 10 11 8 8 6 4 3 5 6 8 10 11 13 15 15 15 17 19 21 21 19 19

GFSCGP_500_spd_060.txt.gz
Wind_Speed
35 40 38 52 50 51 49 48 45 43 41 42 40 39 38 36 36 35 37 40 43 42 41 41 38 39 39 38 39 39 40 39 41 43 43 43 44 45 46 46 48 48 47 47
32 34 32 40 52 50 48 49 48 43 41 41 40 41 39 38 36 34 34 36 38 39 40 40 40 39 39 39 40 40 40 41 40 43 44 45 47 46 46 47 48 48 48 49
30 32 31 33 47 52 48 45 45 43 42 40 42 42 40 39 36 35 35 35 36 37 39 40 40 40 40 40 41 41 41 42 42 42 44 46 47 48 48 48 48 49 51 51
29 29 28 30 41 50 47 46 45 43 42 42 40 41 39 37 37 37 36 36 37 37 39 40 41 42 42 42 43 43 44 44 44 44 44 45 47 49 49 49 51 53 53 54
22 28 25 27 33 40 39 39 40 41 40 40 40 40 39 37 35 34 36 36 36 37 39 40 42 42 42 42 42 42 43 43 44 44 44 46 48 50 53 53 52 51 53 56
23 21 31 29 23 32 33 36 36 36 38 40 38 37 38 37 35 35 34 34 36 37 38 40 41 41 40 40 40 40 41 41 42 43 44 45 46 48 50 52 54 55 52 53
15 23 31 32 22 26 29 35 33 34 38 40 37 37 38 35 34 34 34 34 36 37 38 38 38 38 38 38 38 37 38 39 40 42 43 44 46 48 49 51 53 55 56 56
18 13 22 41 27 30 31 34 39 40 39 38 38 38 38 35 33 31 32 34 35 35 35 34 35 34 34 35 36 37 39 40 41 42 43 45 48 51 54 57 59 60 61 62
18 16 15 22 25 26 30 28 31 30 32 28 28 30 31 29 31 32 31 31 32 32 31 32 32 32 34 35 35 36 38 40 41 44 46 48 50 53 56 59 62 64 66 67
16 17 14 19 24 25 23 24 23 24 24 23 23 23 24 24 26 28 30 28 27 28 29 30 30 30 31 32 33 36 38 39 41 42 45 48 49 52 55 58 61 64 66 68
15 19 18 18 20 25 27 26 25 22 20 21 20 22 21 22 23 25 25 26 26 26 27 28 28 29 31 31 30 32 35 37 39 41 44 47 48 49 50 55 60 62 66 69
16 16 15 18 19 21 26 26 26 26 22 20 21 22 23 24 24 22 22 25 25 27 28 29 30 28 25 24 24 27 31 34 36 38 40 40 36 43 49 52 60 65 65 69
18 20 18 17 18 21 19 22 23 24 25 24 24 24 23 23 19 21 24 24 25 26 27 28 24 23 22 23 26 29 29 30 32 33 31 31 36 42 46 44 49 48 49 50
15 15 16 16 17 19 18 20 22 22 20 20 22 21 22 19 20 22 22 23 23 23 24 22 21 22 24 25 26 25 25 24 23 28 34 35 39 40 43 38 45 44 42 39
14 13 14 15 16 16 16 17 18 19 20 19 20 19 17 19 21 20 19 19 19 20 21 19 19 20 22 22 20 19 15 14 20 24 27 31 35 34 34 35 35 34 30 27
14 15 16 16 15 16 17 18 19 18 17 18 17 18 17 18 16 16 15 14 15 15 16 17 18 20 21 16 16 17 14 10 14 18 20 21 24 25 25 26 21 22 24 10
16 15 16 18 18 18 17 15 15 16 15 15 17 17 16 16 14 14 14 14 15 16 18 17 17 16 17 15 12 14 15 13 11 16 17 15 15 18 19 14 14 17 16 10
16 16 16 17 17 17 16 15 15 14 14 15 16 15 15 14 13 14 15 17 18 19 18 20 20 19 18 19 14 15 17 15 18 16 14 15 12 15 13 11 15 14 12 11
17 17 17 17 17 16 15 14 13 13 14 15 14 14 14 13 14 16 18 19 18 17 15 16 19 19 17 15 17 14 15 14 13 11 11 14 11 13 14 15 14 17 11 8
17 17 17 17 17 16 15 14 14 14 14 14 14 13 13 14 16 15 15 15 16 20 21 19 16 17 15 12 14 14 15 12 7 8 9 11 12 9 9 15 15 13 13 13
19 18 18 18 18 17 16 16 15 15 13 15 14 14 14 15 14 12 11 11 10 12 15 15 17 16 17 19 20 18 14 12 10 12 10 9 10 10 11 13 13 11 12 11
24 25 23 23 21 21 19 18 17 17 16 17 15 15 15 14 12 11 10 8 9 10 11 14 14 12 12 10 12 13 11 11 11 8 7 8 10 12 14 14 14 13 13 13
22 22 23 25 24 24 21 21 20 18 17 17 16 16 16 13 10 12 12 12 11 11 11 11 12 12 13 11 10 11 11 8 6 8 7 10 12 14 14 14 13 13 14 14
20 22 21 21 22 22 22 22 22 21 20 19 18 18 17 15 13 14 13 11 11 13 12 11 12 13 12 11 9 9 9 9 8 8 10 12 14 15 15 14 14 16 16 16
16 18 20 20 21 21 21 21 22 23 21 19 19 18 18 17 16 16 14 11 10 13 11 11 11 12 12 11 11 11 9 8 8 10 12 14 15 16 16 16 18 20 20 20
20 18 18 18 23 21 22 22 23 23 22 21 21 20 19 18 19 18 18 15 13 13 14 14 13 14 14 13 11 10 9 9 10 12 14 15 15 16 17 18 20 21 21 21

GFSCGP_500_spd_063.txt.gz
Wind_Speed
48 44 39 44 42 46 53 50 50 46 43 41 40 48 48 44 46 48 48 48 47 45 45 44 43 43 42 41 41 41 40 39 39 41 44 39 43 45 45 45 45 45 44 44
40 39 36 36 45 49 52 51 49 47 42 41 41 39 47 40 40 40 39 39 42 43 44 45 43 42 41 40 42 42 41 41 40 42 43 43 43 45 46 47 47 47 47 48
36 30 33 34 42 48 51 50 49 45 42 42 41 40 41 40 38 37 35 35 35 36 37 37 38 38 39 39 39 40 40 41 41 43 43 45 41 44 45 46 48 49 52 52
32 30 34 31 35 48 50 51 51 45 43 43 43 39 40 39 38 37 36 34 33 34 34 35 35 36 36 36 37 38 39 40 41 43 44 45 46 44 46 47 49 51 53 54
25 28 31 32 33 43 50 47 47 45 43 45 41 37 45 40 38 35 35 35 36 36 35 35 36 36 36 36 36 37 39 40 41 42 43 45 45 46 46 48 50 51 52 54
23 28 33 27 31 38 48 45 42 43 43 44 43 43 47 41 39 39 36 35 36 37 37 36 36 37 38 38 39 40 40 40 40 41 42 43 44 45 45 47 48 50 53 54
15 24 28 27 25 28 38 41 38 39 41 42 42 41 45 41 41 39 37 35 35 35 36 37 37 37 38 39 39 40 40 40 40 40 40 40 41 44 46 47 49 51 52 54
18 22 28 28 22 22 31 39 35 36 39 44 45 43 46 37 37 36 34 34 35 36 36 36 36 36 36 37 38 38 38 38 37 38 39 41 42 43 45 48 50 52 54 56
17 18 31 33 27 19 26 30 35 34 35 36 38 42 44 44 40 36 35 33 31 33 35 36 36 36 37 37 36 36 36 36 37 38 40 41 42 43 45 47 49 52 54 56
12 10 15 22 30 24 33 29 28 34 33 32 34 37 40 38 39 37 34 32 32 33 33 35 36 36 36 35 35 34 34 35 36 37 37 37 40 42 44 47 50 51 51 52
12 11 12 15 28 25 27 28 26 26 29 27 28 32 30 29 30 31 32 32 33 34 34 34 34 34 33 31 31 32 33 32 31 32 34 37 40 41 45 48 46 45 50 55
12 15 16 14 17 23 24 24 24 23 24 25 25 29 26 25 26 27 28 28 28 29 29 29 29 29 29 31 31 29 28 27 28 33 36 34 35 37 42 41 48 50 53 53
13 15 16 17 18 19 20 24 27 27 26 24 22 24 25 25 25 23 24 25 26 26 27 27 28 29 30 28 27 27 28 30 32 32 29 26 28 31 35 39 42 43 49 49
13 16 18 19 18 19 21 23 23 26 27 24 25 24 27 25 21 22 25 24 26 26 28 28 28 26 25 24 24 27 29 28 27 25 20 20 18 19 23 27 34 39 41 41
14 14 15 18 19 19 20 19 19 19 23 27 28 28 27 23 21 24 25 25 25 26 25 24 22 22 22 24 25 26 27 23 20 17 16 17 16 16 19 19 25 31 34 37
17 18 17 17 18 16 18 19 19 23 23 24 27 25 22 22 23 23 23 23 22 21 22 22 23 23 23 24 25 24 25 23 20 19 18 19 18 18 20 20 22 25 29 30
16 16 16 16 17 16 16 18 20 20 23 24 21 24 20 20 20 20 20 21 20 20 19 20 21 20 19 20 20 22 22 22 18 20 22 22 19 20 20 19 20 21 26 24
17 17 18 17 18 18 17 17 19 20 20 18 20 19 18 18 18 18 18 19 20 19 19 18 19 23 25 24 23 23 24 22 20 20 22 18 18 17 18 18 15 18 21 24
18 19 19 18 19 17 20 19 17 17 17 18 19 18 19 18 17 17 18 18 19 19 18 19 20 20 21 24 23 21 24 22 20 20 18 17 16 17 18 18 20 19 19 21
18 18 18 19 18 19 16 17 17 17 17 18 18 17 17 16 17 16 16 16 17 18 21 23 24 23 20 23 22 20 18 20 22 19 16 16 18 17 17 16 17 20 21 22
18 19 18 19 19 18 17 17 18 18 15 16 16 16 17 17 17 17 16 15 14 14 14 15 17 19 21 21 22 23 23 23 20 20 19 19 14 13 16 19 19 21 22 22
24 22 20 21 21 22 19 19 18 16 15 18 18 19 19 17 17 16 16 15 14 12 13 14 14 16 18 18 17 19 20 18 16 18 18 16 15 16 17 19 20 19 20 20
24 27 27 27 26 24 23 21 20 19 19 19 21 20 20 18 17 17 17 15 15 15 15 14 14 14 16 18 17 19 19 17 15 15 15 15 16 17 18 19 19 19 19 21
24 25 25 26 27 29 29 27 24 23 23 21 21 21 20 20 20 19 17 17 17 16 16 16 16 15 15 15 15 16 16 16 15 15 15 14 16 17 18 19 20 20 20 21
17 20 23 25 26 26 27 28 25 25 25 23 23 23 22 21 21 21 18 17 18 18 17 15 16 16 15 15 15 15 16 16 16 14 14 15 16 18 19 20 20 20 22 21
13 16 19 21 25 26 25 24 25 26 24 25 25 24 23 22 22 23 21 19 19 20 18 16 17 18 18 18 18 17 16 15 15 16 16 16 18 20 21 20 21 22 23 22

GFSCGP_500_spd_066.txt.gz
Wind_Speed
42 40 42 40 38 38 38 43 45 47 48 48 46 47 45 41 38 39 45 43 42 40 40 40 38 37 38 40 40 39 39 39 39 40 40 38 37 41 43 42 43 42 41 42
40 45 44 39 36 36 41 41 46 45 48 44 46 45 49 47 40 40 41 41 42 42 43 40 39 42 43 42 42 41 41 42 41 41 42 44 40 37 42 44 43 44 45 45
40 33 37 37 36 33 38 42 45 47 46 41 39 40 42 51 45 39 39 40 41 40 41 41 41 42 43 43 44 44 43 42 42 43 42 43 46 40 38 43 46 46 48 48
46 36 34 34 37 33 38 43 40 46 42 41 39 39 35 34 42 41 38 37 37 37 37 36 37 39 40 40 38 38 38 40 41 42 42 43 43 45 41 42 46 47 49 50
34 41 36 35 35 29 37 41 43 41 43 44 40 39 36 36 33 38 37 36 33 34 33 33 32 31 32 33 33 34 35 36 39 39 40 41 42 43 44 44 44 45 46 47
30 32 31 28 30 36 31 36 39 38 43 44 40 39 38 37 33 32 33 33 32 33 32 31 33 34 35 35 35 34 34 34 36 37 39 39 40 42 42 44 44 44 45 46
24 26 28 26 19 26 26 30 37 38 42 42 41 41 40 37 36 33 33 33 34 34 33 35 36 36 35 34 34 35 35 36 38 38 39 39 40 40 40 40 41 44 46 47
19 16 25 27 29 26 31 27 36 38 40 40 42 42 40 40 38 36 34 34 35 36 36 36 35 35 34 35 36 37 38 38 38 38 38 37 36 37 39 41 42 43 44 46
18 16 25 30 26 23 24 28 30 34 36 39 40 43 41 43 38 35 35 36 36 35 34 35 36 36 36 37 37 37 37 37 36 36 35 35 36 37 38 38 39 42 44 46
12 8 22 25 29 31 25 19 27 32 33 36 41 42 42 41 41 38 36 34 33 33 32 32 32 35 37 38 38 37 36 35 34 34 34 35 35 34 35 36 38 39 41 43
8 11 14 19 24 25 18 32 23 24 30 31 32 35 36 35 35 35 35 38 40 37 36 37 38 37 36 36 36 35 34 32 31 32 32 30 30 32 34 35 35 36 35 36
10 10 8 8 17 23 19 28 29 29 23 26 31 33 32 32 31 29 30 32 34 36 38 39 40 39 37 34 32 30 30 30 30 29 28 28 30 31 31 28 28 23 22 26
11 12 14 15 13 19 22 21 21 21 22 22 26 26 23 24 27 27 28 30 30 31 32 32 32 30 29 28 28 29 30 30 29 28 30 32 29 27 23 21 18 24 28 27
13 12 16 18 14 16 18 21 22 23 25 21 22 22 17 22 23 24 23 24 25 26 27 27 27 26 26 27 27 28 28 27 27 28 28 27 26 23 22 22 24 26 24 26
13 13 16 19 20 21 20 21 21 19 20 27 28 27 25 22 23 19 23 25 24 24 24 25 24 25 26 26 27 26 24 25 26 26 25 24 25 25 25 23 25 26 25 27
16 15 16 18 21 22 23 24 22 20 22 23 28 32 28 26 22 24 23 23 24 24 23 23 23 23 24 24 23 23 24 25 25 24 25 25 27 26 24 26 27 26 27 25
15 14 15 15 17 19 19 21 21 22 23 25 26 25 23 20 20 22 20 22 22 22 22 22 22 22 22 23 24 22 21 22 23 22 22 23 25 28 26 24 23 24 27 29
16 16 16 14 17 18 17 16 17 19 21 19 20 20 18 19 19 19 21 21 22 22 22 22 22 21 21 23 24 22 22 24 25 24 24 24 26 24 23 23 23 24 25 23
17 16 17 19 16 15 16 15 14 16 17 18 19 18 19 19 19 20 20 20 20 21 22 23 22 21 21 20 21 24 25 24 24 26 25 24 22 20 21 22 23 20 22 25
18 18 17 17 17 18 14 16 16 15 17 18 19 19 18 18 19 19 19 19 19 19 21 21 20 21 22 23 23 21 23 22 23 22 22 22 19 19 21 21 19 22 24 25
15 16 17 18 17 17 14 17 18 18 14 16 17 17 18 18 17 17 18 18 16 15 14 14 15 16 17 20 22 23 22 24 24 24 24 19 20 21 20 19 21 23 24 24
19 18 16 17 16 17 15 17 17 16 15 16 16 17 18 18 18 18 17 16 15 15 14 13 14 13 14 17 18 19 20 21 22 22 20 18 19 19 18 19 21 21 23 24
23 25 24 23 21 19 19 19 19 19 19 17 18 18 18 19 19 18 17 17 16 17 15 15 15 15 15 16 16 16 19 19 18 19 18 18 17 18 18 20 20 21 22 24
22 23 23 26 28 27 26 24 23 23 21 19 19 19 19 20 20 21 19 18 18 17 16 15 16 16 17 16 15 15 15 16 16 17 18 18 17 18 19 20 20 21 23 23
16 19 23 24 24 27 27 28 27 28 27 24 24 23 22 22 22 23 22 20 20 19 18 18 16 17 16 16 17 16 16 16 17 17 18 17 17 19 20 20 22 23 23 24
17 17 15 17 18 22 23 25 26 27 28 27 27 26 25 25 24 23 23 23 23 21 19 19 19 19 17 18 19 18 19 18 17 17 16 17 18 20 22 24 25 25 25 25

GFSCGP_500_spd_069.txt.gz
Wind_Speed
42 35 37 34 37 33 33 33 33 31 41 45 42 48 39 44 42 42 44 44 40 39 40 41 40 39 37 35 34 37 38 37 36 36 36 36 36 38 36 39 39 38 38 37
48 38 32 34 33 34 33 30 32 33 38 46 45 45 51 38 41 41 39 46 47 43 41 39 36 34 33 36 37 37 38 40 40 40 39 39 38 39 41 41 40 43 42 40
35 35 31 33 33 33 29 25 30 34 33 43 45 48 44 44 41 40 39 38 43 48 47 43 39 35 37 39 39 40 41 41 42 41 42 44 44 41 39 39 39 43 46 46
40 32 28 28 29 28 25 27 29 33 36 38 42 44 40 38 45 41 37 39 40 40 43 44 41 40 39 39 40 42 42 43 44 44 43 43 43 42 41 40 39 41 46 47
41 37 33 28 27 27 26 27 29 31 34 38 42 42 37 39 41 44 44 43 39 36 36 35 34 35 37 39 41 43 40 39 38 39 39 39 40 41 41 42 41 41 44 46
31 31 25 25 27 31 32 28 28 35 39 38 38 39 38 32 30 31 39 48 43 37 33 34 35 35 35 34 33 33 33 34 35 36 37 38 38 40 40 41 41 42 43 44
25 39 33 27 29 28 30 28 30 32 37 36 35 41 35 35 32 31 27 39 39 39 35 35 35 34 32 31 33 34 35 35 35 36 36 38 39 39 39 40 41 41 40 40
19 30 39 30 24 30 33 37 27 27 32 33 35 40 36 33 33 33 31 29 33 33 32 32 30 31 32 33 35 36 36 36 37 38 37 37 38 39 39 39 38 38 39 41
20 22 25 27 29 21 35 32 26 23 24 30 36 37 37 35 32 32 34 32 31 32 33 32 32 33 34 35 36 37 37 38 39 38 37 37 37 37 37 36 37 38 38 38
15 16 21 25 32 28 28 27 25 28 28 30 34 36 38 36 35 33 31 32 35 33 34 35 35 34 36 37 38 38 39 38 38 37 37 36 35 34 35 36 36 36 36 37
11 10 17 22 28 27 28 24 25 25 27 28 30 34 33 34 36 33 33 34 34 34 35 36 36 35 35 35 35 35 37 37 37 36 35 34 34 34 34 32 32 34 33 33
10 9 9 19 19 26 28 29 25 26 21 24 27 32 30 32 35 36 36 38 39 41 43 42 40 37 37 37 38 38 37 36 35 33 32 32 31 31 30 31 33 31 29 30
13 13 14 14 17 23 26 22 23 31 25 21 20 20 23 27 26 26 28 29 31 34 35 36 39 41 41 41 39 37 35 33 32 31 30 30 30 30 31 31 30 27 28 29
12 13 16 17 16 16 22 24 22 24 29 23 26 21 21 21 22 22 24 27 27 29 30 31 34 34 34 32 31 31 30 29 29 29 29 28 28 28 27 28 27 26 27 29
14 15 16 18 19 20 20 22 25 23 20 24 24 23 18 18 19 17 18 22 24 24 25 25 25 26 26 26 26 27 27 28 28 28 27 27 27 27 26 26 28 29 30 30
14 16 16 17 21 22 23 23 22 21 24 21 20 25 23 21 21 17 20 21 21 23 23 23 23 24 24 24 25 26 27 27 26 25 25 27 27 26 26 26 30 31 30 28
15 14 17 15 17 21 24 24 24 24 25 25 26 22 25 23 19 18 21 23 23 22 22 22 22 22 23 24 24 25 23 24 24 25 24 24 23 24 24 27 29 30 28 28
20 17 15 14 17 20 19 23 24 23 24 24 24 26 22 17 16 21 20 23 22 22 23 23 23 22 21 21 22 23 22 23 23 24 23 24 25 25 26 26 25 25 24 27
19 18 17 17 17 17 15 18 20 20 22 21 22 22 17 17 19 19 20 21 22 23 23 22 22 22 22 22 23 22 22 24 26 27 25 25 26 25 23 23 22 23 24 24
15 17 17 15 16 16 12 15 18 14 15 16 18 16 17 18 18 20 20 21 22 22 21 21 21 22 22 22 20 22 23 22 22 24 24 23 23 22 22 21 21 21 22 22
15 16 16 15 14 14 14 16 16 18 14 14 15 17 17 18 20 19 20 20 19 19 19 18 17 17 17 17 18 20 22 24 24 24 24 24 25 24 24 21 20 21 21 22
18 16 14 14 15 14 15 14 15 14 15 15 15 14 16 18 18 19 19 18 18 17 16 15 14 14 14 15 15 15 16 17 19 21 23 23 22 21 21 20 20 19 21 22
20 21 19 18 17 15 14 16 15 17 17 16 17 15 15 16 17 18 18 18 17 16 17 17 16 15 15 15 14 12 13 14 16 17 17 17 18 18 18 19 20 20 21 23
18 20 20 22 23 23 22 19 19 18 18 18 18 17 16 16 18 19 19 18 17 18 18 18 17 15 15 15 15 12 13 14 14 15 16 16 17 18 18 18 19 20 22 24
21 19 21 22 22 23 23 24 25 25 24 23 21 21 20 20 20 21 20 20 20 19 18 18 19 18 16 15 15 15 15 15 15 16 17 17 17 17 18 19 19 21 23 25
21 20 18 19 18 19 22 22 23 25 26 27 27 27 26 25 25 24 24 22 21 21 21 20 20 20 18 18 17 18 18 18 17 17 18 18 18 18 19 20 21 23 26 27

GFSCGP_500_spd_072.txt.gz
Wind_Speed
32 32 32 39 39 36 34 33 34 30 35 39 40 39 41 41 42 38 42 47 50 48 47 45 44 44 43 41 39 38 37 36 38 39 38 37 34 35 34 35 35 36 38 38
41 29 28 33 36 32 31 32 31 35 33 33 42 42 43 43 40 40 37 46 45 49 49 47 44 42 41 40 38 38 40 41 39 38 38 37 37 37 37 37 39 41 40 41
39 33 26 32 32 33 31 28 29 28 33 33 33 42 45 47 44 41 40 37 45 47 49 48 46 44 42 41 42 42 41 40 39 39 38 37 37 38 40 43 44 44 43 42
37 38 26 28 30 30 30 30 28 28 30 32 32 32 37 44 45 42 37 39 39 43 47 48 49 46 44 43 42 40 39 38 38 38 40 41 40 41 42 43 43 42 42 43
36 33 32 22 25 28 25 27 28 25 26 29 35 38 35 45 47 44 40 36 39 40 42 45 47 48 44 44 45 43 42 40 39 40 40 41 40 41 41 41 40 40 41 41
32 30 29 25 24 25 22 25 25 26 29 32 28 34 40 40 41 42 40 42 40 40 39 39 39 41 45 46 48 49 50 47 47 44 44 40 38 37 38 40 40 40 40 41
29 29 26 23 26 29 30 28 29 30 32 32 32 32 29 38 43 41 40 38 45 43 40 37 37 37 38 40 40 40 40 40 40 39 37 37 38 40 40 41 41 42 43 43
27 24 25 27 28 25 25 27 31 32 30 24 31 36 27 33 41 39 37 37 42 45 48 44 40 36 38 38 38 38 37 36 36 37 39 40 40 41 42 41 42 43 42 41
24 26 37 34 28 26 25 28 27 31 24 19 23 29 34 33 37 38 36 34 32 32 39 41 40 39 36 36 36 37 37 37 38 39 40 40 41 41 42 42 41 40 40 39
19 17 30 39 32 28 26 22 30 30 29 28 29 25 28 32 32 35 34 32 31 31 32 37 38 37 37 37 36 37 37 38 40 40 41 41 42 42 41 41 39 38 38 38
16 18 21 28 32 28 28 28 36 35 32 29 27 24 25 28 31 33 33 36 38 39 37 36 36 39 40 39 40 41 42 42 42 43 43 42 42 40 39 39 38 37 37 36
14 14 18 24 26 28 29 24 27 31 28 24 22 20 20 24 27 30 31 34 32 33 40 38 37 36 36 38 40 40 40 39 39 39 38 38 38 38 36 35 36 36 34 34
12 11 12 14 21 27 30 30 30 28 27 26 21 10 19 22 23 24 24 31 34 34 34 35 37 38 40 41 40 39 37 37 39 38 38 36 34 34 34 34 34 34 34 34
16 17 17 16 17 21 25 28 32 31 29 22 26 18 16 18 19 22 23 26 28 31 33 35 37 40 40 43 44 44 42 41 40 37 35 35 33 32 33 32 32 33 33 32
16 17 19 20 21 22 22 23 28 31 24 23 20 25 23 21 23 23 24 25 25 29 31 32 32 31 32 34 34 35 37 36 34 33 32 31 31 31 31 31 31 31 30 30
19 18 21 22 23 25 27 27 22 24 28 27 22 22 20 21 19 16 15 21 21 23 26 26 24 24 25 26 25 27 28 28 29 29 30 29 29 29 29 29 30 30 29 29
20 19 20 22 24 25 28 24 27 27 27 28 30 20 24 22 23 23 24 25 21 21 21 21 22 23 24 24 25 26 26 27 27 28 27 26 26 27 27 28 27 28 29 30
21 21 20 18 23 25 19 22 25 26 27 30 27 26 28 20 19 23 24 23 23 24 21 23 23 23 24 24 24 25 24 24 25 26 26 26 25 25 27 28 27 28 28 28
20 24 25 24 22 19 18 20 22 24 23 23 25 27 25 20 19 21 22 21 22 22 23 23 23 22 22 24 24 23 23 24 25 26 27 28 29 28 27 27 27 27 26 26
20 20 22 22 21 19 15 17 18 20 19 17 18 19 18 17 17 20 18 20 21 21 21 21 20 20 21 22 24 24 25 25 26 25 24 25 26 25 24 25 24 25 25 24
18 18 18 21 19 15 15 18 16 17 17 16 16 15 15 17 19 18 20 19 18 18 19 19 20 20 21 22 24 25 25 26 26 26 27 26 24 24 24 26 26 26 26 25
17 21 16 19 18 18 17 16 15 17 17 19 15 16 18 19 19 21 21 20 21 20 20 19 19 20 20 20 20 19 20 19 18 17 19 21 24 25 26 25 23 23 23 23
18 19 21 18 16 16 17 16 17 17 18 17 18 17 16 17 20 20 18 20 19 19 19 20 21 20 19 18 17 17 17 17 15 15 17 19 19 18 19 20 20 21 21 21
22 21 19 21 21 20 19 16 16 16 17 19 19 19 17 16 17 17 18 18 18 19 18 19 20 20 19 17 16 16 18 18 15 14 15 16 18 19 19 21 20 21 21 21
28 25 21 20 22 22 22 23 22 22 20 19 19 19 19 18 17 16 17 19 21 20 19 19 19 19 19 18 18 18 18 18 17 16 17 18 18 19 20 21 21 22 22 22
26 26 25 22 22 22 24 23 23 23 24 25 24 24 23 23 23 22 21 21 22 23 21 21 20 21 21 20 20 20 19 19 18 18 19 20 20 21 20 20 21 22 24 26

GFSCGP_500_spd_075.txt.gz
Wind_Speed
40 37 39 44 42 39 38 42 36 28 34 36 45 47 51 56 41 44 47 45 46 47 50 51 51 50 47 43 42 43 43 42 42 41 41 40 38 37 35 34 33 34 35 35
41 36 26 35 37 34 31 34 35 32 29 33 38 40 47 38 43 43 48 42 43 42 42 50 49 48 47 46 44 43 43 42 43 44 43 42 39 38 37 35 36 37 37 38
35 32 29 33 35 33 32 31 29 32 36 30 31 37 39 38 39 41 41 38 37 42 48 48 49 50 48 47 47 46 45 44 44 43 42 41 41 40 39 38 37 38 40 42
38 33 26 32 34 32 32 29 29 30 30 36 35 35 34 44 38 41 40 44 43 35 36 43 48 51 50 48 48 47 46 44 43 42 42 42 42 41 39 40 41 44 45 45
34 27 20 27 29 32 30 29 30 30 30 29 31 40 35 35 46 40 40 40 40 43 37 39 45 47 51 52 49 46 45 45 44 43 43 43 42 42 42 42 43 45 45 44
29 30 28 21 27 29 28 29 29 28 26 28 27 29 26 38 38 40 42 42 43 43 42 39 40 45 48 50 49 49 48 46 45 44 44 43 43 44 45 44 43 41 40 41
35 30 33 26 21 25 27 27 29 29 31 31 28 28 18 28 38 41 43 44 45 46 43 41 42 43 45 49 51 51 49 48 48 47 49 52 50 47 47 46 43 41 41 42
31 33 28 31 25 22 25 26 28 30 30 31 28 26 23 26 32 40 43 45 46 49 50 47 45 44 43 43 45 47 50 50 50 49 47 45 44 43 42 40 41 41 43 43
20 24 26 25 26 24 27 30 31 31 32 31 29 25 25 30 32 36 40 44 45 44 45 47 50 45 42 41 40 41 43 43 45 45 45 42 40 40 41 42 43 43 45 45
22 23 23 24 30 28 28 26 29 29 30 28 25 19 18 24 28 37 39 41 40 40 40 42 47 49 48 45 42 40 40 41 42 42 42 41 41 42 43 43 44 45 45 45
18 24 26 29 36 33 30 28 25 26 30 28 24 21 21 24 28 30 38 38 38 39 44 42 39 41 43 45 45 44 41 39 40 40 41 41 42 43 45 47 47 46 44 43
24 24 25 22 25 38 39 32 32 30 30 30 27 19 18 20 22 24 30 32 34 40 38 38 36 34 35 41 40 40 41 42 41 41 42 44 46 47 45 45 45 43 42 40
23 23 22 23 24 28 30 36 34 29 26 25 26 23 18 19 19 18 21 24 28 32 35 42 43 40 32 34 39 41 43 43 44 45 45 44 41 40 40 41 40 39 38 38
23 20 20 19 18 23 29 34 31 32 34 30 24 20 20 20 19 22 21 23 25 30 31 29 33 43 44 40 36 38 41 42 42 43 43 41 40 39 40 39 39 39 38 38
21 20 21 22 21 21 21 24 30 34 30 32 27 26 25 27 24 22 23 28 30 31 33 33 34 35 40 40 42 44 43 44 46 45 44 41 41 40 39 37 37 36 35 35
22 22 25 24 25 25 26 27 28 27 28 31 30 29 24 27 26 18 23 26 29 32 32 31 31 32 32 31 33 35 35 34 35 36 37 38 38 35 35 35 33 32 32 32
24 23 24 24 26 27 30 24 29 28 28 25 30 23 29 25 22 22 21 24 25 22 26 26 30 31 29 30 30 30 30 30 32 32 32 33 33 32 32 30 30 30 30 30
26 26 26 25 24 28 22 21 25 27 28 30 27 23 26 26 23 20 24 25 25 23 24 23 24 24 26 26 26 26 28 29 28 28 29 29 28 28 28 28 28 27 28 29
26 27 27 28 26 26 19 20 23 25 22 27 28 28 29 25 23 20 21 25 27 26 24 23 28 22 23 25 25 25 25 25 25 25 26 26 27 28 27 28 28 29 29 30
23 26 27 26 27 26 20 21 22 22 18 23 21 22 26 21 18 18 26 26 24 21 22 23 24 25 26 25 24 24 24 23 23 23 24 25 27 28 29 29 28 28 27 27
20 20 23 23 23 18 18 21 21 21 20 20 18 18 17 17 23 27 22 21 22 22 23 24 24 24 23 22 22 22 22 24 25 24 25 26 27 28 28 28 28 28 28 27
22 20 18 21 19 14 21 18 20 20 18 19 19 15 17 20 18 17 19 22 23 21 20 20 20 20 20 20 20 21 22 23 23 22 23 24 26 26 27 28 28 28 28 27
24 22 19 22 19 19 20 20 19 19 19 19 17 19 14 16 19 20 19 18 19 22 23 21 20 21 20 20 20 20 20 20 19 20 21 22 21 21 22 23 23 23 22 22
29 27 23 21 21 20 19 18 20 20 20 20 21 21 21 20 14 16 18 19 19 21 23 22 21 21 21 21 20 20 20 19 19 20 21 20 19 19 19 20 21 22 22 23
31 29 25 22 23 25 25 24 22 20 20 20 20 20 19 18 18 16 16 16 19 22 22 21 20 20 20 21 22 20 19 19 20 20 20 21 20 19 19 21 21 22 22 22
32 26 28 26 27 23 25 25 25 25 25 23 22 21 21 20 20 19 19 19 19 19 21 23 22 21 21 22 23 23 21 20 19 22 22 23 23 22 22 23 24 24 24 25

GFSCGP_500_spd_078.txt.gz
Wind_Speed
37 39 45 45 43 41 38 40 37 36 36 42 51 51 52 65 69 53 54 50 47 54 60 56 55 55 52 50 48 46 44 43 41 40 40 39 39 38 37 37 36 36 36 35
37 37 41 41 40 37 35 37 39 33 32 33 38 46 55 47 63 41 43 55 51 54 56 59 59 58 57 54 51 48 47 45 44 42 42 42 41 41 40 39 39 39 38 38
32 40 32 38 38 34 31 31 36 34 33 31 31 33 42 52 44 63 39 51 55 56 56 55 56 59 56 52 51 51 51 49 48 47 46 46 45 43 42 42 41 40 39 39
31 36 27 28 33 34 31 30 32 38 38 35 29 37 32 34 44 49 54 45 50 53 49 45 49 49 52 51 50 48 48 49 49 49 49 48 46 45 44 43 43 42 42 42
26 32 28 25 28 33 31 31 32 31 34 36 39 37 30 32 38 34 35 44 44 43 41 40 43 46 46 46 47 48 49 49 49 48 47 46 46 45 44 43 44 44 45 45
29 27 29 23 28 31 32 31 31 29 29 27 24 27 24 33 38 35 37 38 41 43 41 43 41 36 40 47 49 49 51 51 50 49 49 49 48 47 47 46 45 46 46 46
30 31 22 20 26 30 30 30 29 29 29 27 25 24 12 26 32 32 31 34 41 45 41 41 42 45 42 41 46 49 50 52 51 51 51 49 48 48 47 47 46 48 52 53
28 27 25 19 19 20 23 27 29 31 31 29 25 24 23 17 19 27 35 38 38 42 47 48 48 47 48 47 44 45 49 51 52 52 50 51 51 51 50 51 53 50 48 46
26 23 23 25 24 22 23 30 31 30 29 28 27 28 24 23 27 31 34 39 40 41 44 50 52 51 49 49 49 46 45 47 50 53 54 54 54 53 52 49 46 43 42 42
30 26 27 27 26 30 28 25 30 31 33 33 29 27 27 24 24 30 35 39 41 38 42 47 49 50 51 50 48 46 45 45 45 45 47 47 47 47 46 46 43 42 42 43
24 23 21 27 30 28 30 28 31 33 35 33 30 27 23 24 22 29 34 39 42 41 37 44 47 49 50 50 52 51 47 45 45 43 44 45 46 45 45 45 44 44 43 45
24 25 23 28 30 29 33 37 35 35 33 29 26 25 23 23 22 27 29 33 38 35 40 42 45 44 45 48 47 48 51 50 48 46 44 44 44 44 44 43 44 45 46 49
26 30 28 29 32 31 30 37 35 31 29 28 27 27 26 24 25 24 20 26 32 28 33 38 42 48 48 48 43 42 44 44 45 47 47 46 44 43 43 44 45 47 45 42
24 29 28 27 27 27 26 26 35 40 40 38 29 27 18 18 21 22 21 25 28 31 32 34 32 35 42 43 43 39 35 40 41 41 41 42 44 44 44 45 46 42 41 39
25 26 26 27 27 27 24 26 29 33 35 35 31 29 24 23 27 27 26 27 26 28 31 32 32 31 32 39 42 46 39 34 34 36 40 41 42 43 44 44 43 41 40 40
27 27 31 30 30 28 26 25 26 28 29 35 33 27 26 30 30 27 28 30 32 33 32 34 34 35 33 33 33 35 52 48 46 45 45 46 48 50 49 46 41 42 41 38
28 27 27 27 28 29 30 21 26 27 26 27 30 23 27 31 28 27 28 29 29 29 36 37 33 35 37 34 33 33 32 36 40 41 39 37 40 38 38 37 36 36 34 32
28 28 27 26 25 31 23 21 27 28 25 29 30 25 25 24 29 28 22 23 28 27 33 33 34 34 34 37 38 35 29 30 32 33 33 33 34 34 34 33 33 31 30 30
29 30 29 29 27 28 24 21 23 28 22 27 27 27 27 29 27 20 19 20 20 25 26 25 25 25 26 25 26 27 29 31 31 30 30 30 31 31 31 30 29 29 28 27
29 28 30 29 27 27 23 24 25 25 21 24 24 22 26 30 25 19 28 28 29 27 24 25 25 23 25 29 27 24 26 26 27 27 28 29 28 27 27 27 27 28 30 30
27 27 27 26 27 22 20 25 28 26 23 20 22 20 20 21 22 28 28 31 26 23 20 21 22 23 24 24 25 25 25 24 25 26 25 25 24 25 26 26 27 28 27 28
27 27 24 20 20 14 18 21 24 24 23 21 20 19 17 18 22 23 24 24 23 22 22 22 23 23 23 23 24 24 24 23 23 23 24 25 26 26 27 28 29 29 26 26
28 26 25 22 16 18 18 17 21 20 20 19 19 19 19 16 19 17 17 19 20 22 23 24 21 19 20 21 21 22 22 22 22 22 22 21 22 22 22 22 22 23 23 24
31 28 26 24 20 19 18 17 20 21 19 19 20 20 18 21 18 17 21 22 21 19 20 20 23 23 23 23 22 22 21 20 19 19 20 20 20 21 22 23 22 21 21 22
34 35 30 26 21 23 23 21 19 19 20 20 20 19 21 18 23 21 17 17 19 20 20 20 21 20 23 24 23 24 23 22 21 21 20 21 22 21 21 21 21 21 22 23
28 32 31 26 30 25 25 23 23 24 24 22 20 20 20 20 19 18 20 21 17 18 18 18 20 22 22 21 22 23 23 23 22 22 21 22 23 23 23 23 24 25 25 25

GFSCGP_500_spd_081.txt.gz
Wind_Speed
39 26 35 38 41 40 39 36 35 36 39 40 44 49 47 42 50 59 62 57 54 52 54 55 51 51 47 49 48 48 48 46 44 42 41 39 38 38 38 38 38 37 37 36
33 24 32 37 39 38 35 35 36 35 35 39 43 46 49 46 42 56 55 57 51 52 52 52 56 55 54 51 52 50 53 51 48 45 43 42 42 41 41 41 40 40 39 38
30 27 26 35 34 35 34 33 31 31 34 37 39 43 53 45 43 59 48 48 49 48 51 51 50 55 57 54 55 55 56 54 51 49 47 46 45 44 44 44 43 42 42 41
25 26 28 31 33 32 31 29 28 28 31 35 39 42 41 48 41 49 41 44 47 47 49 51 51 52 56 63 57 57 56 54 52 51 50 49 48 47 46 46 45 45 44 44
21 26 27 23 28 33 31 28 27 26 29 33 35 37 26 32 36 35 40 43 44 51 52 56 54 54 53 56 61 61 59 55 53 52 50 50 50 49 48 47 48 48 48 47
26 24 28 22 25 32 32 30 28 26 25 33 33 32 29 24 24 27 26 31 36 42 45 53 57 53 48 52 55 56 56 57 58 56 54 51 49 49 49 48 48 48 48 47
22 23 27 23 23 30 31 28 27 27 30 30 28 31 16 27 31 29 27 30 31 35 51 54 49 44 44 44 46 47 47 47 47 47 47 48 50 50 51 51 50 49 49 49
26 25 23 27 23 22 28 29 29 30 30 28 25 26 16 15 11 21 28 30 31 36 39 41 43 43 43 45 43 42 44 50 52 52 52 52 52 52 51 51 51 50 50 50
26 25 23 19 20 25 27 31 30 28 29 28 26 27 19 17 16 18 19 24 32 35 35 37 42 45 45 46 46 48 48 46 45 48 51 52 52 53 53 53 52 52 51 51
28 26 28 25 22 22 24 23 28 31 31 31 29 28 23 22 22 21 24 27 31 32 34 39 42 43 46 50 51 50 50 50 50 47 46 48 50 52 53 54 54 54 53 50
33 27 28 30 30 25 25 27 26 27 31 33 34 31 27 23 24 27 26 28 31 34 38 38 38 42 46 50 53 55 54 53 52 52 50 50 49 49 48 47 47 46 46 46
26 30 33 28 28 30 32 29 32 33 31 30 30 27 26 24 21 26 28 28 29 32 34 37 41 38 39 46 51 55 55 55 54 52 49 49 48 48 46 44 45 45 45 45
29 27 29 31 28 27 28 28 28 33 37 32 31 30 25 19 20 22 26 28 28 30 35 36 36 35 37 41 47 49 50 51 51 52 53 52 49 48 47 45 44 44 43 42
34 34 33 33 32 29 29 33 34 35 39 40 34 33 29 22 22 24 29 34 33 27 28 28 30 32 34 38 43 45 45 46 47 45 45 43 45 47 49 47 47 44 41 42
30 29 30 34 36 34 31 29 31 32 31 40 37 37 33 31 28 25 30 34 30 27 26 29 31 33 36 38 36 40 43 46 46 48 43 42 46 40 40 40 39 40 41 41
32 29 26 26 29 31 30 28 26 24 24 28 29 34 30 31 30 29 33 32 32 31 27 32 33 35 37 35 35 34 36 41 41 46 46 42 41 43 41 42 42 40 39 41
31 31 29 28 30 31 30 23 27 28 24 22 24 17 22 24 27 30 34 33 30 29 32 31 34 34 35 38 39 38 36 34 35 33 48 53 49 45 47 47 50 42 40 42
30 29 29 30 28 34 29 21 25 27 23 26 26 21 23 24 28 29 33 30 30 27 30 33 35 36 40 40 38 37 39 38 34 34 34 33 36 38 37 35 39 40 36 35
32 29 29 30 28 30 23 20 23 26 20 26 26 24 25 27 28 23 18 21 24 28 26 25 26 27 32 39 42 41 37 37 37 37 31 30 33 32 32 34 33 32 32 31
33 30 29 30 28 28 23 22 22 25 24 24 24 22 23 24 25 22 29 27 24 24 24 20 21 23 25 25 26 33 32 26 26 27 30 31 31 29 29 26 28 27 29 30
25 28 26 27 27 27 20 20 24 25 25 24 23 22 21 22 22 22 25 26 25 24 24 24 22 22 22 21 21 21 24 26 23 26 28 27 27 28 29 28 28 30 31 29
22 25 23 23 24 22 17 25 24 23 22 23 21 21 19 19 19 20 23 23 24 25 24 22 21 21 22 21 22 24 24 24 26 26 25 25 26 26 27 27 27 28 27 26
25 25 22 21 20 19 17 19 18 17 17 18 19 19 18 17 18 19 20 19 22 23 22 21 21 20 20 19 20 20 21 22 22 23 23 23 23 24 25 26 26 27 26 25
14 23 27 23 21 20 19 17 18 15 16 16 15 16 16 15 16 17 16 20 20 20 19 20 22 22 20 19 19 19 19 21 22 21 21 22 22 21 21 21 23 23 23 23
22 20 28 26 21 22 21 20 18 15 16 16 16 16 17 16 17 18 21 15 16 19 20 19 20 20 20 21 21 21 21 23 23 22 21 21 21 20 20 21 21 21 22 22
33 26 25 25 30 28 25 23 21 20 18 17 17 16 17 18 18 20 19 22 21 17 16 17 19 20 20 21 20 20 20 22 22 23 22 21 22 22 21 21 22 22 22 23

GFSCGP_500_spd_084.txt.gz
Wind_Speed
24 28 34 39 39 50 36 27 40 39 40 42 43 44 46 45 42 45 56 61 55 58 59 55 53 51 50 50 47 46 49 48 47 47 45 43 41 40 38 39 38 37 35 35
19 24 37 40 44 43 41 34 31 34 37 36 39 44 45 46 44 43 52 61 54 55 56 55 53 53 52 51 49 47 48 47 47 50 47 46 44 43 43 42 42 40 39 38
15 19 18 38 40 37 37 36 34 34 32 32 38 43 46 47 46 46 50 54 59 57 56 53 52 56 55 52 50 51 48 47 43 46 45 46 46 45 45 45 44 43 42 41
25 19 19 27 34 36 35 32 32 30 29 29 34 39 43 45 48 47 44 52 57 57 57 52 52 54 56 56 56 54 52 52 51 51 48 48 50 50 49 48 47 46 46 45
25 23 20 22 27 27 28 30 30 29 27 29 33 39 36 36 40 46 52 53 44 60 60 57 54 55 56 53 53 53 58 55 54 54 54 54 55 54 52 50 50 49 48 48
22 22 26 21 24 28 28 28 28 27 28 30 31 35 37 32 28 33 37 49 40 53 54 50 53 54 51 51 50 52 53 57 57 57 57 56 56 56 55 53 51 50 50 49
25 24 24 23 23 23 27 28 29 28 30 30 26 30 29 21 32 31 29 35 43 47 42 46 51 48 50 54 57 56 57 55 55 62 61 60 60 59 58 57 55 52 49 50
29 27 24 26 25 20 23 28 30 30 30 32 23 28 22 17 21 30 34 31 30 30 43 53 48 52 54 53 54 55 53 52 51 53 55 56 55 56 60 61 60 58 56 53
27 24 22 25 26 23 22 31 33 32 30 28 26 28 19 17 21 18 23 33 31 31 32 34 44 51 53 55 57 56 52 52 50 48 48 49 50 51 52 54 54 55 55 55
31 24 26 24 23 26 28 26 30 33 33 30 28 27 20 21 21 21 19 20 25 27 27 29 38 38 40 54 57 55 49 46 46 45 46 47 48 50 53 54 54 53 53 53
31 25 24 26 29 22 20 24 27 29 32 32 31 30 24 21 20 21 24 23 23 24 27 29 31 34 36 36 39 44 49 49 49 49 51 52 52 51 50 50 50 50 50 51
38 35 28 27 31 31 28 25 27 28 30 30 30 33 29 22 24 26 26 27 28 27 27 31 32 31 35 37 39 44 45 47 51 54 55 56 55 54 54 54 53 51 50 49
41 35 36 37 33 34 29 29 29 31 34 33 32 34 26 24 26 22 24 27 30 31 30 30 32 33 34 36 37 39 41 44 49 52 55 57 58 58 55 53 51 52 50 49
40 35 31 30 32 32 33 29 30 33 34 31 30 32 30 26 20 23 25 28 32 35 32 30 30 29 32 37 40 41 42 42 44 47 49 52 54 55 55 54 54 54 52 50
39 39 36 38 35 32 35 31 31 29 30 34 29 32 27 29 27 30 26 29 33 35 31 31 33 33 34 37 36 39 41 43 44 45 45 46 45 45 48 49 49 46 47 50
31 27 31 26 33 37 36 37 35 32 31 32 31 30 26 28 35 33 31 28 31 33 34 33 32 32 30 32 34 33 37 40 39 39 41 42 44 45 45 45 45 46 43 39
31 37 37 33 27 31 35 34 36 32 30 28 26 18 22 24 28 33 35 34 31 32 33 31 31 35 31 28 30 34 37 38 40 40 42 43 47 47 49 49 44 42 44 45
28 33 31 32 31 34 29 25 28 29 27 27 27 21 22 22 22 24 27 29 31 32 33 33 32 34 32 33 33 35 36 40 43 43 43 43 41 41 36 44 50 51 51 51
26 27 26 28 28 32 25 21 21 23 21 23 23 23 23 21 22 25 25 25 29 32 35 33 34 30 30 31 33 34 36 40 41 41 42 43 40 39 36 34 34 34 33 33
23 30 31 30 29 29 22 20 20 22 22 24 25 23 22 22 22 23 25 26 27 28 27 29 27 24 24 24 26 28 27 31 40 45 47 41 32 32 31 30 32 30 32 33
19 18 24 30 29 28 21 22 23 25 25 27 27 27 24 21 20 22 24 24 27 29 27 25 24 25 24 24 25 25 26 28 30 33 34 27 29 26 29 31 29 33 31 27
16 16 19 25 27 24 20 21 25 27 26 25 26 25 24 22 20 21 23 23 24 24 25 26 26 25 24 24 25 24 24 24 23 22 24 29 24 26 29 29 29 29 31 31
17 20 20 20 24 23 19 21 23 25 24 23 23 22 22 22 21 20 20 21 22 23 24 25 24 24 24 23 23 23 23 24 23 22 22 24 25 26 25 26 28 29 29 29
24 16 22 22 20 21 20 20 19 18 18 17 17 17 18 18 18 17 19 20 21 21 21 21 21 21 21 22 23 20 18 18 19 21 21 22 23 24 23 22 23 24 24 25
28 23 16 19 20 21 21 19 16 15 17 17 17 18 18 17 17 17 16 19 17 17 18 19 19 19 20 22 22 22 23 22 23 23 23 23 23 23 22 22 22 22 22 22
30 28 24 23 22 26 24 21 18 16 18 17 17 17 18 17 18 17 19 20 20 23 20 19 20 20 20 22 23 22 21 21 21 22 22 24 25 26 24 23 22 22 22 22

GFSCGP_500_spd_087.txt.gz
Wind_Speed
20 30 30 32 36 52 41 41 45 44 48 42 45 55 50 55 51 48 45 41 38 37 49 56 56 57 54 51 50 48 48 44 42 42 42 43 42 44 44 42 40 38 37 35
21 17 23 32 34 39 40 38 42 46 50 42 39 48 48 54 54 52 46 42 40 43 46 50 58 56 55 56 52 49 48 45 43 43 45 49 50 48 47 46 43 41 39 38
21 28 24 21 32 39 37 35 34 42 46 45 44 43 43 45 52 50 48 46 44 43 43 53 55 58 57 56 57 53 51 51 48 44 45 49 55 55 50 47 45 42 42 41
25 21 17 19 25 39 43 40 37 27 37 38 40 40 40 43 45 49 50 49 47 46 47 52 60 55 59 56 59 58 53 51 49 48 46 44 52 54 49 48 44 43 43 43
18 18 19 18 32 37 40 44 38 36 32 32 34 36 37 41 43 45 48 50 50 48 50 54 55 57 55 56 57 55 55 54 51 48 48 47 44 45 45 43 41 44 47 49
24 20 15 14 23 35 31 30 32 31 33 35 32 37 37 38 38 40 45 49 52 51 49 50 54 60 57 56 54 53 53 59 57 52 52 52 54 53 50 52 49 47 51 52
30 27 25 22 19 23 25 29 32 32 34 34 36 37 36 34 36 38 40 46 46 50 52 52 48 54 57 53 53 52 55 57 56 59 58 57 57 56 57 58 58 55 54 55
30 28 27 28 29 25 27 31 30 31 30 30 36 32 30 24 26 33 39 40 44 41 43 48 47 48 54 57 56 58 58 52 58 51 50 54 55 57 57 59 61 60 60 59
29 29 24 26 27 27 28 30 32 34 35 36 36 27 29 20 20 28 34 39 43 38 34 37 40 49 56 53 52 53 53 57 56 54 58 55 53 53 53 54 56 57 56 59
29 22 29 26 28 29 26 23 28 33 37 35 33 30 26 20 21 24 26 23 25 37 32 33 36 41 50 51 47 49 54 57 55 57 56 56 53 52 51 49 48 48 49 50
33 34 32 29 27 28 29 30 29 28 33 33 22 25 25 21 21 23 24 24 23 21 30 34 31 38 41 39 58 64 62 56 60 63 60 58 56 52 47 47 47 47 47 48
35 34 34 27 29 29 29 27 26 31 30 31 33 33 26 20 21 23 25 25 26 26 22 24 27 27 27 29 38 38 49 51 55 60 62 58 57 50 49 50 51 52 52 52
42 46 35 31 29 31 32 31 25 24 26 26 27 28 29 22 22 23 25 28 28 28 27 25 24 24 24 26 27 29 32 32 34 35 36 41 45 51 52 52 53 54 53 53
33 36 47 41 37 37 33 32 31 31 33 29 29 28 30 22 24 24 25 33 34 32 31 29 28 27 28 27 27 29 32 35 37 40 43 46 46 49 51 51 51 52 52 52
28 31 32 38 41 34 35 38 36 36 32 33 29 29 24 23 25 25 28 30 32 33 29 29 28 28 27 27 29 29 29 32 36 41 44 47 47 47 47 46 45 46 44 46
37 32 29 32 33 32 36 34 31 35 36 32 29 25 27 28 29 27 27 29 31 26 27 29 29 28 30 30 29 29 32 35 36 39 42 45 46 47 44 42 42 43 45 45
32 26 35 29 32 22 33 32 34 33 32 33 31 28 26 25 26 25 26 29 30 32 32 29 28 29 32 32 31 32 31 32 32 34 36 37 38 38 39 42 44 45 46 46
41 16 26 35 27 37 28 25 25 31 34 35 35 30 26 26 25 25 25 28 32 37 37 33 31 31 33 32 29 29 32 33 33 33 35 37 39 40 42 42 44 45 46 49
29 39 20 23 30 34 37 28 28 29 27 28 31 29 27 26 26 25 26 28 30 33 36 35 36 34 33 34 31 32 32 33 34 35 37 39 41 43 43 43 43 42 41 40
28 25 22 27 27 29 33 28 26 26 20 25 25 24 23 23 24 25 26 28 27 29 30 31 31 29 32 33 32 32 29 29 32 34 33 34 37 40 43 45 41 39 38 36
27 30 21 21 23 26 26 20 22 24 25 23 25 23 23 23 22 23 26 29 26 29 30 30 27 24 25 29 28 26 26 29 29 30 31 32 33 36 34 33 30 30 29 28
17 24 16 20 22 28 24 22 23 25 25 23 24 24 24 24 24 24 24 26 25 25 28 30 29 28 28 30 30 29 31 30 29 28 26 24 25 24 26 26 26 29 27 29
15 20 21 20 19 22 22 22 22 24 25 26 25 24 24 25 25 24 25 24 24 22 23 25 27 29 30 30 30 30 29 26 26 28 29 28 26 23 24 24 25 26 27 29
28 23 24 26 26 22 20 22 23 25 24 23 23 23 22 22 21 22 24 24 23 22 21 22 23 25 27 27 27 26 25 25 24 22 22 22 23 24 24 23 23 24 24 23
28 35 33 29 28 27 23 22 22 19 18 19 19 19 19 18 19 20 21 22 23 23 22 22 22 21 22 24 25 25 25 25 25 25 25 24 23 24 24 24 23 23 24 23
28 33 37 35 28 30 27 24 20 18 18 18 19 19 19 20 19 19 21 21 21 21 22 20 21 21 21 22 24 24 21 22 25 24 24 23 22 22 24 25 25 25 24 23

GFSCGP_500_spd_090.txt.gz
Wind_Speed
34 29 34 36 30 41 47 44 42 40 37 30 44 40 43 44 49 56 56 58 55 49 46 40 38 43 50 54 53 47 46 44 44 41 41 39 39 39 41 43 44 43 42 39
33 21 23 36 36 33 39 40 40 28 37 26 33 40 35 44 47 53 52 55 54 51 48 43 38 39 42 50 54 56 55 50 46 44 42 43 42 45 44 43 43 43 43 41
28 23 23 25 36 33 40 39 41 47 36 40 36 38 40 39 45 50 51 54 54 50 47 45 41 40 40 45 50 54 55 55 52 49 45 43 44 44 41 44 45 48 45 44
21 17 15 18 28 30 29 45 40 45 47 46 46 42 39 39 46 50 50 55 53 50 47 48 45 40 41 42 45 52 54 55 56 55 48 47 49 47 45 41 44 53 51 49
22 22 25 22 18 24 36 34 39 38 37 40 45 48 42 47 41 47 53 54 56 52 48 49 49 42 40 42 46 50 55 54 59 57 55 52 52 50 48 44 43 48 48 36
23 22 22 23 25 28 29 35 40 37 35 39 37 46 46 43 42 42 47 48 52 53 52 49 51 44 42 44 48 53 53 56 55 57 56 58 53 50 50 47 48 44 42 42
26 20 21 19 15 23 30 30 37 44 42 37 33 37 43 40 38 41 41 45 47 48 51 49 52 48 43 46 46 49 56 54 54 58 54 52 53 54 51 49 48 51 52 50
37 31 28 26 20 18 25 30 35 36 41 36 31 32 33 33 33 36 36 40 41 44 47 48 49 51 48 49 46 45 51 59 56 56 54 52 51 53 55 53 55 56 53 50
35 37 35 33 30 29 24 28 28 24 27 32 33 30 32 31 26 29 33 35 38 39 40 41 42 45 47 45 46 47 50 58 55 54 54 51 51 49 46 48 50 49 55 56
31 33 34 34 30 28 29 30 33 31 31 33 33 30 26 25 24 25 25 27 31 30 33 37 38 45 42 41 45 47 47 50 53 55 55 53 53 62 60 58 54 57 53 52
29 28 31 31 35 27 29 30 29 28 30 31 30 29 28 30 23 24 22 25 27 26 24 25 31 36 35 39 46 42 46 52 51 49 50 55 53 58 59 58 55 56 53 53
28 34 34 34 23 25 29 30 29 28 27 28 27 27 25 24 22 25 24 26 24 23 22 21 23 36 38 39 35 36 45 52 55 52 56 48 59 51 55 60 64 62 58 53
27 42 39 38 40 34 33 31 32 31 30 29 30 27 33 27 25 20 22 25 25 25 26 26 25 25 28 27 27 24 22 31 32 67 70 67 60 54 56 57 51 48 50 52
25 32 40 37 31 36 31 32 32 33 33 23 21 19 24 26 24 25 28 28 29 29 29 29 29 28 27 25 24 21 20 21 23 25 26 30 37 34 30 35 39 40 43 46
38 31 33 32 35 40 32 31 33 31 30 32 24 23 23 23 21 20 24 28 34 33 33 31 30 29 26 26 24 22 21 21 22 23 27 30 33 37 40 42 44 46 47 47
35 43 14 25 27 28 26 39 27 33 35 36 33 29 23 22 22 21 21 23 24 25 27 31 30 28 27 26 26 26 25 25 24 24 26 29 31 35 38 42 45 47 48 47
35 41 10 17 23 28 24 24 35 33 30 28 31 27 27 20 19 20 21 21 23 24 26 27 28 28 26 26 27 28 28 26 27 29 29 29 31 33 35 38 40 40 39 39
32 32 28 5 20 28 25 21 21 26 26 28 29 27 27 25 22 20 22 22 23 25 28 31 35 35 31 28 29 30 29 25 26 27 29 30 31 32 36 38 39 40 40 40
23 25 25 8 19 26 26 24 26 20 19 20 23 26 29 30 27 25 25 24 25 25 28 32 37 39 39 35 33 30 31 29 30 30 31 33 34 36 38 39 41 41 42 43
13 20 35 23 20 15 20 24 23 26 23 21 23 26 26 26 27 27 27 27 28 28 30 33 35 38 38 37 35 33 31 33 32 30 32 33 34 36 38 37 37 40 39 39
13 18 21 24 15 16 19 16 16 23 25 25 25 23 24 25 26 27 26 26 28 26 26 31 32 32 31 29 30 30 30 30 29 28 29 30 31 32 34 34 35 38 35 34
15 17 20 31 30 20 17 21 22 23 23 22 22 24 23 22 22 22 23 25 25 25 25 26 29 30 29 29 28 28 27 28 29 31 32 32 33 31 30 28 28 27 25 26
18 15 16 20 18 22 22 19 25 24 23 23 23 24 23 23 23 23 24 24 25 24 23 25 27 28 30 31 32 32 31 31 33 32 30 30 30 30 30 29 27 24 26 26
14 14 20 21 25 21 20 18 19 25 24 23 23 25 25 24 22 22 24 24 24 23 22 22 23 25 26 27 28 29 29 28 28 28 28 27 26 24 24 24 25 24 23 22
18 21 19 21 33 32 32 26 23 25 22 21 20 20 21 21 20 19 20 22 23 22 22 22 22 23 24 24 25 26 27 27 26 26 27 26 27 27 27 26 26 25 24 23
28 30 38 30 30 38 34 30 29 23 20 20 20 20 18 17 18 18 18 19 20 21 21 21 22 20 22 24 24 23 23 25 27 27 24 24 25 25 25 24 24 24 23 23

GFSCGP_500_spd_093.txt.gz
Wind_Speed
19 22 20 19 30 47 48 50 44 37 35 50 37 46 64 62 59 59 51 49 53 58 53 51 47 45 43 44 42 40 40 39 35 36 35 35 34 36 38 38 39 40 42 44
28 27 29 26 26 28 45 51 51 36 27 32 30 37 57 61 47 46 54 56 55 56 58 55 51 48 46 45 44 46 46 47 46 47 45 39 39 39 41 41 40 40 42 43
28 23 26 30 28 25 23 36 42 47 44 34 30 24 36 37 36 38 42 42 51 54 55 53 54 50 47 41 38 38 40 46 49 50 50 49 51 47 44 43 43 41 44 45
30 25 21 23 27 36 30 29 35 42 34 34 35 32 23 32 36 36 37 42 44 49 53 54 53 50 45 40 40 41 41 42 45 50 52 52 54 51 50 47 44 43 39 39
31 27 23 27 26 33 37 35 34 37 35 38 42 39 33 31 34 32 31 34 46 46 48 50 53 52 49 44 41 42 41 42 42 45 52 55 56 55 52 56 49 51 51 50
29 28 24 22 20 26 30 32 32 39 40 43 38 40 44 42 36 38 39 36 38 44 47 50 53 52 50 45 44 44 42 42 41 43 47 55 57 55 51 55 52 53 51 48
35 29 24 23 25 25 26 32 37 37 41 42 38 42 31 38 47 48 47 44 42 42 48 50 52 52 51 49 45 44 43 44 44 46 49 53 57 58 55 56 56 54 54 50
38 33 29 28 23 24 24 29 34 37 38 37 41 38 31 26 31 40 47 43 40 42 45 47 49 53 55 53 50 48 48 47 48 50 51 55 55 55 50 59 52 51 54 51
33 34 31 25 22 22 21 22 35 35 35 37 42 39 33 32 33 31 36 38 36 38 39 41 43 44 48 50 52 51 50 50 52 54 54 53 57 57 63 53 54 55 51 50
35 35 40 40 37 36 32 27 26 32 33 33 32 36 38 33 28 31 33 33 31 35 36 37 37 37 41 45 48 50 50 51 53 50 50 49 51 57 57 55 53 53 50 49
25 33 35 38 37 34 31 30 31 30 29 28 24 25 28 26 25 19 25 27 27 31 31 33 34 37 37 38 39 40 43 49 51 48 49 49 49 50 52 52 50 54 53 58
17 27 29 29 30 35 36 29 28 29 30 31 29 28 28 27 27 27 27 31 31 29 30 30 30 31 30 30 35 38 41 38 41 45 49 51 48 48 52 47 49 51 59 60
27 23 25 31 29 31 29 36 30 30 29 29 26 23 26 25 23 22 29 30 32 32 31 30 30 29 25 22 25 33 37 37 36 30 37 47 48 52 53 59 55 50 47 56
26 22 30 28 20 33 32 27 26 31 33 28 27 23 23 26 28 27 26 25 32 33 34 33 32 31 28 24 23 25 27 26 25 25 26 23 34 48 64 68 57 55 56 59
26 38 29 26 36 34 33 31 33 35 33 36 25 24 21 20 25 28 28 37 31 32 33 34 32 31 29 27 26 27 27 25 25 23 23 24 23 23 23 27 29 32 32 34
23 36 40 28 22 32 33 35 27 28 34 32 30 27 26 23 22 22 23 26 31 35 33 32 30 29 29 29 29 29 29 30 27 24 25 26 26 25 24 26 28 31 34 37
16 29 36 31 17 17 28 26 27 32 25 29 28 23 26 23 23 21 23 24 23 24 25 26 30 29 30 31 32 31 31 32 30 28 27 27 26 25 25 26 28 31 34 37
13 27 22 32 1 9 19 21 16 21 30 35 29 26 25 24 26 26 21 20 23 25 25 27 31 31 30 31 30 30 28 31 32 32 30 27 25 25 27 29 31 33 35 36
10 23 28 25 7 13 13 13 18 19 16 27 29 26 27 26 24 25 24 25 22 24 26 27 29 31 33 35 35 33 31 32 32 32 33 30 29 28 30 33 35 37 38 38
10 4 13 26 18 5 8 14 21 20 21 20 19 19 19 21 26 28 29 29 26 26 27 27 27 28 32 36 40 41 40 38 36 34 34 33 32 32 32 33 33 33 34 35
8 8 6 26 26 19 10 14 13 18 23 25 23 21 20 18 22 25 27 28 29 29 28 27 27 29 31 29 30 31 36 36 37 36 34 35 35 35 34 32 32 32 31 31
10 9 12 16 18 21 24 15 17 18 19 20 22 23 22 20 20 23 24 26 28 29 27 25 26 28 28 28 30 28 28 30 32 33 33 33 33 32 33 33 33 32 31 31
12 9 10 14 19 19 24 30 29 23 21 22 23 20 22 22 22 22 22 23 25 26 27 26 25 27 27 27 26 29 29 29 31 31 31 32 34 34 33 31 30 30 30 29
12 12 12 9 13 18 20 24 23 21 21 24 24 25 24 24 24 23 23 23 24 24 24 24 25 25 25 25 25 26 28 30 31 32 32 33 31 31 30 29 27 26 25 24
23 20 18 21 23 20 24 34 22 21 18 20 25 24 23 23 24 23 24 23 22 22 22 23 23 23 23 23 23 24 25 27 28 28 29 30 29 29 28 28 28 27 28 29
27 28 29 31 23 23 28 32 35 33 28 22 23 22 23 23 22 21 22 20 20 20 20 20 20 21 21 21 22 24 25 26 26 26 26 27 28 28 27 26 26 27 27 27

GFSCGP_500_spd_096.txt.gz
Wind_Speed
12 17 14 25 48 54 52 48 50 47 39 49 42 47 52 56 54 42 52 61 54 51 53 53 51 47 46 45 45 36 44 40 34 30 31 34 29 28 33 32 33 35 36 38
14 8 8 19 41 54 56 47 52 52 42 45 49 50 47 56 60 53 39 44 52 59 55 54 52 50 49 46 42 45 42 41 38 36 37 36 36 35 37 39 39 37 38 38
24 18 13 17 24 39 51 50 46 46 48 43 48 44 47 53 53 53 51 43 41 41 51 56 55 54 52 48 43 43 44 45 45 41 40 40 44 43 42 44 46 45 43 42
25 28 27 25 26 27 30 39 50 47 46 45 42 47 47 42 44 48 57 51 44 40 50 49 54 56 53 52 49 46 45 45 47 46 45 41 42 45 48 50 49 49 49 47
29 29 31 30 32 33 34 32 41 45 55 48 38 36 34 26 36 41 52 53 48 43 47 61 55 52 55 55 52 49 48 48 47 42 39 39 42 45 48 50 53 54 53 51
28 29 29 25 27 28 29 33 36 30 38 49 49 48 38 25 20 33 41 41 39 39 41 43 50 52 52 54 54 51 49 48 47 41 38 39 41 42 44 44 52 55 56 54
32 33 34 27 24 25 24 29 35 36 28 39 37 46 48 39 37 35 34 36 36 31 30 33 43 47 47 51 53 51 52 51 49 45 45 45 46 44 43 45 48 52 55 55
36 34 35 31 27 27 28 27 31 35 39 34 39 42 44 34 39 38 42 44 42 43 38 37 41 41 42 46 47 50 52 53 53 49 46 46 45 44 46 48 50 49 52 50
28 34 42 38 34 29 29 31 31 33 34 39 41 35 38 37 34 36 37 42 47 49 48 45 44 43 45 46 46 48 48 51 55 53 51 50 49 49 50 51 55 55 61 53
26 31 35 40 36 33 30 27 27 28 32 36 38 41 37 37 35 33 32 34 34 40 46 47 41 43 43 45 48 52 54 55 54 54 53 52 52 51 53 55 61 59 57 58
23 28 35 38 40 36 34 33 32 27 29 27 33 32 29 31 35 36 33 30 34 33 36 41 42 39 42 43 45 48 51 54 57 56 56 55 55 54 56 60 63 60 59 58
20 21 25 31 39 41 37 32 28 28 28 28 26 28 21 20 23 26 27 28 31 31 33 35 36 38 40 41 42 43 44 47 48 51 52 52 51 52 56 60 57 58 53 50
17 18 19 23 30 35 34 35 34 34 31 30 31 27 27 25 23 26 27 28 28 31 32 32 33 38 41 39 40 41 42 43 44 45 46 45 48 47 50 50 53 50 52 47
24 20 30 19 26 30 38 28 30 31 37 30 28 26 26 21 22 23 24 24 30 33 35 35 34 37 38 35 36 37 37 36 33 34 37 39 35 36 40 43 40 47 50 54
29 14 33 30 27 27 17 29 36 32 33 32 27 26 25 24 26 26 28 30 30 37 38 37 38 37 38 37 35 32 30 29 27 28 28 28 31 32 31 27 29 25 27 35
29 23 14 40 26 34 32 24 24 22 31 27 30 31 29 31 30 29 29 27 33 38 39 39 37 38 39 38 36 34 34 33 31 31 32 32 32 32 33 30 27 27 28 30
29 23 10 32 30 13 22 31 32 28 25 30 33 25 34 35 32 28 26 28 25 28 41 37 34 35 37 37 38 37 36 34 34 34 35 37 37 36 34 31 30 30 31 30
28 17 4 16 30 25 15 21 30 31 32 31 29 31 27 24 24 26 26 26 24 26 27 31 31 33 35 40 40 39 40 37 36 35 36 39 40 37 34 33 33 33 32 31
25 14 6 12 17 14 7 12 21 22 25 32 26 31 31 29 26 29 30 27 26 26 28 29 29 30 34 39 39 37 38 39 37 34 35 37 38 38 36 34 34 32 32 33
25 11 5 14 22 13 12 14 13 16 23 20 21 29 38 34 30 30 29 28 31 31 29 28 31 31 30 31 35 39 39 37 38 37 37 35 35 35 37 39 39 36 35 35
23 10 10 10 20 30 18 7 12 16 19 19 22 22 24 27 27 28 30 32 32 33 34 32 32 31 29 30 30 31 33 35 40 44 42 41 39 38 38 38 40 39 38 36
26 16 11 11 12 17 24 21 16 13 15 18 23 27 29 26 25 24 26 29 32 33 34 34 32 32 31 30 29 31 30 29 28 29 32 36 38 39 39 39 39 37 35 35
23 23 14 7 11 15 17 18 21 25 20 18 21 25 27 30 29 26 24 25 27 29 30 30 30 29 30 31 30 29 28 28 29 29 31 32 34 35 35 34 35 35 35 35
29 21 15 11 13 15 18 17 20 26 29 33 30 26 26 28 25 25 25 24 26 28 26 27 29 28 29 29 28 28 28 27 28 30 32 33 33 33 33 34 35 35 33 32
35 27 19 18 22 20 17 24 26 23 30 30 27 28 28 28 28 26 24 24 23 23 25 26 26 26 26 26 25 24 24 26 28 30 31 32 32 32 32 33 33 31 30 30
36 35 29 27 26 26 25 22 31 37 27 28 23 18 20 22 22 21 22 23 23 23 23 22 22 23 24 24 24 23 23 25 26 28 29 29 29 29 29 29 29 30 30 30

GFSCGP_500_spd_099.txt.gz
Wind_Speed
16 12 18 32 47 53 46 42 35 21 57 53 41 54 58 64 59 56 56 57 54 51 50 47 44 42 42 39 32 33 35 35 32 31 27 26 25 29 27 25 27 28 29 30
15 12 15 21 37 51 60 49 42 35 31 53 45 58 43 52 57 61 59 56 56 56 55 51 49 48 46 42 38 38 44 39 38 35 31 30 31 28 27 28 30 32 34 37
19 18 16 19 23 46 56 56 52 44 37 54 39 35 36 42 44 57 58 56 56 52 55 52 54 54 51 47 45 42 42 44 45 41 32 36 37 35 36 37 36 35 36 38
25 23 17 16 17 26 39 51 52 50 46 46 52 44 42 45 52 51 49 47 57 64 60 57 53 50 48 49 50 49 46 44 42 40 39 42 42 42 40 39 41 41 42 43
35 36 34 30 26 21 24 42 48 49 54 56 50 41 43 46 41 42 41 56 46 44 49 53 55 56 53 54 52 50 49 46 45 44 45 48 47 46 46 44 40 40 40 39
39 38 36 37 34 32 31 31 36 39 45 57 54 49 40 35 37 44 43 52 56 46 44 46 42 42 47 52 57 54 52 50 50 47 48 47 46 45 45 43 40 38 41 43
29 32 35 38 38 37 37 38 37 36 33 41 50 55 47 34 30 34 39 43 42 49 58 53 50 45 41 46 54 53 54 55 53 51 50 49 49 48 46 44 41 39 42 42
25 30 35 34 36 33 26 28 32 34 34 37 35 49 56 44 37 30 28 26 41 40 49 48 41 43 45 44 48 57 56 52 54 54 53 52 51 51 49 47 46 44 47 47
22 28 33 37 35 36 32 31 27 18 32 35 42 35 53 49 43 44 40 32 29 34 36 38 36 35 36 36 39 43 46 48 52 54 54 55 54 54 54 51 50 48 51 52
23 20 32 35 41 41 35 31 31 36 34 27 31 40 28 36 33 37 44 46 41 40 43 45 46 46 43 41 41 41 42 44 48 51 54 58 56 57 56 55 54 53 53 56
29 23 22 30 32 34 39 36 33 32 34 34 31 31 36 38 37 33 39 40 41 40 42 46 48 49 48 48 46 46 46 47 50 51 52 54 57 59 60 61 55 55 57 58
32 26 19 24 30 32 35 30 29 32 28 27 25 23 23 30 31 31 36 40 39 38 36 38 38 42 46 48 48 47 47 48 52 53 54 57 57 58 58 58 60 60 61 62
34 25 15 16 20 31 36 40 34 35 34 29 28 24 23 22 26 26 28 37 43 41 37 37 39 38 40 43 47 49 48 46 48 50 52 52 51 52 54 53 55 56 58 61
32 27 12 19 14 27 27 31 37 36 33 29 26 25 26 26 29 26 26 28 30 33 33 34 35 35 39 42 43 45 45 46 47 49 49 51 49 48 48 47 47 51 54 56
35 30 18 21 19 30 28 27 33 31 29 35 31 32 27 27 32 26 25 27 28 30 32 32 35 38 39 40 41 45 46 46 47 48 48 49 48 44 40 39 39 40 40 40
43 31 24 14 37 22 24 21 16 36 25 28 25 32 30 32 33 30 28 28 29 30 32 35 38 40 42 42 43 42 43 43 41 40 39 38 37 35 34 34 35 35 36 34
48 41 24 12 27 32 23 27 26 19 16 24 24 24 33 34 32 32 27 25 27 32 34 37 38 41 42 41 42 40 40 41 42 40 38 37 37 37 36 36 38 38 38 36
47 39 21 13 12 27 24 17 24 26 23 23 21 26 30 31 35 37 31 30 27 29 31 34 41 43 42 39 41 42 41 40 41 41 41 40 39 40 40 41 41 40 39 39
44 34 19 10 11 25 23 17 16 17 26 31 30 29 27 29 32 29 32 33 31 28 28 31 33 33 35 39 41 42 42 41 41 41 41 41 41 41 42 42 43 42 42 39
42 36 18 13 7 22 22 20 19 19 23 26 27 30 30 29 30 31 26 25 28 31 32 30 30 30 31 34 37 40 41 39 37 38 39 41 45 45 41 40 40 39 39 38
38 35 20 12 12 11 24 16 15 15 17 23 25 24 25 28 36 34 31 29 31 31 33 35 34 32 32 32 33 33 34 34 36 38 39 39 40 42 41 40 37 37 38 38
37 36 26 15 10 11 13 22 22 18 14 17 20 22 23 21 25 32 34 35 35 35 36 35 36 37 35 32 31 31 32 33 33 31 31 31 33 37 38 39 40 41 41 41
32 35 30 22 16 12 14 14 20 25 25 21 20 20 20 21 29 30 30 29 31 32 34 35 36 37 37 37 34 33 33 33 30 29 30 31 30 31 33 36 37 38 38 38
32 35 32 25 20 14 14 18 21 23 29 30 30 28 25 23 26 27 29 31 30 30 30 32 33 33 33 33 31 31 31 32 31 30 30 31 30 31 32 32 34 35 34 34
30 34 35 31 27 21 20 20 21 24 27 26 25 30 34 32 28 28 27 28 30 32 32 29 29 28 28 30 30 30 31 31 30 29 30 31 31 32 32 32 33 35 35 35
29 32 35 33 31 28 29 28 25 21 26 33 29 30 29 28 28 27 26 27 27 29 29 27 28 27 28 28 28 29 29 29 29 29 29 30 30 31 31 32 33 33 33 32

GFSCGP_500_spd_102.txt.gz
Wind_Speed
20 19 30 25 36 32 32 25 45 36 55 50 51 54 59 58 57 56 53 50 50 43 38 39 39 43 42 40 39 29 26 32 33 33 36 35 33 24 25 22 20 17 20 23
7 21 26 28 30 34 37 31 26 26 48 38 59 62 49 53 56 58 54 53 48 49 43 39 39 39 37 34 30 33 29 29 35 31 42 33 32 26 22 22 21 22 23 26
15 11 12 25 32 36 38 37 33 27 41 56 41 59 49 51 59 60 57 56 51 49 48 44 41 41 37 37 36 35 32 31 30 29 28 27 24 27 28 26 25 29 30 30
18 17 18 19 19 22 30 37 40 37 30 39 51 36 44 55 53 63 62 59 52 51 52 51 44 43 42 43 43 42 39 36 36 35 35 38 36 33 33 32 35 35 35 34
25 27 27 24 21 21 20 24 38 49 51 51 37 40 35 47 53 54 59 61 56 53 51 49 50 49 50 49 47 50 48 42 41 39 41 39 40 34 33 36 36 35 36 37
25 38 38 39 40 37 34 32 28 37 40 53 50 43 45 41 29 36 43 59 57 55 54 50 53 55 53 48 45 45 45 45 46 45 45 44 42 39 40 39 40 42 41 40
17 24 33 39 45 41 41 40 35 29 32 45 48 52 45 41 34 30 36 39 47 49 50 47 45 42 44 53 53 51 51 51 52 49 47 46 45 45 44 45 45 44 42 42
19 21 27 31 38 45 43 38 38 35 34 33 34 52 50 43 44 41 34 37 44 42 40 49 51 47 40 43 43 38 38 43 46 49 50 50 49 49 48 47 47 47 47 47
30 21 22 28 32 35 36 34 32 33 34 36 37 35 40 35 40 43 43 36 39 42 43 42 46 52 48 48 48 48 44 41 40 45 48 49 47 49 51 51 50 50 50 50
34 27 22 23 31 30 34 34 34 30 27 23 29 35 31 27 30 36 41 44 40 34 35 44 47 45 50 51 55 52 49 44 42 42 45 49 52 51 51 52 52 53 52 53
38 36 23 19 16 26 33 36 35 32 32 32 27 21 25 29 26 34 44 51 47 41 35 34 42 46 47 46 44 42 39 38 40 41 44 46 47 47 48 48 51 53 55 55
41 41 29 17 19 22 27 27 30 38 33 27 31 32 25 23 34 34 33 36 49 50 47 41 38 39 40 44 45 44 44 45 45 45 45 44 46 47 48 48 50 52 54 55
43 38 35 17 14 25 29 30 29 29 29 33 31 26 26 26 25 30 35 37 37 38 41 40 40 41 43 46 48 49 49 48 48 49 50 49 48 50 52 54 55 56 59 60
44 36 35 21 12 19 28 29 32 32 32 29 27 26 27 29 24 23 29 32 37 39 40 40 42 41 42 45 46 47 46 47 47 47 47 49 48 49 51 52 54 56 56 55
43 42 36 29 16 19 20 23 30 29 39 28 29 30 25 28 26 25 27 32 36 39 42 44 45 45 42 43 45 47 47 46 46 47 49 49 49 49 49 49 49 51 51 53
41 44 42 28 21 20 17 25 23 23 28 28 35 28 33 32 31 28 29 31 31 36 41 44 45 46 45 44 42 43 45 45 45 46 48 49 50 49 49 49 48 49 49 48
39 45 46 32 21 7 20 20 22 24 21 28 33 34 29 38 38 35 32 29 30 29 30 31 33 36 36 38 38 41 42 42 43 44 44 44 44 43 40 40 39 40 41 40
36 42 45 38 22 2 19 24 17 19 19 16 29 25 26 33 36 35 35 33 33 32 32 33 36 37 36 35 39 42 43 43 44 44 43 42 42 41 40 39 38 39 40 41
34 38 41 37 21 11 14 20 18 14 14 17 23 24 25 20 20 27 32 34 36 35 33 28 30 36 39 41 43 44 46 47 45 43 42 41 40 41 41 42 42 41 41 41
32 36 36 33 21 15 13 19 25 24 17 20 20 23 29 27 23 24 26 31 34 39 39 33 32 33 34 36 37 40 42 46 45 40 38 40 42 42 42 42 42 42 43 42
30 34 35 33 23 17 18 16 23 18 20 18 20 21 22 25 26 29 27 29 30 32 31 31 33 34 33 34 35 37 37 36 40 41 40 37 37 39 40 38 38 41 43 42
27 31 34 34 28 19 18 14 12 21 18 19 20 18 13 14 21 25 30 31 32 27 27 31 31 32 33 35 34 32 31 35 37 36 35 32 33 33 33 36 38 40 41 43
25 27 30 33 30 27 17 14 18 18 21 28 27 24 21 18 18 18 24 27 31 34 35 36 35 33 33 33 33 34 33 32 31 30 30 30 31 32 33 34 35 36 37 38
23 27 31 34 34 30 25 23 18 21 24 27 29 30 29 26 22 21 20 24 25 29 31 30 30 31 31 31 31 32 32 32 30 29 30 29 29 31 32 33 33 34 34 33
21 25 29 31 34 35 34 31 29 23 22 26 27 32 32 33 30 26 21 19 23 24 27 29 29 28 27 28 27 28 29 30 30 30 30 30 30 31 32 32 32 33 34 34
21 24 28 30 33 35 38 35 34 30 25 21 26 27 30 29 27 25 27 25 23 23 23 25 28 31 29 28 28 27 27 29 30 30 29 29 30 30 31 32 33 33 32 32

GFSCGP_500_spd_105.txt.gz
Wind_Speed
6 16 21 27 22 15 12 11 15 21 16 54 40 47 47 51 52 57 51 47 49 45 38 34 41 40 35 33 31 32 44 51 44 47 43 44 45 42 37 32 30 24 25 28
2 12 14 25 24 24 27 26 28 19 9 43 38 40 41 50 54 53 53 49 47 46 46 39 31 33 38 35 41 37 31 38 40 40 44 49 49 45 37 39 38 35 30 26
6 9 17 22 28 28 31 32 29 28 23 30 43 49 41 46 49 57 52 48 45 45 46 43 42 37 29 29 29 36 34 39 28 47 40 38 42 38 34 34 41 40 35 32
14 16 18 20 24 26 30 35 36 29 27 26 41 52 45 43 49 52 55 53 48 46 45 42 40 36 33 36 34 29 36 31 32 32 41 45 31 37 38 47 38 29 27 28
11 18 21 24 27 29 22 25 22 30 31 34 32 50 43 46 44 50 54 51 49 49 46 43 42 40 38 38 35 37 40 40 36 29 32 33 31 30 26 26 30 29 33 32
10 16 24 31 31 32 32 28 28 22 31 34 31 35 34 43 50 48 48 52 51 49 48 46 45 43 41 40 39 38 39 34 34 35 37 29 30 31 35 32 31 29 26 26
17 16 22 31 41 44 43 42 38 35 32 32 31 35 39 40 37 51 57 56 49 53 56 52 49 44 42 43 42 42 42 41 41 40 40 40 41 39 38 38 37 34 33 34
23 22 21 23 31 38 36 36 36 35 33 32 30 35 36 37 37 39 39 36 58 46 49 54 51 48 45 46 44 44 45 46 44 42 38 38 40 42 42 44 40 40 40 40
33 32 31 18 25 31 28 26 26 28 33 35 36 32 29 35 41 35 38 37 37 38 39 52 51 50 50 45 43 39 37 40 44 46 40 40 44 46 48 48 45 44 44 44
36 37 36 28 13 22 19 22 24 27 25 28 32 31 30 25 32 32 35 36 39 34 31 31 38 40 41 46 48 44 40 36 40 39 38 37 37 40 45 44 44 44 44 46
39 44 41 35 18 17 20 26 28 24 24 24 19 26 27 26 26 24 31 37 39 43 39 31 29 36 39 40 40 40 41 40 45 45 44 44 43 42 42 42 44 46 47 47
39 44 39 40 28 9 14 22 22 29 27 23 24 24 20 18 25 29 31 37 41 42 43 42 34 29 32 40 40 40 41 42 40 43 45 43 41 40 39 39 40 42 42 43
37 43 44 38 33 16 19 21 28 25 19 29 26 24 25 26 23 23 31 35 43 44 46 45 44 37 34 35 36 37 38 40 38 39 39 38 39 40 41 43 43 44 46 46
34 40 46 40 36 23 8 24 26 30 27 19 26 31 26 24 25 26 25 30 34 37 45 48 49 50 47 41 38 40 41 41 44 45 45 45 44 44 45 46 47 48 48 49
33 39 44 44 40 26 4 17 26 25 23 22 20 29 32 28 27 26 25 24 29 34 37 38 41 46 56 53 50 43 43 44 45 45 48 47 45 46 46 46 47 48 49 48
31 37 43 46 43 27 1 8 18 24 28 34 23 24 28 27 26 26 27 24 25 31 35 38 41 41 41 44 48 49 50 47 47 48 47 46 47 47 46 48 49 49 49 49
29 35 41 44 40 32 6 4 13 14 18 27 28 30 31 28 26 28 29 29 31 30 34 37 38 41 42 44 45 47 47 46 48 49 48 47 47 44 44 45 47 46 47 47
27 33 39 42 40 29 25 12 13 16 18 18 19 28 31 34 31 33 38 35 32 32 34 34 35 38 39 39 41 41 42 42 45 45 45 43 42 41 41 42 42 42 40 38
26 31 35 39 38 36 30 21 14 19 18 13 14 17 21 28 32 31 34 36 40 37 35 36 36 36 37 37 36 38 39 36 38 43 44 43 42 42 41 40 40 40 40 40
23 27 32 37 35 31 30 19 15 16 19 20 16 14 18 24 25 26 23 34 39 38 36 37 38 37 34 35 37 38 38 38 42 43 42 43 43 40 38 39 39 39 39 39
21 26 30 32 34 33 34 28 16 11 10 16 17 18 18 20 21 21 27 23 26 29 33 35 37 39 34 34 34 36 36 36 37 39 42 41 38 36 35 37 40 41 42 43
20 24 26 30 32 29 33 32 24 20 14 18 20 19 18 18 18 18 21 25 27 26 27 28 33 38 39 35 32 33 34 35 36 36 36 33 29 29 31 35 37 37 40 42
18 22 24 27 29 32 32 32 30 26 22 18 20 24 29 21 20 17 18 21 26 29 31 31 32 28 28 28 29 31 33 36 35 33 28 27 32 35 36 37 36 37 36 36
18 21 24 27 28 30 30 31 33 33 30 25 22 23 23 29 27 24 20 20 22 25 27 29 30 30 31 33 33 30 29 31 31 31 32 31 31 31 32 32 33 34 36 36
18 20 23 26 27 28 30 30 32 36 36 34 24 22 26 25 30 29 25 23 21 20 18 21 23 23 27 28 28 27 27 28 30 31 30 30 31 33 34 34 34 34 34 34
18 19 21 23 26 28 30 30 32 34 38 39 37 34 21 22 27 28 27 26 24 20 17 17 20 21 23 23 28 25 24 25 26 29 30 31 31 32 32 33 33 33 34 33

GFSCGP_500_spd_108.txt.gz
Wind_Speed
13 4 4 13 9 7 9 11 13 4 6 25 29 31 30 43 52 50 52 51 44 36 42 37 33 26 21 28 54 55 59 57 58 58 58 59 57 56 52 48 43 41 39 37
4 3 7 9 9 10 15 14 15 7 13 17 33 28 36 40 44 43 48 52 49 33 34 34 30 31 22 28 31 40 50 59 63 61 60 64 65 64 59 51 47 43 40 39
5 10 10 12 17 18 20 23 20 21 19 17 40 32 31 34 40 42 43 50 48 48 48 40 31 26 36 34 36 27 42 36 58 58 66 66 60 56 53 51 47 45 43 41
13 19 19 20 18 22 25 29 32 29 25 17 28 37 31 36 38 38 39 40 47 47 49 38 34 39 42 27 24 26 33 36 44 49 54 52 51 46 56 48 52 45 45 42
10 11 15 26 27 28 27 31 33 30 24 21 21 34 37 36 37 35 38 40 44 46 40 42 37 33 40 40 32 32 31 32 24 32 49 46 55 52 37 49 45 45 42 44
16 13 11 19 28 32 33 31 32 33 28 23 25 31 32 40 43 40 39 40 40 43 48 46 43 41 39 38 25 28 28 31 26 24 35 26 37 35 35 39 37 41 35 31
22 19 17 16 25 32 29 36 35 35 34 26 22 34 36 37 33 41 44 38 40 39 44 44 43 43 45 38 33 30 29 31 32 30 33 27 31 27 33 28 22 27 28 25
27 28 30 24 14 28 25 26 27 29 35 31 28 32 33 36 31 33 41 49 44 42 41 41 42 40 43 42 43 40 36 35 33 31 31 33 33 36 36 36 32 30 27 27
30 33 39 32 19 19 16 16 21 21 26 30 33 31 29 31 32 32 35 34 35 43 48 46 37 40 45 45 41 41 38 38 37 37 36 37 36 35 32 35 34 34 36 37
29 36 41 38 29 13 13 16 18 20 18 18 26 28 27 30 31 32 36 36 34 32 34 32 45 40 42 45 45 42 40 41 40 38 39 39 41 41 38 35 35 35 36 38
30 37 40 42 37 17 12 16 22 13 24 19 16 24 24 26 29 30 35 34 33 36 40 33 40 44 46 43 46 45 45 42 37 35 34 34 38 41 36 33 32 34 34 35
31 35 38 41 39 26 9 17 27 25 20 19 18 16 24 22 26 28 30 31 33 33 31 31 36 31 34 36 40 39 43 43 44 43 41 36 34 39 38 38 38 38 39 37
30 36 41 43 40 32 11 10 19 19 27 20 14 23 23 21 22 31 30 33 35 38 36 33 34 40 38 33 34 34 37 38 39 37 38 39 38 39 41 40 39 38 39 39
27 34 40 45 43 37 20 5 18 24 18 13 22 24 24 23 21 23 28 33 35 38 40 39 38 37 37 36 36 34 35 38 42 40 40 41 40 38 39 39 39 40 40 42
26 33 39 43 47 40 31 9 7 25 26 21 17 21 28 26 23 23 28 29 33 33 39 41 43 42 42 40 39 38 38 35 38 40 40 40 41 42 42 42 43 42 44 44
24 29 36 40 46 43 32 14 3 10 19 18 15 15 11 30 30 26 25 28 31 33 34 37 43 43 44 43 44 45 46 45 43 40 40 40 43 45 45 45 44 44 45 46
22 27 33 39 41 42 33 20 3 7 14 20 22 24 23 20 28 30 29 29 29 29 30 31 34 38 40 41 43 45 45 45 47 46 45 46 45 45 46 45 46 48 49 50
21 25 29 35 37 36 37 28 18 7 15 17 18 20 21 27 29 29 28 28 30 32 33 33 34 37 39 41 41 43 43 43 43 45 45 45 46 46 47 47 48 48 46 47
20 24 27 32 35 38 35 32 24 16 12 20 20 17 21 25 29 29 31 28 29 31 33 36 36 37 38 39 40 41 43 43 43 45 44 45 43 45 45 44 42 41 39 37
17 22 26 28 32 33 34 36 31 27 14 14 18 22 18 19 24 26 31 35 37 37 37 43 39 38 40 39 38 38 39 40 42 45 46 42 43 43 42 40 40 38 36 35
15 20 23 26 30 32 33 33 35 31 30 13 12 13 16 19 20 23 25 29 34 31 33 40 40 42 41 40 40 38 35 36 38 38 37 41 44 42 40 38 36 36 36 36
15 18 20 24 28 30 31 32 33 33 34 18 11 14 20 20 20 21 23 24 22 25 23 29 33 36 40 38 38 40 37 35 36 36 35 35 36 37 37 38 38 37 38 38
13 17 19 21 24 28 31 30 30 33 36 36 31 17 19 22 25 22 21 21 25 25 27 26 25 28 31 32 35 38 39 39 38 35 34 34 32 32 33 33 31 33 36 38
13 16 18 21 25 26 28 29 28 28 31 34 38 38 22 21 23 25 26 23 21 23 27 31 33 32 30 29 29 31 32 33 34 34 35 35 35 34 33 33 34 34 35 37
14 17 19 20 23 25 27 28 28 27 30 33 34 37 37 21 18 22 26 28 24 21 21 23 27 29 28 27 28 28 27 29 31 33 33 35 34 35 36 36 34 34 34 34
14 17 18 20 23 25 26 26 28 31 30 35 31 32 33 29 13 17 20 24 27 24 22 18 18 20 22 23 24 24 27 29 29 31 32 33 34 35 35 35 35 36 38 38

GFSCGP_500_spd_111.txt.gz
Wind_Speed
9 8 7 7 11 10 5 11 2 7 8 12 15 15 25 34 50 54 52 51 52 44 38 42 66 72 47 51 43 36 65 64 64 64 58 54 52 52 52 50 49 49 45 46
5 4 2 3 11 12 14 14 8 9 9 12 14 16 19 19 41 47 48 49 51 45 40 35 39 53 35 29 41 43 53 67 69 65 61 58 54 55 54 52 51 51 49 48
6 10 10 11 13 15 16 20 19 16 13 13 16 14 19 21 33 45 47 42 47 42 39 29 36 36 19 25 33 40 46 57 75 67 60 60 60 60 58 58 58 56 55 52
12 9 11 20 23 25 25 26 28 23 21 17 16 20 20 17 25 32 41 42 41 42 39 33 34 35 37 29 27 44 45 47 60 59 58 64 60 58 59 59 59 59 60 57
10 11 11 15 20 28 31 28 28 25 22 22 19 21 26 23 21 27 31 37 38 41 44 46 36 34 30 35 33 38 31 42 47 61 51 62 62 62 62 61 61 60 51 54
17 17 14 14 19 27 25 29 32 30 24 21 22 24 22 25 22 24 29 35 35 36 38 37 36 31 30 33 39 31 25 39 47 46 39 55 61 59 59 64 67 66 60 52
24 24 26 22 19 26 22 20 20 29 30 25 21 24 29 22 29 27 33 36 37 36 34 35 32 35 32 26 22 34 20 32 32 53 36 42 48 53 55 59 61 36 43 57
28 29 32 30 25 20 16 10 14 12 15 23 24 22 32 27 23 26 30 34 32 32 33 33 34 35 35 36 35 31 26 30 25 21 22 27 22 45 46 35 29 47 29 41
29 33 37 36 32 20 15 10 16 20 17 19 22 24 24 29 25 27 30 31 37 37 31 30 30 32 33 34 36 33 33 33 32 30 29 31 21 24 29 28 27 31 25 24
28 36 41 41 39 29 11 11 13 16 13 7 12 21 24 29 24 24 24 27 30 37 40 40 37 34 33 31 33 34 34 36 34 29 30 28 27 28 31 28 28 26 27 28
27 35 41 43 44 37 13 12 18 10 15 9 6 15 24 29 27 25 23 26 32 32 35 38 44 42 42 37 33 37 41 42 40 37 33 32 33 34 35 33 33 30 30 30
27 33 38 43 45 40 25 1 19 21 7 18 11 5 14 22 24 24 24 22 28 30 29 30 29 33 26 32 38 38 37 41 42 43 39 38 36 34 32 35 35 34 31 30
25 32 39 44 46 43 31 10 16 24 13 8 20 12 13 19 21 23 25 27 27 33 34 33 32 31 31 28 39 42 48 43 42 43 43 41 38 37 34 33 35 36 35 34
24 29 35 41 44 45 33 16 10 21 22 16 12 7 16 19 18 21 25 21 27 30 35 35 33 31 30 29 31 28 32 37 39 40 38 39 41 40 38 38 36 39 40 39
23 27 32 37 42 44 39 25 4 15 19 17 14 13 22 19 20 20 21 26 29 25 30 33 34 32 32 32 32 32 31 31 30 32 34 35 38 39 39 40 40 39 39 40
21 25 29 33 40 42 40 34 15 12 18 19 20 19 13 11 30 24 22 23 25 27 31 32 34 34 36 37 36 34 35 35 35 35 36 36 38 41 43 43 40 40 40 41
19 23 27 31 36 39 36 38 28 16 3 21 26 27 25 22 19 25 30 26 22 26 27 29 32 34 37 37 37 39 40 39 39 39 39 39 38 38 38 40 41 41 44 44
17 21 25 28 32 36 36 36 32 28 19 7 15 19 21 22 25 27 21 30 31 29 28 28 28 30 33 37 40 41 41 42 44 45 47 47 47 46 45 44 45 46 45 46
15 19 23 26 28 32 35 35 35 33 31 19 9 22 26 24 21 20 25 28 31 33 31 32 32 31 31 33 34 36 38 39 40 42 45 46 47 48 48 47 47 47 48 47
14 17 21 25 26 31 32 33 35 37 33 33 16 12 19 24 21 20 23 29 34 31 30 31 32 32 33 35 35 35 35 35 37 40 42 42 41 42 43 44 44 44 45 44
12 16 19 22 25 27 30 29 33 34 34 37 35 14 13 18 24 23 21 26 29 31 34 35 35 36 36 39 39 38 37 37 35 36 38 39 39 41 42 43 42 41 43 44
11 15 17 20 23 25 28 27 27 30 31 34 37 36 28 15 20 22 23 22 23 25 31 35 37 40 42 43 44 44 41 38 37 37 36 36 36 37 38 39 40 40 40 41
10 13 16 18 21 24 26 26 27 28 32 32 28 32 34 33 18 20 24 23 22 22 24 25 28 30 26 33 37 38 41 41 40 39 40 38 36 35 36 36 38 36 36 36
9 12 15 17 19 22 25 26 27 29 26 29 28 25 29 31 32 15 19 22 24 23 23 26 29 28 29 25 25 29 32 37 40 40 40 41 40 38 37 37 35 34 35 37
8 11 14 15 17 21 23 26 25 25 26 24 29 27 24 26 29 28 11 17 22 24 23 22 23 26 29 31 33 32 31 28 30 33 42 41 41 38 37 36 35 36 36 36
9 11 13 14 17 20 23 25 25 24 26 24 25 27 26 27 23 24 22 10 13 23 26 25 23 20 20 21 24 25 28 28 29 32 32 32 34 36 37 37 37 38 40 40

GFSCGP_500_spd_114.txt.gz
Wind_Speed
5 4 7 1 4 5 5 10 10 2 7 8 14 4 10 19 22 33 30 39 40 41 28 40 54 57 67 66 67 56 54 48 60 61 57 60 57 54 52 52 48 46 44 44
7 7 7 6 6 11 14 13 14 11 4 7 9 11 11 10 19 31 38 41 39 51 26 30 43 49 67 65 59 53 37 40 49 69 66 55 56 55 52 50 48 48 47 48
11 10 12 15 16 17 20 19 16 17 15 13 8 9 7 15 19 28 39 36 37 39 42 29 26 43 62 64 58 41 43 43 41 69 69 69 61 57 58 55 52 51 50 50
14 15 15 15 18 21 23 26 22 21 19 17 14 9 1 15 11 19 31 37 35 35 35 33 30 22 45 68 63 46 30 41 42 52 71 68 62 60 59 57 56 53 54 54
15 19 18 18 23 24 22 25 26 22 17 14 14 5 7 5 13 12 27 36 32 34 33 33 31 19 34 50 55 43 37 41 40 47 47 52 56 57 64 60 57 54 56 57
23 24 23 23 23 24 28 21 23 24 18 16 10 7 7 5 14 14 16 28 33 33 31 34 35 33 34 35 45 36 40 50 48 48 49 42 53 49 46 64 62 57 56 53
27 28 29 30 25 22 25 14 9 7 14 17 12 10 15 7 14 15 18 23 31 33 35 29 35 38 39 25 28 30 39 40 61 32 44 42 42 50 52 58 60 54 58 50
31 34 36 42 33 19 16 2 10 1 6 6 17 12 17 15 14 21 21 22 29 32 31 29 30 24 25 25 20 22 18 24 33 40 41 47 48 50 40 54 55 60 54 55
33 34 40 45 40 28 8 11 15 11 15 15 6 20 16 13 17 21 27 23 25 25 30 29 26 29 26 27 21 15 18 14 23 19 19 35 26 35 28 36 51 51 50 42
31 38 42 45 47 36 9 8 13 14 11 3 8 12 17 13 17 20 25 27 26 29 28 27 21 25 24 29 26 24 20 20 21 22 25 24 22 27 19 20 24 37 39 33
27 37 41 45 53 41 13 12 12 9 14 10 9 7 17 17 16 17 21 22 26 29 30 29 28 27 25 24 23 24 29 28 25 23 24 21 24 28 27 27 24 19 27 26
27 34 39 44 49 47 31 6 14 10 13 11 16 5 4 14 18 16 20 22 24 28 33 35 35 35 34 32 29 27 25 27 30 32 31 28 28 29 29 30 28 29 30 31
26 33 38 43 46 47 39 17 18 15 13 14 5 4 9 5 11 16 19 22 25 27 30 31 35 35 31 29 29 34 38 33 29 31 34 34 34 35 36 33 32 32 33 32
25 30 35 39 43 47 44 31 9 14 8 7 6 8 6 5 8 13 17 17 20 26 28 28 29 29 30 29 31 29 25 36 37 35 35 36 33 37 37 37 35 33 31 32
23 28 32 37 41 43 47 39 20 5 18 13 14 18 15 10 10 13 14 20 17 24 29 30 30 30 31 31 32 31 30 28 38 42 40 45 41 43 43 42 41 41 41 41
22 26 30 33 38 41 40 42 35 20 2 11 21 20 21 17 14 19 19 16 18 24 22 30 34 35 35 35 36 37 34 33 35 32 30 30 34 36 36 37 38 40 38 39
20 24 28 31 35 37 38 37 38 35 27 15 14 20 25 23 24 21 18 20 21 20 23 28 27 31 36 34 37 37 37 35 37 38 36 35 36 35 37 37 37 40 40 42
17 20 24 27 30 34 35 36 35 34 35 34 19 12 21 23 23 22 24 24 19 25 23 22 25 27 28 32 36 36 36 38 39 40 40 40 38 39 39 40 40 39 41 40
14 17 20 24 27 30 31 34 34 35 35 34 34 31 21 19 23 23 21 22 25 24 26 29 28 25 25 27 30 33 35 37 39 40 40 41 43 44 45 45 45 44 43 43
12 14 17 20 23 27 30 30 31 33 32 34 35 37 35 23 18 16 24 21 22 24 27 27 31 31 31 29 27 29 30 32 35 37 39 40 41 41 43 43 43 43 45 45
10 12 14 17 20 23 28 30 29 32 32 30 31 32 37 37 26 15 19 23 22 21 24 31 32 31 33 32 32 31 31 33 34 35 35 37 38 38 39 40 41 41 40 41
7 10 12 15 18 19 25 27 28 29 29 27 29 27 27 30 32 30 17 19 24 25 23 23 28 30 31 31 32 33 34 35 37 38 38 37 38 37 38 39 39 39 39 39
5 8 10 12 15 19 22 25 27 27 26 26 30 25 24 25 28 28 29 16 16 23 27 22 22 22 27 30 34 36 39 41 42 44 45 42 39 38 39 38 38 38 38 39
5 7 9 11 13 15 19 22 25 28 27 29 27 26 25 23 23 22 23 24 13 12 20 25 24 25 27 27 27 31 28 27 33 36 41 43 43 41 41 42 43 40 40 41
6 7 9 10 12 14 17 21 25 26 28 28 28 27 23 21 20 18 18 19 18 12 12 19 25 25 26 28 30 31 31 32 30 30 33 36 38 41 43 44 45 45 43 41
10 9 8 11 12 14 16 20 23 25 27 29 30 29 28 25 24 19 15 13 13 13 15 15 22 26 26 23 24 25 26 29 30 32 32 32 32 33 34 40 46 44 44 42

GFSCGP_500_spd_117.txt.gz
Wind_Speed
9 11 10 9 14 13 14 11 12 6 4 5 9 12 4 9 16 18 19 46 46 37 55 54 32 35 37 43 63 63 63 56 78 64 87 78 67 59 56 52 51 49 48 46
8 11 13 16 15 16 19 20 18 13 10 7 8 9 3 4 13 20 28 38 44 46 40 47 37 31 36 49 53 61 61 58 64 43 64 65 61 60 55 53 52 51 51 48
16 16 18 18 19 19 22 23 23 21 15 12 8 6 3 5 10 18 33 16 42 42 40 29 31 25 31 35 49 58 58 58 42 38 44 60 68 65 62 61 58 56 53 51
17 18 20 22 22 22 19 23 21 20 17 8 4 6 8 12 8 14 24 25 27 40 27 27 28 23 14 23 37 51 56 59 75 57 53 50 60 64 66 62 57 57 55 52
19 20 24 25 26 25 19 20 22 20 17 8 4 10 7 11 14 13 15 25 27 29 28 24 28 17 24 18 24 34 43 46 48 48 46 39 47 59 66 62 63 58 57 56
21 27 29 30 25 22 21 12 13 17 15 11 10 13 12 15 15 11 17 25 28 27 29 24 24 23 26 21 28 30 38 51 45 36 44 56 54 49 44 56 54 63 58 57
30 34 38 37 27 18 10 3 7 5 11 15 15 14 10 10 18 17 15 19 27 21 23 22 25 25 31 18 19 32 32 50 62 37 39 47 47 60 47 47 55 60 59 59
35 40 42 45 34 15 7 17 16 9 8 12 15 15 11 12 17 18 13 19 23 31 28 23 17 21 20 26 21 17 29 39 54 50 37 38 41 36 44 39 42 45 59 62
37 40 45 48 38 16 12 11 10 17 19 13 13 14 18 15 16 22 18 18 22 26 31 29 22 22 16 16 12 13 22 32 40 45 36 31 34 36 35 40 45 45 44 43
36 41 46 51 44 22 14 14 11 13 19 18 6 9 14 15 18 24 30 20 25 20 24 29 31 26 17 18 15 18 18 21 30 26 38 38 30 27 29 29 33 47 51 51
35 40 45 52 54 30 18 14 11 10 11 10 7 3 9 15 18 21 25 28 19 21 19 25 26 26 20 18 24 20 14 16 20 25 22 20 24 17 23 16 27 28 26 32
32 38 42 49 57 42 19 17 16 20 23 14 10 6 7 1 17 20 21 18 18 21 22 24 26 24 17 19 17 22 28 21 21 20 16 19 21 22 24 26 19 24 22 13
32 36 42 45 47 49 28 15 14 15 12 11 8 7 7 6 1 18 20 19 18 20 23 30 26 29 28 26 25 23 23 22 20 19 25 22 30 28 29 27 27 28 30 26
30 33 38 41 43 44 40 28 9 8 10 9 6 5 6 5 4 3 14 20 22 22 23 26 28 27 29 30 30 30 29 28 27 27 24 28 30 31 31 26 30 32 33 29
26 29 34 37 40 42 40 37 29 6 6 6 8 8 10 8 7 9 8 11 17 23 26 26 29 30 29 29 30 29 30 31 34 37 37 34 32 30 33 31 32 35 37 38
23 26 29 33 35 39 40 39 37 31 22 17 9 13 18 20 19 18 17 16 15 19 23 27 27 28 29 30 31 32 31 31 33 30 38 42 41 41 38 36 39 41 41 41
18 22 25 28 32 33 36 36 34 35 35 35 34 29 16 14 20 21 15 14 13 19 22 25 28 29 29 29 31 32 33 33 34 34 33 38 43 41 43 44 45 44 48 47
13 17 21 25 27 30 31 33 35 33 32 34 37 36 34 19 10 16 23 26 23 20 19 24 26 30 30 30 32 34 34 36 35 35 36 37 39 39 42 41 40 40 41 40
10 13 16 21 24 25 28 29 30 33 34 33 33 35 36 34 29 19 11 18 19 21 24 24 23 27 30 34 32 33 38 36 35 36 37 40 41 41 43 46 44 43 43 42
7 8 13 17 20 23 25 27 27 27 29 33 31 36 35 34 32 31 20 8 11 19 21 25 28 25 29 29 30 35 38 38 37 39 40 41 42 45 46 45 43 44 44 47
4 6 8 12 15 19 23 25 25 28 28 28 25 30 31 32 33 31 29 24 12 10 17 19 20 27 30 31 33 32 32 33 35 37 40 41 41 42 43 43 43 45 44 42
2 4 6 7 10 14 18 22 24 26 27 28 27 28 26 27 27 30 30 30 28 17 8 16 22 22 24 31 31 32 34 36 38 37 38 39 38 37 38 39 40 41 42 44
6 4 5 6 7 10 14 18 22 24 26 26 26 26 27 26 25 24 28 29 26 26 21 11 11 19 18 19 28 34 37 37 38 39 38 41 42 43 43 43 43 42 42 43
9 8 6 7 8 9 10 13 18 23 24 25 26 27 28 27 26 29 26 23 22 22 23 20 12 10 17 23 24 27 30 33 38 42 43 44 47 49 50 50 49 46 44 43
13 12 11 9 9 9 10 11 14 17 22 23 24 26 26 25 29 28 25 23 20 17 15 15 14 12 12 16 22 26 30 34 36 37 39 38 37 39 41 44 48 49 49 48
17 15 14 13 12 10 10 11 13 15 18 22 24 25 25 27 26 27 27 25 23 12 11 6 10 16 19 20 23 27 29 29 30 32 33 34 38 41 42 42 43 45 45 48